<?xml version="1.0" encoding="UTF-8" standalone="no" ?>
<gpx xmlns="http://www.topografix.com/GPX/1/1" xmlns:xsi="http://www.w3.org/2001/XMLSchema-instance" xsi:schemaLocation="http://www.topografix.com/GPX/1/1 http://www.topografix.com/GPX/1/1/gpx.xsd" version="1.1" creator="VisuGPX - https://www.visugpx.com">
  <metadata>
    <name>Theix Berric Lauzach</name>
  </metadata>
  <trk>
    <name><![CDATA[Theix Berric Lauzach_1]]></name>
    <trkseg>
      <trkpt lat="47.63088" lon="-2.65337">
        <ele>15.5</ele>
      </trkpt>
      <trkpt lat="47.62941" lon="-2.6506">
        <ele>21.1</ele>
      </trkpt>
      <trkpt lat="47.62905" lon="-2.64959">
        <ele>22.4</ele>
      </trkpt>
      <trkpt lat="47.62908" lon="-2.64846">
        <ele>18.4</ele>
      </trkpt>
      <trkpt lat="47.62887" lon="-2.64807">
        <ele>17.2</ele>
      </trkpt>
      <trkpt lat="47.62819" lon="-2.6476">
        <ele>14.2</ele>
      </trkpt>
      <trkpt lat="47.62769" lon="-2.64702">
        <ele>8.9</ele>
      </trkpt>
      <trkpt lat="47.62757" lon="-2.64631">
        <ele>6.8</ele>
      </trkpt>
      <trkpt lat="47.62814" lon="-2.64419">
        <ele>11.8</ele>
      </trkpt>
      <trkpt lat="47.6279" lon="-2.64365">
        <ele>10.2</ele>
      </trkpt>
      <trkpt lat="47.62799" lon="-2.6432">
        <ele>12.1</ele>
      </trkpt>
      <trkpt lat="47.62821" lon="-2.64301">
        <ele>14.1</ele>
      </trkpt>
      <trkpt lat="47.62867" lon="-2.6417">
        <ele>14.6</ele>
      </trkpt>
      <trkpt lat="47.62886" lon="-2.64045">
        <ele>13.1</ele>
      </trkpt>
      <trkpt lat="47.62896" lon="-2.6382">
        <ele>11.7</ele>
      </trkpt>
      <trkpt lat="47.62948" lon="-2.63657">
        <ele>12.5</ele>
      </trkpt>
      <trkpt lat="47.63007" lon="-2.63578">
        <ele>13.3</ele>
      </trkpt>
      <trkpt lat="47.63023" lon="-2.63543">
        <ele>16.1</ele>
      </trkpt>
      <trkpt lat="47.632" lon="-2.63464">
        <ele>18.9</ele>
      </trkpt>
      <trkpt lat="47.6337" lon="-2.62942">
        <ele>16.6</ele>
      </trkpt>
      <trkpt lat="47.63392" lon="-2.62565">
        <ele>15.2</ele>
      </trkpt>
      <trkpt lat="47.63552" lon="-2.61786">
        <ele>19.9</ele>
      </trkpt>
      <trkpt lat="47.63568" lon="-2.61807">
        <ele>19.5</ele>
      </trkpt>
      <trkpt lat="47.6373" lon="-2.61067">
        <ele>26.5</ele>
      </trkpt>
      <trkpt lat="47.63729" lon="-2.60872">
        <ele>32.3</ele>
      </trkpt>
      <trkpt lat="47.63853" lon="-2.60852">
        <ele>36.2</ele>
      </trkpt>
      <trkpt lat="47.63936" lon="-2.60801">
        <ele>39.4</ele>
      </trkpt>
      <trkpt lat="47.64035" lon="-2.60666">
        <ele>44.7</ele>
      </trkpt>
      <trkpt lat="47.64374" lon="-2.6023">
        <ele>34.4</ele>
      </trkpt>
      <trkpt lat="47.64336" lon="-2.60065">
        <ele>32</ele>
      </trkpt>
      <trkpt lat="47.64345" lon="-2.6005">
        <ele>31.9</ele>
      </trkpt>
      <trkpt lat="47.64401" lon="-2.59988">
        <ele>32.7</ele>
      </trkpt>
      <trkpt lat="47.6446" lon="-2.59979">
        <ele>33.1</ele>
      </trkpt>
      <trkpt lat="47.64488" lon="-2.59876">
        <ele>32.6</ele>
      </trkpt>
      <trkpt lat="47.64489" lon="-2.59876">
        <ele>32.6</ele>
      </trkpt>
      <trkpt lat="47.64529" lon="-2.5983">
        <ele>34.3</ele>
      </trkpt>
      <trkpt lat="47.64544" lon="-2.59757">
        <ele>39.7</ele>
      </trkpt>
      <trkpt lat="47.6459" lon="-2.5971">
        <ele>44.3</ele>
      </trkpt>
      <trkpt lat="47.64607" lon="-2.59741">
        <ele>43.9</ele>
      </trkpt>
      <trkpt lat="47.6468" lon="-2.59669">
        <ele>-18.8</ele>
        <time>2020-10-07T12:31:34Z</time>
      </trkpt>
      <trkpt lat="47.64696" lon="-2.59652">
        <ele>-20.6</ele>
        <time>2020-10-07T12:31:46Z</time>
      </trkpt>
      <trkpt lat="47.64709" lon="-2.59636">
        <ele>-20.8</ele>
        <time>2020-10-07T12:31:50Z</time>
      </trkpt>
      <trkpt lat="47.6472" lon="-2.59621">
        <ele>-20.2</ele>
        <time>2020-10-07T12:31:54Z</time>
      </trkpt>
      <trkpt lat="47.64733" lon="-2.59602">
        <ele>-19.8</ele>
        <time>2020-10-07T12:31:58Z</time>
      </trkpt>
      <trkpt lat="47.64747" lon="-2.59585">
        <ele>-19.6</ele>
        <time>2020-10-07T12:32:02Z</time>
      </trkpt>
      <trkpt lat="47.6476" lon="-2.59572">
        <ele>-18.6</ele>
        <time>2020-10-07T12:32:06Z</time>
      </trkpt>
      <trkpt lat="47.64771" lon="-2.59559">
        <ele>-18.8</ele>
        <time>2020-10-07T12:32:10Z</time>
      </trkpt>
      <trkpt lat="47.64781" lon="-2.59546">
        <ele>-18.6</ele>
        <time>2020-10-07T12:32:14Z</time>
      </trkpt>
      <trkpt lat="47.64792" lon="-2.59532">
        <ele>-18.8</ele>
        <time>2020-10-07T12:32:18Z</time>
      </trkpt>
      <trkpt lat="47.64799" lon="-2.59514">
        <ele>-18.6</ele>
        <time>2020-10-07T12:32:22Z</time>
      </trkpt>
      <trkpt lat="47.64807" lon="-2.59493">
        <ele>-18.8</ele>
        <time>2020-10-07T12:32:26Z</time>
      </trkpt>
      <trkpt lat="47.64814" lon="-2.59474">
        <ele>-19</ele>
        <time>2020-10-07T12:32:30Z</time>
      </trkpt>
      <trkpt lat="47.64822" lon="-2.59456">
        <ele>-18.4</ele>
        <time>2020-10-07T12:32:34Z</time>
      </trkpt>
      <trkpt lat="47.64832" lon="-2.59445">
        <ele>-17.2</ele>
        <time>2020-10-07T12:32:38Z</time>
      </trkpt>
      <trkpt lat="47.64841" lon="-2.59437">
        <ele>-16.2</ele>
        <time>2020-10-07T12:32:42Z</time>
      </trkpt>
      <trkpt lat="47.6485" lon="-2.5943">
        <ele>-14.4</ele>
        <time>2020-10-07T12:32:46Z</time>
      </trkpt>
      <trkpt lat="47.64858" lon="-2.59424">
        <ele>-13.2</ele>
        <time>2020-10-07T12:32:50Z</time>
      </trkpt>
      <trkpt lat="47.64865" lon="-2.59418">
        <ele>-12.2</ele>
        <time>2020-10-07T12:32:54Z</time>
      </trkpt>
      <trkpt lat="47.64873" lon="-2.59412">
        <ele>-10.8</ele>
        <time>2020-10-07T12:32:58Z</time>
      </trkpt>
      <trkpt lat="47.64878" lon="-2.59407">
        <ele>-10.4</ele>
        <time>2020-10-07T12:33:02Z</time>
      </trkpt>
      <trkpt lat="47.64884" lon="-2.59401">
        <ele>-10.2</ele>
        <time>2020-10-07T12:33:06Z</time>
      </trkpt>
      <trkpt lat="47.64892" lon="-2.59396">
        <ele>-9.4</ele>
        <time>2020-10-07T12:33:10Z</time>
      </trkpt>
      <trkpt lat="47.64898" lon="-2.59386">
        <ele>-9</ele>
        <time>2020-10-07T12:33:14Z</time>
      </trkpt>
      <trkpt lat="47.64906" lon="-2.5938">
        <ele>-8.4</ele>
        <time>2020-10-07T12:33:18Z</time>
      </trkpt>
      <trkpt lat="47.64915" lon="-2.59372">
        <ele>-8.8</ele>
        <time>2020-10-07T12:33:22Z</time>
      </trkpt>
      <trkpt lat="47.64925" lon="-2.59364">
        <ele>-8.4</ele>
        <time>2020-10-07T12:33:26Z</time>
      </trkpt>
      <trkpt lat="47.64937" lon="-2.59354">
        <ele>-8.8</ele>
        <time>2020-10-07T12:33:30Z</time>
      </trkpt>
      <trkpt lat="47.64949" lon="-2.59344">
        <ele>-8.4</ele>
        <time>2020-10-07T12:33:34Z</time>
      </trkpt>
      <trkpt lat="47.64962" lon="-2.59334">
        <ele>-8.6</ele>
        <time>2020-10-07T12:33:38Z</time>
      </trkpt>
      <trkpt lat="47.64975" lon="-2.59323">
        <ele>-8.6</ele>
        <time>2020-10-07T12:33:42Z</time>
      </trkpt>
      <trkpt lat="47.64987" lon="-2.59313">
        <ele>-8</ele>
        <time>2020-10-07T12:33:46Z</time>
      </trkpt>
      <trkpt lat="47.64999" lon="-2.59304">
        <ele>-8.4</ele>
        <time>2020-10-07T12:33:50Z</time>
      </trkpt>
      <trkpt lat="47.6501" lon="-2.59293">
        <ele>-7.6</ele>
        <time>2020-10-07T12:33:54Z</time>
      </trkpt>
      <trkpt lat="47.65015" lon="-2.59277">
        <ele>-8</ele>
        <time>2020-10-07T12:33:58Z</time>
      </trkpt>
      <trkpt lat="47.65011" lon="-2.59261">
        <ele>-7</ele>
        <time>2020-10-07T12:34:02Z</time>
      </trkpt>
      <trkpt lat="47.65005" lon="-2.59244">
        <ele>-6.8</ele>
        <time>2020-10-07T12:34:06Z</time>
      </trkpt>
      <trkpt lat="47.65" lon="-2.59224">
        <ele>-5.6</ele>
        <time>2020-10-07T12:34:10Z</time>
      </trkpt>
      <trkpt lat="47.65003" lon="-2.59205">
        <ele>-4.6</ele>
        <time>2020-10-07T12:34:14Z</time>
      </trkpt>
      <trkpt lat="47.65015" lon="-2.59196">
        <ele>-5.2</ele>
        <time>2020-10-07T12:34:18Z</time>
      </trkpt>
      <trkpt lat="47.65028" lon="-2.59188">
        <ele>-5</ele>
        <time>2020-10-07T12:34:22Z</time>
      </trkpt>
      <trkpt lat="47.65041" lon="-2.59182">
        <ele>-4.8</ele>
        <time>2020-10-07T12:34:26Z</time>
      </trkpt>
      <trkpt lat="47.65054" lon="-2.59176">
        <ele>-4</ele>
        <time>2020-10-07T12:34:30Z</time>
      </trkpt>
      <trkpt lat="47.65067" lon="-2.59171">
        <ele>-3.6</ele>
        <time>2020-10-07T12:34:34Z</time>
      </trkpt>
      <trkpt lat="47.65079" lon="-2.59167">
        <ele>-3.4</ele>
        <time>2020-10-07T12:34:38Z</time>
      </trkpt>
      <trkpt lat="47.65087" lon="-2.59173">
        <ele>-3.8</ele>
        <time>2020-10-07T12:34:42Z</time>
      </trkpt>
      <trkpt lat="47.65091" lon="-2.59193">
        <ele>-5.2</ele>
        <time>2020-10-07T12:34:46Z</time>
      </trkpt>
      <trkpt lat="47.65095" lon="-2.59218">
        <ele>-6.2</ele>
        <time>2020-10-07T12:34:50Z</time>
      </trkpt>
      <trkpt lat="47.651" lon="-2.59244">
        <ele>-7.2</ele>
        <time>2020-10-07T12:34:54Z</time>
      </trkpt>
      <trkpt lat="47.65106" lon="-2.59271">
        <ele>-5.6</ele>
        <time>2020-10-07T12:34:58Z</time>
      </trkpt>
      <trkpt lat="47.65115" lon="-2.59299">
        <ele>-7.2</ele>
        <time>2020-10-07T12:35:02Z</time>
      </trkpt>
      <trkpt lat="47.65127" lon="-2.59324">
        <ele>-6.6</ele>
        <time>2020-10-07T12:35:06Z</time>
      </trkpt>
      <trkpt lat="47.65139" lon="-2.59343">
        <ele>-6</ele>
        <time>2020-10-07T12:35:10Z</time>
      </trkpt>
      <trkpt lat="47.65151" lon="-2.59359">
        <ele>-4.8</ele>
        <time>2020-10-07T12:35:14Z</time>
      </trkpt>
      <trkpt lat="47.65162" lon="-2.59373">
        <ele>-3.2</ele>
        <time>2020-10-07T12:35:18Z</time>
      </trkpt>
      <trkpt lat="47.65173" lon="-2.59386">
        <ele>-2.8</ele>
        <time>2020-10-07T12:35:22Z</time>
      </trkpt>
      <trkpt lat="47.65183" lon="-2.59397">
        <ele>-1</ele>
        <time>2020-10-07T12:35:26Z</time>
      </trkpt>
      <trkpt lat="47.65193" lon="-2.59408">
        <ele>-0.4</ele>
        <time>2020-10-07T12:35:30Z</time>
      </trkpt>
      <trkpt lat="47.65202" lon="-2.59421">
        <ele>-0.8</ele>
        <time>2020-10-07T12:35:34Z</time>
      </trkpt>
      <trkpt lat="47.65211" lon="-2.59434">
        <ele>-0.6</ele>
        <time>2020-10-07T12:35:38Z</time>
      </trkpt>
      <trkpt lat="47.65219" lon="-2.59451">
        <ele>60.8</ele>
        <time>2020-10-07T12:35:42Z</time>
      </trkpt>
      <trkpt lat="47.65227" lon="-2.59469">
        <ele>0.4</ele>
        <time>2020-10-07T12:35:46Z</time>
      </trkpt>
      <trkpt lat="47.65235" lon="-2.59488">
        <ele>0.4</ele>
        <time>2020-10-07T12:35:50Z</time>
      </trkpt>
      <trkpt lat="47.65243" lon="-2.59507">
        <ele>61</ele>
        <time>2020-10-07T12:35:54Z</time>
      </trkpt>
      <trkpt lat="47.65251" lon="-2.59529">
        <ele>-1.2</ele>
        <time>2020-10-07T12:35:58Z</time>
      </trkpt>
      <trkpt lat="47.65261" lon="-2.59552">
        <ele>-2.4</ele>
        <time>2020-10-07T12:36:02Z</time>
      </trkpt>
      <trkpt lat="47.65271" lon="-2.59577">
        <ele>-3.4</ele>
        <time>2020-10-07T12:36:06Z</time>
      </trkpt>
      <trkpt lat="47.65283" lon="-2.59588">
        <ele>-1.4</ele>
        <time>2020-10-07T12:36:10Z</time>
      </trkpt>
      <trkpt lat="47.65294" lon="-2.59578">
        <ele>-1</ele>
        <time>2020-10-07T12:36:14Z</time>
      </trkpt>
      <trkpt lat="47.65303" lon="-2.5957">
        <ele>-0.6</ele>
        <time>2020-10-07T12:36:18Z</time>
      </trkpt>
      <trkpt lat="47.65312" lon="-2.5956">
        <ele>60.3</ele>
        <time>2020-10-07T12:36:22Z</time>
      </trkpt>
      <trkpt lat="47.65322" lon="-2.59556">
        <ele>0.6</ele>
        <time>2020-10-07T12:36:26Z</time>
      </trkpt>
      <trkpt lat="47.65336" lon="-2.59545">
        <ele>1</ele>
        <time>2020-10-07T12:36:30Z</time>
      </trkpt>
      <trkpt lat="47.65348" lon="-2.59534">
        <ele>1.8</ele>
        <time>2020-10-07T12:36:34Z</time>
      </trkpt>
      <trkpt lat="47.65361" lon="-2.59525">
        <ele>1.4</ele>
        <time>2020-10-07T12:36:38Z</time>
      </trkpt>
      <trkpt lat="47.65375" lon="-2.59515">
        <ele>2</ele>
        <time>2020-10-07T12:36:42Z</time>
      </trkpt>
      <trkpt lat="47.65388" lon="-2.59504">
        <ele>1.8</ele>
        <time>2020-10-07T12:36:46Z</time>
      </trkpt>
      <trkpt lat="47.65397" lon="-2.59495">
        <ele>2.4</ele>
        <time>2020-10-07T12:36:50Z</time>
      </trkpt>
      <trkpt lat="47.6541" lon="-2.59484">
        <ele>2.8</ele>
        <time>2020-10-07T12:36:54Z</time>
      </trkpt>
      <trkpt lat="47.65418" lon="-2.59469">
        <ele>2.4</ele>
        <time>2020-10-07T12:36:58Z</time>
      </trkpt>
      <trkpt lat="47.65425" lon="-2.59457">
        <ele>3</ele>
        <time>2020-10-07T12:37:02Z</time>
      </trkpt>
      <trkpt lat="47.65433" lon="-2.59451">
        <ele>3</ele>
        <time>2020-10-07T12:37:06Z</time>
      </trkpt>
      <trkpt lat="47.65446" lon="-2.59441">
        <ele>3.4</ele>
        <time>2020-10-07T12:37:10Z</time>
      </trkpt>
      <trkpt lat="47.65459" lon="-2.59433">
        <ele>3.6</ele>
        <time>2020-10-07T12:37:14Z</time>
      </trkpt>
      <trkpt lat="47.65474" lon="-2.59421">
        <ele>4</ele>
        <time>2020-10-07T12:37:18Z</time>
      </trkpt>
      <trkpt lat="47.65494" lon="-2.59412">
        <ele>5.2</ele>
        <time>2020-10-07T12:37:22Z</time>
      </trkpt>
      <trkpt lat="47.65505" lon="-2.59401">
        <ele>5.8</ele>
        <time>2020-10-07T12:37:26Z</time>
      </trkpt>
      <trkpt lat="47.65514" lon="-2.59391">
        <ele>6</ele>
        <time>2020-10-07T12:37:30Z</time>
      </trkpt>
      <trkpt lat="47.65525" lon="-2.59382">
        <ele>6.8</ele>
        <time>2020-10-07T12:37:34Z</time>
      </trkpt>
      <trkpt lat="47.65536" lon="-2.59372">
        <ele>7.2</ele>
        <time>2020-10-07T12:37:38Z</time>
      </trkpt>
      <trkpt lat="47.65546" lon="-2.5936">
        <ele>7.4</ele>
        <time>2020-10-07T12:37:42Z</time>
      </trkpt>
      <trkpt lat="47.65556" lon="-2.59351">
        <ele>8.2</ele>
        <time>2020-10-07T12:37:46Z</time>
      </trkpt>
      <trkpt lat="47.65566" lon="-2.59343">
        <ele>8.8</ele>
        <time>2020-10-07T12:37:50Z</time>
      </trkpt>
      <trkpt lat="47.65577" lon="-2.59336">
        <ele>10</ele>
        <time>2020-10-07T12:37:54Z</time>
      </trkpt>
      <trkpt lat="47.65586" lon="-2.59329">
        <ele>10.8</ele>
        <time>2020-10-07T12:37:58Z</time>
      </trkpt>
      <trkpt lat="47.65594" lon="-2.59321">
        <ele>11.2</ele>
        <time>2020-10-07T12:38:02Z</time>
      </trkpt>
      <trkpt lat="47.65603" lon="-2.59313">
        <ele>11.4</ele>
        <time>2020-10-07T12:38:06Z</time>
      </trkpt>
      <trkpt lat="47.65611" lon="-2.59306">
        <ele>12.4</ele>
        <time>2020-10-07T12:38:10Z</time>
      </trkpt>
      <trkpt lat="47.65617" lon="-2.59301">
        <ele>13.6</ele>
        <time>2020-10-07T12:38:14Z</time>
      </trkpt>
      <trkpt lat="47.65625" lon="-2.59298">
        <ele>15</ele>
        <time>2020-10-07T12:38:18Z</time>
      </trkpt>
      <trkpt lat="47.65631" lon="-2.59295">
        <ele>16.8</ele>
        <time>2020-10-07T12:38:22Z</time>
      </trkpt>
      <trkpt lat="47.65636" lon="-2.5929">
        <ele>18.2</ele>
        <time>2020-10-07T12:38:26Z</time>
      </trkpt>
      <trkpt lat="47.65641" lon="-2.59286">
        <ele>19.2</ele>
        <time>2020-10-07T12:38:30Z</time>
      </trkpt>
      <trkpt lat="47.65648" lon="-2.59281">
        <ele>20.2</ele>
        <time>2020-10-07T12:38:34Z</time>
      </trkpt>
      <trkpt lat="47.6566" lon="-2.59275">
        <ele>20.6</ele>
        <time>2020-10-07T12:38:38Z</time>
      </trkpt>
      <trkpt lat="47.65667" lon="-2.59269">
        <ele>22.2</ele>
        <time>2020-10-07T12:38:42Z</time>
      </trkpt>
      <trkpt lat="47.65674" lon="-2.59268">
        <ele>22.6</ele>
        <time>2020-10-07T12:38:46Z</time>
      </trkpt>
      <trkpt lat="47.6568" lon="-2.59266">
        <ele>22.4</ele>
        <time>2020-10-07T12:38:50Z</time>
      </trkpt>
      <trkpt lat="47.6569" lon="-2.5926">
        <ele>22.8</ele>
        <time>2020-10-07T12:38:54Z</time>
      </trkpt>
      <trkpt lat="47.65698" lon="-2.59258">
        <ele>23.8</ele>
        <time>2020-10-07T12:38:58Z</time>
      </trkpt>
      <trkpt lat="47.65705" lon="-2.59255">
        <ele>24.8</ele>
        <time>2020-10-07T12:39:02Z</time>
      </trkpt>
      <trkpt lat="47.65718" lon="-2.59247">
        <ele>24.6</ele>
        <time>2020-10-07T12:39:06Z</time>
      </trkpt>
      <trkpt lat="47.65728" lon="-2.59243">
        <ele>25.4</ele>
        <time>2020-10-07T12:39:10Z</time>
      </trkpt>
      <trkpt lat="47.65738" lon="-2.5924">
        <ele>25.6</ele>
        <time>2020-10-07T12:39:14Z</time>
      </trkpt>
      <trkpt lat="47.65748" lon="-2.59237">
        <ele>25.8</ele>
        <time>2020-10-07T12:39:18Z</time>
      </trkpt>
      <trkpt lat="47.65758" lon="-2.59235">
        <ele>26.4</ele>
        <time>2020-10-07T12:39:22Z</time>
      </trkpt>
      <trkpt lat="47.65767" lon="-2.59235">
        <ele>27.6</ele>
        <time>2020-10-07T12:39:26Z</time>
      </trkpt>
      <trkpt lat="47.65778" lon="-2.59234">
        <ele>28.8</ele>
        <time>2020-10-07T12:39:30Z</time>
      </trkpt>
      <trkpt lat="47.65787" lon="-2.5923">
        <ele>29.2</ele>
        <time>2020-10-07T12:39:34Z</time>
      </trkpt>
      <trkpt lat="47.65798" lon="-2.59226">
        <ele>30.6</ele>
        <time>2020-10-07T12:39:38Z</time>
      </trkpt>
      <trkpt lat="47.65807" lon="-2.59224">
        <ele>31</ele>
        <time>2020-10-07T12:39:42Z</time>
      </trkpt>
      <trkpt lat="47.65814" lon="-2.59223">
        <ele>31.2</ele>
        <time>2020-10-07T12:39:46Z</time>
      </trkpt>
      <trkpt lat="47.65823" lon="-2.59222">
        <ele>31.2</ele>
        <time>2020-10-07T12:39:50Z</time>
      </trkpt>
      <trkpt lat="47.65833" lon="-2.5922">
        <ele>32</ele>
        <time>2020-10-07T12:39:54Z</time>
      </trkpt>
      <trkpt lat="47.65844" lon="-2.59218">
        <ele>32</ele>
        <time>2020-10-07T12:39:58Z</time>
      </trkpt>
      <trkpt lat="47.65851" lon="-2.59211">
        <ele>32.6</ele>
        <time>2020-10-07T12:40:02Z</time>
      </trkpt>
      <trkpt lat="47.65859" lon="-2.59208">
        <ele>32.6</ele>
        <time>2020-10-07T12:40:06Z</time>
      </trkpt>
      <trkpt lat="47.65865" lon="-2.59203">
        <ele>32.6</ele>
        <time>2020-10-07T12:40:10Z</time>
      </trkpt>
      <trkpt lat="47.65875" lon="-2.59198">
        <ele>32.6</ele>
        <time>2020-10-07T12:40:14Z</time>
      </trkpt>
      <trkpt lat="47.65884" lon="-2.59196">
        <ele>34</ele>
        <time>2020-10-07T12:40:18Z</time>
      </trkpt>
      <trkpt lat="47.65896" lon="-2.59192">
        <ele>34.4</ele>
        <time>2020-10-07T12:40:22Z</time>
      </trkpt>
      <trkpt lat="47.65908" lon="-2.59189">
        <ele>36.2</ele>
        <time>2020-10-07T12:40:26Z</time>
      </trkpt>
      <trkpt lat="47.65917" lon="-2.59186">
        <ele>37</ele>
        <time>2020-10-07T12:40:30Z</time>
      </trkpt>
      <trkpt lat="47.65928" lon="-2.59181">
        <ele>38.4</ele>
        <time>2020-10-07T12:40:34Z</time>
      </trkpt>
      <trkpt lat="47.65936" lon="-2.59172">
        <ele>39.6</ele>
        <time>2020-10-07T12:40:38Z</time>
      </trkpt>
      <trkpt lat="47.65943" lon="-2.59166">
        <ele>39.8</ele>
        <time>2020-10-07T12:40:42Z</time>
      </trkpt>
      <trkpt lat="47.65947" lon="-2.5916">
        <ele>39.6</ele>
        <time>2020-10-07T12:40:54Z</time>
      </trkpt>
      <trkpt lat="47.65953" lon="-2.59165">
        <ele>39.6</ele>
        <time>2020-10-07T12:41:14Z</time>
      </trkpt>
      <trkpt lat="47.6595" lon="-2.59164">
        <ele>38.8</ele>
        <time>2020-10-07T12:41:18Z</time>
      </trkpt>
      <trkpt lat="47.65947" lon="-2.59149">
        <ele>39.6</ele>
        <time>2020-10-07T12:41:22Z</time>
      </trkpt>
      <trkpt lat="47.65944" lon="-2.59138">
        <ele>40.2</ele>
        <time>2020-10-07T12:41:26Z</time>
      </trkpt>
      <trkpt lat="47.65939" lon="-2.59123">
        <ele>40.4</ele>
        <time>2020-10-07T12:41:30Z</time>
      </trkpt>
      <trkpt lat="47.6593" lon="-2.59106">
        <ele>40.6</ele>
        <time>2020-10-07T12:41:34Z</time>
      </trkpt>
      <trkpt lat="47.65925" lon="-2.59093">
        <ele>41.8</ele>
        <time>2020-10-07T12:41:38Z</time>
      </trkpt>
      <trkpt lat="47.6592" lon="-2.5908">
        <ele>42.8</ele>
        <time>2020-10-07T12:41:42Z</time>
      </trkpt>
      <trkpt lat="47.65918" lon="-2.59071">
        <ele>43</ele>
        <time>2020-10-07T12:41:46Z</time>
      </trkpt>
      <trkpt lat="47.65916" lon="-2.5906">
        <ele>44</ele>
        <time>2020-10-07T12:41:50Z</time>
      </trkpt>
      <trkpt lat="47.65914" lon="-2.59051">
        <ele>45.2</ele>
        <time>2020-10-07T12:41:54Z</time>
      </trkpt>
      <trkpt lat="47.65913" lon="-2.59041">
        <ele>45.6</ele>
        <time>2020-10-07T12:41:58Z</time>
      </trkpt>
      <trkpt lat="47.65913" lon="-2.5903">
        <ele>46.8</ele>
        <time>2020-10-07T12:42:02Z</time>
      </trkpt>
      <trkpt lat="47.65913" lon="-2.59018">
        <ele>47</ele>
        <time>2020-10-07T12:42:06Z</time>
      </trkpt>
      <trkpt lat="47.65913" lon="-2.59008">
        <ele>47.4</ele>
        <time>2020-10-07T12:42:10Z</time>
      </trkpt>
      <trkpt lat="47.65913" lon="-2.58997">
        <ele>48</ele>
        <time>2020-10-07T12:42:14Z</time>
      </trkpt>
      <trkpt lat="47.65912" lon="-2.58985">
        <ele>48.6</ele>
        <time>2020-10-07T12:42:18Z</time>
      </trkpt>
      <trkpt lat="47.65911" lon="-2.58972">
        <ele>49.4</ele>
        <time>2020-10-07T12:42:22Z</time>
      </trkpt>
      <trkpt lat="47.65909" lon="-2.58957">
        <ele>50</ele>
        <time>2020-10-07T12:42:26Z</time>
      </trkpt>
      <trkpt lat="47.65903" lon="-2.58939">
        <ele>50.2</ele>
        <time>2020-10-07T12:42:30Z</time>
      </trkpt>
      <trkpt lat="47.65902" lon="-2.58924">
        <ele>50.4</ele>
        <time>2020-10-07T12:42:34Z</time>
      </trkpt>
      <trkpt lat="47.65899" lon="-2.58909">
        <ele>50.8</ele>
        <time>2020-10-07T12:42:38Z</time>
      </trkpt>
      <trkpt lat="47.65895" lon="-2.58893">
        <ele>50.8</ele>
        <time>2020-10-07T12:42:42Z</time>
      </trkpt>
      <trkpt lat="47.65891" lon="-2.58879">
        <ele>51.4</ele>
        <time>2020-10-07T12:42:46Z</time>
      </trkpt>
      <trkpt lat="47.6589" lon="-2.58866">
        <ele>52.2</ele>
        <time>2020-10-07T12:42:50Z</time>
      </trkpt>
      <trkpt lat="47.65887" lon="-2.58854">
        <ele>52.2</ele>
        <time>2020-10-07T12:42:54Z</time>
      </trkpt>
      <trkpt lat="47.65882" lon="-2.58844">
        <ele>52.4</ele>
        <time>2020-10-07T12:42:58Z</time>
      </trkpt>
      <trkpt lat="47.65876" lon="-2.58833">
        <ele>52.4</ele>
        <time>2020-10-07T12:43:02Z</time>
      </trkpt>
      <trkpt lat="47.65868" lon="-2.5882">
        <ele>52.8</ele>
        <time>2020-10-07T12:43:06Z</time>
      </trkpt>
      <trkpt lat="47.65859" lon="-2.58809">
        <ele>52.8</ele>
        <time>2020-10-07T12:43:10Z</time>
      </trkpt>
      <trkpt lat="47.65851" lon="-2.58795">
        <ele>53</ele>
        <time>2020-10-07T12:43:14Z</time>
      </trkpt>
      <trkpt lat="47.65844" lon="-2.58782">
        <ele>53.4</ele>
        <time>2020-10-07T12:43:18Z</time>
      </trkpt>
      <trkpt lat="47.65835" lon="-2.58767">
        <ele>53.2</ele>
        <time>2020-10-07T12:43:22Z</time>
      </trkpt>
      <trkpt lat="47.65828" lon="-2.58753">
        <ele>54.2</ele>
        <time>2020-10-07T12:43:26Z</time>
      </trkpt>
      <trkpt lat="47.65823" lon="-2.58744">
        <ele>54.6</ele>
        <time>2020-10-07T12:43:30Z</time>
      </trkpt>
      <trkpt lat="47.65815" lon="-2.58728">
        <ele>55</ele>
        <time>2020-10-07T12:43:34Z</time>
      </trkpt>
      <trkpt lat="47.65809" lon="-2.58716">
        <ele>54.6</ele>
        <time>2020-10-07T12:43:38Z</time>
      </trkpt>
      <trkpt lat="47.65802" lon="-2.58702">
        <ele>54.8</ele>
        <time>2020-10-07T12:43:42Z</time>
      </trkpt>
      <trkpt lat="47.65795" lon="-2.58689">
        <ele>54.2</ele>
        <time>2020-10-07T12:43:46Z</time>
      </trkpt>
      <trkpt lat="47.65789" lon="-2.58675">
        <ele>54.8</ele>
        <time>2020-10-07T12:43:50Z</time>
      </trkpt>
      <trkpt lat="47.65781" lon="-2.58664">
        <ele>53.6</ele>
        <time>2020-10-07T12:43:54Z</time>
      </trkpt>
      <trkpt lat="47.65773" lon="-2.5865">
        <ele>52.8</ele>
        <time>2020-10-07T12:43:58Z</time>
      </trkpt>
      <trkpt lat="47.65766" lon="-2.58636">
        <ele>53.8</ele>
        <time>2020-10-07T12:44:02Z</time>
      </trkpt>
      <trkpt lat="47.65757" lon="-2.58622">
        <ele>53</ele>
        <time>2020-10-07T12:44:06Z</time>
      </trkpt>
      <trkpt lat="47.65747" lon="-2.58608">
        <ele>53.4</ele>
        <time>2020-10-07T12:44:10Z</time>
      </trkpt>
      <trkpt lat="47.65738" lon="-2.58596">
        <ele>52.4</ele>
        <time>2020-10-07T12:44:14Z</time>
      </trkpt>
      <trkpt lat="47.65731" lon="-2.58582">
        <ele>52.8</ele>
        <time>2020-10-07T12:44:18Z</time>
      </trkpt>
      <trkpt lat="47.65722" lon="-2.58565">
        <ele>52</ele>
        <time>2020-10-07T12:44:22Z</time>
      </trkpt>
      <trkpt lat="47.65707" lon="-2.58547">
        <ele>52</ele>
        <time>2020-10-07T12:44:26Z</time>
      </trkpt>
      <trkpt lat="47.65692" lon="-2.5853">
        <ele>50.4</ele>
        <time>2020-10-07T12:44:30Z</time>
      </trkpt>
      <trkpt lat="47.65677" lon="-2.58511">
        <ele>49.4</ele>
        <time>2020-10-07T12:44:34Z</time>
      </trkpt>
      <trkpt lat="47.65665" lon="-2.58491">
        <ele>48.6</ele>
        <time>2020-10-07T12:44:38Z</time>
      </trkpt>
      <trkpt lat="47.65655" lon="-2.58474">
        <ele>48</ele>
        <time>2020-10-07T12:44:42Z</time>
      </trkpt>
      <trkpt lat="47.65642" lon="-2.58453">
        <ele>46.4</ele>
        <time>2020-10-07T12:44:46Z</time>
      </trkpt>
      <trkpt lat="47.65632" lon="-2.58437">
        <ele>45.8</ele>
        <time>2020-10-07T12:44:50Z</time>
      </trkpt>
      <trkpt lat="47.65623" lon="-2.5842">
        <ele>45</ele>
        <time>2020-10-07T12:44:54Z</time>
      </trkpt>
      <trkpt lat="47.65609" lon="-2.58399">
        <ele>44.4</ele>
        <time>2020-10-07T12:44:58Z</time>
      </trkpt>
      <trkpt lat="47.656" lon="-2.58379">
        <ele>42.8</ele>
        <time>2020-10-07T12:45:02Z</time>
      </trkpt>
      <trkpt lat="47.65591" lon="-2.58353">
        <ele>41.2</ele>
        <time>2020-10-07T12:45:06Z</time>
      </trkpt>
      <trkpt lat="47.65579" lon="-2.58326">
        <ele>39</ele>
        <time>2020-10-07T12:45:10Z</time>
      </trkpt>
      <trkpt lat="47.65563" lon="-2.583">
        <ele>38.2</ele>
        <time>2020-10-07T12:45:14Z</time>
      </trkpt>
      <trkpt lat="47.65555" lon="-2.58276">
        <ele>38</ele>
        <time>2020-10-07T12:45:18Z</time>
      </trkpt>
      <trkpt lat="47.65549" lon="-2.58253">
        <ele>35.2</ele>
        <time>2020-10-07T12:45:22Z</time>
      </trkpt>
      <trkpt lat="47.65544" lon="-2.58216">
        <ele>36</ele>
        <time>2020-10-07T12:45:26Z</time>
      </trkpt>
      <trkpt lat="47.65534" lon="-2.5818">
        <ele>36.8</ele>
        <time>2020-10-07T12:45:30Z</time>
      </trkpt>
      <trkpt lat="47.65526" lon="-2.58146">
        <ele>37.8</ele>
        <time>2020-10-07T12:45:34Z</time>
      </trkpt>
      <trkpt lat="47.65512" lon="-2.58127">
        <ele>38.8</ele>
        <time>2020-10-07T12:45:38Z</time>
      </trkpt>
      <trkpt lat="47.65489" lon="-2.58118">
        <ele>39.2</ele>
        <time>2020-10-07T12:45:42Z</time>
      </trkpt>
      <trkpt lat="47.65469" lon="-2.58117">
        <ele>38.8</ele>
        <time>2020-10-07T12:45:46Z</time>
      </trkpt>
      <trkpt lat="47.65449" lon="-2.58118">
        <ele>36.8</ele>
        <time>2020-10-07T12:45:50Z</time>
      </trkpt>
      <trkpt lat="47.65435" lon="-2.58108">
        <ele>36.4</ele>
        <time>2020-10-07T12:45:54Z</time>
      </trkpt>
      <trkpt lat="47.65423" lon="-2.58089">
        <ele>35.2</ele>
        <time>2020-10-07T12:45:58Z</time>
      </trkpt>
      <trkpt lat="47.65408" lon="-2.58064">
        <ele>35.2</ele>
        <time>2020-10-07T12:46:02Z</time>
      </trkpt>
      <trkpt lat="47.654" lon="-2.58031">
        <ele>34.2</ele>
        <time>2020-10-07T12:46:06Z</time>
      </trkpt>
      <trkpt lat="47.6539" lon="-2.57995">
        <ele>35.2</ele>
        <time>2020-10-07T12:46:10Z</time>
      </trkpt>
      <trkpt lat="47.65384" lon="-2.57967">
        <ele>35.4</ele>
        <time>2020-10-07T12:46:14Z</time>
      </trkpt>
      <trkpt lat="47.6538" lon="-2.57943">
        <ele>35.8</ele>
        <time>2020-10-07T12:46:18Z</time>
      </trkpt>
      <trkpt lat="47.65368" lon="-2.57924">
        <ele>34.2</ele>
        <time>2020-10-07T12:46:22Z</time>
      </trkpt>
      <trkpt lat="47.65355" lon="-2.57904">
        <ele>33.8</ele>
        <time>2020-10-07T12:46:26Z</time>
      </trkpt>
      <trkpt lat="47.65344" lon="-2.57882">
        <ele>32.6</ele>
        <time>2020-10-07T12:46:30Z</time>
      </trkpt>
      <trkpt lat="47.65335" lon="-2.57864">
        <ele>32.2</ele>
        <time>2020-10-07T12:46:34Z</time>
      </trkpt>
      <trkpt lat="47.65336" lon="-2.57845">
        <ele>32</ele>
        <time>2020-10-07T12:46:38Z</time>
      </trkpt>
      <trkpt lat="47.65328" lon="-2.57817">
        <ele>33.2</ele>
        <time>2020-10-07T12:46:42Z</time>
      </trkpt>
      <trkpt lat="47.65323" lon="-2.57791">
        <ele>35.2</ele>
        <time>2020-10-07T12:46:46Z</time>
      </trkpt>
      <trkpt lat="47.65326" lon="-2.57771">
        <ele>35.8</ele>
        <time>2020-10-07T12:46:50Z</time>
      </trkpt>
      <trkpt lat="47.65324" lon="-2.57746">
        <ele>36.8</ele>
        <time>2020-10-07T12:46:54Z</time>
      </trkpt>
      <trkpt lat="47.65324" lon="-2.57724">
        <ele>39</ele>
        <time>2020-10-07T12:46:58Z</time>
      </trkpt>
      <trkpt lat="47.65324" lon="-2.57711">
        <ele>40.6</ele>
        <time>2020-10-07T12:47:02Z</time>
      </trkpt>
      <trkpt lat="47.65326" lon="-2.57701">
        <ele>41.8</ele>
        <time>2020-10-07T12:47:06Z</time>
      </trkpt>
      <trkpt lat="47.65327" lon="-2.57688">
        <ele>42.2</ele>
        <time>2020-10-07T12:47:10Z</time>
      </trkpt>
      <trkpt lat="47.65328" lon="-2.57673">
        <ele>43.2</ele>
        <time>2020-10-07T12:47:14Z</time>
      </trkpt>
      <trkpt lat="47.65327" lon="-2.57655">
        <ele>43.8</ele>
        <time>2020-10-07T12:47:18Z</time>
      </trkpt>
      <trkpt lat="47.65324" lon="-2.57638">
        <ele>44.2</ele>
        <time>2020-10-07T12:47:22Z</time>
      </trkpt>
      <trkpt lat="47.65322" lon="-2.57622">
        <ele>45</ele>
        <time>2020-10-07T12:47:26Z</time>
      </trkpt>
      <trkpt lat="47.65318" lon="-2.57605">
        <ele>45.2</ele>
        <time>2020-10-07T12:47:30Z</time>
      </trkpt>
      <trkpt lat="47.65314" lon="-2.57587">
        <ele>45.2</ele>
        <time>2020-10-07T12:47:34Z</time>
      </trkpt>
      <trkpt lat="47.65308" lon="-2.57571">
        <ele>45.2</ele>
        <time>2020-10-07T12:47:38Z</time>
      </trkpt>
      <trkpt lat="47.65303" lon="-2.57552">
        <ele>44.6</ele>
        <time>2020-10-07T12:47:42Z</time>
      </trkpt>
      <trkpt lat="47.653" lon="-2.57537">
        <ele>44.2</ele>
        <time>2020-10-07T12:47:46Z</time>
      </trkpt>
      <trkpt lat="47.65296" lon="-2.57519">
        <ele>44</ele>
        <time>2020-10-07T12:47:50Z</time>
      </trkpt>
      <trkpt lat="47.65302" lon="-2.57507">
        <ele>44.8</ele>
        <time>2020-10-07T12:47:54Z</time>
      </trkpt>
      <trkpt lat="47.65311" lon="-2.57495">
        <ele>45</ele>
        <time>2020-10-07T12:47:58Z</time>
      </trkpt>
      <trkpt lat="47.65317" lon="-2.57484">
        <ele>45.4</ele>
        <time>2020-10-07T12:48:02Z</time>
      </trkpt>
      <trkpt lat="47.65325" lon="-2.57469">
        <ele>46.4</ele>
        <time>2020-10-07T12:48:06Z</time>
      </trkpt>
      <trkpt lat="47.65335" lon="-2.57457">
        <ele>47.8</ele>
        <time>2020-10-07T12:48:10Z</time>
      </trkpt>
      <trkpt lat="47.65345" lon="-2.57445">
        <ele>48.4</ele>
        <time>2020-10-07T12:48:14Z</time>
      </trkpt>
      <trkpt lat="47.65356" lon="-2.57437">
        <ele>49</ele>
        <time>2020-10-07T12:48:18Z</time>
      </trkpt>
      <trkpt lat="47.65362" lon="-2.57427">
        <ele>49.4</ele>
        <time>2020-10-07T12:48:22Z</time>
      </trkpt>
      <trkpt lat="47.6537" lon="-2.57418">
        <ele>49.8</ele>
        <time>2020-10-07T12:48:26Z</time>
      </trkpt>
      <trkpt lat="47.6538" lon="-2.57407">
        <ele>50.4</ele>
        <time>2020-10-07T12:48:30Z</time>
      </trkpt>
      <trkpt lat="47.6539" lon="-2.57396">
        <ele>50.6</ele>
        <time>2020-10-07T12:48:34Z</time>
      </trkpt>
      <trkpt lat="47.65397" lon="-2.57385">
        <ele>51.2</ele>
        <time>2020-10-07T12:48:38Z</time>
      </trkpt>
      <trkpt lat="47.65406" lon="-2.57372">
        <ele>51.6</ele>
        <time>2020-10-07T12:48:42Z</time>
      </trkpt>
      <trkpt lat="47.65415" lon="-2.5736">
        <ele>51.8</ele>
        <time>2020-10-07T12:48:46Z</time>
      </trkpt>
      <trkpt lat="47.65424" lon="-2.57349">
        <ele>52.2</ele>
        <time>2020-10-07T12:48:50Z</time>
      </trkpt>
      <trkpt lat="47.65435" lon="-2.57339">
        <ele>52.4</ele>
        <time>2020-10-07T12:48:54Z</time>
      </trkpt>
      <trkpt lat="47.65445" lon="-2.57327">
        <ele>52.8</ele>
        <time>2020-10-07T12:48:58Z</time>
      </trkpt>
      <trkpt lat="47.65456" lon="-2.57315">
        <ele>53.4</ele>
        <time>2020-10-07T12:49:02Z</time>
      </trkpt>
      <trkpt lat="47.65463" lon="-2.57303">
        <ele>53.4</ele>
        <time>2020-10-07T12:49:06Z</time>
      </trkpt>
      <trkpt lat="47.65467" lon="-2.57289">
        <ele>54</ele>
        <time>2020-10-07T12:49:10Z</time>
      </trkpt>
      <trkpt lat="47.65477" lon="-2.57273">
        <ele>53.8</ele>
        <time>2020-10-07T12:49:14Z</time>
      </trkpt>
      <trkpt lat="47.65479" lon="-2.57247">
        <ele>54.4</ele>
        <time>2020-10-07T12:49:18Z</time>
      </trkpt>
      <trkpt lat="47.65481" lon="-2.57227">
        <ele>54.4</ele>
        <time>2020-10-07T12:49:22Z</time>
      </trkpt>
      <trkpt lat="47.65481" lon="-2.57208">
        <ele>54.4</ele>
        <time>2020-10-07T12:49:26Z</time>
      </trkpt>
      <trkpt lat="47.6548" lon="-2.57188">
        <ele>54.4</ele>
        <time>2020-10-07T12:49:30Z</time>
      </trkpt>
      <trkpt lat="47.65479" lon="-2.5717">
        <ele>54.8</ele>
        <time>2020-10-07T12:49:34Z</time>
      </trkpt>
      <trkpt lat="47.65478" lon="-2.57153">
        <ele>54.4</ele>
        <time>2020-10-07T12:49:38Z</time>
      </trkpt>
      <trkpt lat="47.65477" lon="-2.57135">
        <ele>54.4</ele>
        <time>2020-10-07T12:49:42Z</time>
      </trkpt>
      <trkpt lat="47.65474" lon="-2.57109">
        <ele>54</ele>
        <time>2020-10-07T12:49:46Z</time>
      </trkpt>
      <trkpt lat="47.65469" lon="-2.57081">
        <ele>54.4</ele>
        <time>2020-10-07T12:49:50Z</time>
      </trkpt>
      <trkpt lat="47.65466" lon="-2.57058">
        <ele>54.2</ele>
        <time>2020-10-07T12:49:54Z</time>
      </trkpt>
      <trkpt lat="47.65464" lon="-2.57038">
        <ele>54.4</ele>
        <time>2020-10-07T12:49:58Z</time>
      </trkpt>
      <trkpt lat="47.65458" lon="-2.57014">
        <ele>54.2</ele>
        <time>2020-10-07T12:50:02Z</time>
      </trkpt>
      <trkpt lat="47.65452" lon="-2.5699">
        <ele>54.2</ele>
        <time>2020-10-07T12:50:06Z</time>
      </trkpt>
      <trkpt lat="47.65444" lon="-2.56972">
        <ele>53.6</ele>
        <time>2020-10-07T12:50:10Z</time>
      </trkpt>
      <trkpt lat="47.65427" lon="-2.56964">
        <ele>52.4</ele>
        <time>2020-10-07T12:50:14Z</time>
      </trkpt>
      <trkpt lat="47.65407" lon="-2.5696">
        <ele>52.4</ele>
        <time>2020-10-07T12:50:18Z</time>
      </trkpt>
      <trkpt lat="47.65388" lon="-2.56954">
        <ele>51.8</ele>
        <time>2020-10-07T12:50:22Z</time>
      </trkpt>
      <trkpt lat="47.65368" lon="-2.56948">
        <ele>51.2</ele>
        <time>2020-10-07T12:50:26Z</time>
      </trkpt>
      <trkpt lat="47.6535" lon="-2.56939">
        <ele>49.8</ele>
        <time>2020-10-07T12:50:30Z</time>
      </trkpt>
      <trkpt lat="47.65329" lon="-2.56931">
        <ele>48.2</ele>
        <time>2020-10-07T12:50:34Z</time>
      </trkpt>
      <trkpt lat="47.65312" lon="-2.56924">
        <ele>47.4</ele>
        <time>2020-10-07T12:50:38Z</time>
      </trkpt>
      <trkpt lat="47.65301" lon="-2.56912">
        <ele>46.6</ele>
        <time>2020-10-07T12:50:42Z</time>
      </trkpt>
      <trkpt lat="47.65299" lon="-2.56894">
        <ele>44.8</ele>
        <time>2020-10-07T12:50:46Z</time>
      </trkpt>
      <trkpt lat="47.6529" lon="-2.56873">
        <ele>45.6</ele>
        <time>2020-10-07T12:50:50Z</time>
      </trkpt>
      <trkpt lat="47.6528" lon="-2.56845">
        <ele>45.8</ele>
        <time>2020-10-07T12:50:54Z</time>
      </trkpt>
      <trkpt lat="47.65272" lon="-2.56817">
        <ele>45.8</ele>
        <time>2020-10-07T12:50:58Z</time>
      </trkpt>
      <trkpt lat="47.65261" lon="-2.56791">
        <ele>45.4</ele>
        <time>2020-10-07T12:51:02Z</time>
      </trkpt>
      <trkpt lat="47.6525" lon="-2.56773">
        <ele>45.8</ele>
        <time>2020-10-07T12:51:06Z</time>
      </trkpt>
      <trkpt lat="47.65232" lon="-2.56755">
        <ele>44.8</ele>
        <time>2020-10-07T12:51:10Z</time>
      </trkpt>
      <trkpt lat="47.65221" lon="-2.56743">
        <ele>45.2</ele>
        <time>2020-10-07T12:51:14Z</time>
      </trkpt>
      <trkpt lat="47.6522" lon="-2.56739">
        <ele>45.8</ele>
        <time>2020-10-07T12:51:22Z</time>
      </trkpt>
      <trkpt lat="47.65219" lon="-2.56736">
        <ele>45.4</ele>
        <time>2020-10-07T12:51:26Z</time>
      </trkpt>
      <trkpt lat="47.65216" lon="-2.56731">
        <ele>45.6</ele>
        <time>2020-10-07T12:51:30Z</time>
      </trkpt>
      <trkpt lat="47.65214" lon="-2.56726">
        <ele>45.2</ele>
        <time>2020-10-07T12:51:34Z</time>
      </trkpt>
      <trkpt lat="47.6521" lon="-2.56719">
        <ele>46.2</ele>
        <time>2020-10-07T12:51:38Z</time>
      </trkpt>
      <trkpt lat="47.65203" lon="-2.56711">
        <ele>46.6</ele>
        <time>2020-10-07T12:51:42Z</time>
      </trkpt>
      <trkpt lat="47.65197" lon="-2.567">
        <ele>47.4</ele>
        <time>2020-10-07T12:51:46Z</time>
      </trkpt>
      <trkpt lat="47.65194" lon="-2.56687">
        <ele>48.4</ele>
        <time>2020-10-07T12:51:50Z</time>
      </trkpt>
      <trkpt lat="47.65188" lon="-2.56674">
        <ele>47.8</ele>
        <time>2020-10-07T12:51:54Z</time>
      </trkpt>
      <trkpt lat="47.65183" lon="-2.56661">
        <ele>48.8</ele>
        <time>2020-10-07T12:51:58Z</time>
      </trkpt>
      <trkpt lat="47.65175" lon="-2.56647">
        <ele>48.8</ele>
        <time>2020-10-07T12:52:02Z</time>
      </trkpt>
      <trkpt lat="47.65172" lon="-2.56634">
        <ele>48.6</ele>
        <time>2020-10-07T12:52:06Z</time>
      </trkpt>
      <trkpt lat="47.65169" lon="-2.56624">
        <ele>48</ele>
        <time>2020-10-07T12:52:10Z</time>
      </trkpt>
      <trkpt lat="47.65165" lon="-2.5661">
        <ele>47.2</ele>
        <time>2020-10-07T12:52:14Z</time>
      </trkpt>
      <trkpt lat="47.65162" lon="-2.56594">
        <ele>47.6</ele>
        <time>2020-10-07T12:52:18Z</time>
      </trkpt>
      <trkpt lat="47.65152" lon="-2.5657">
        <ele>47.6</ele>
        <time>2020-10-07T12:52:22Z</time>
      </trkpt>
      <trkpt lat="47.65151" lon="-2.5655">
        <ele>48.8</ele>
        <time>2020-10-07T12:52:26Z</time>
      </trkpt>
      <trkpt lat="47.65153" lon="-2.56535">
        <ele>49.2</ele>
        <time>2020-10-07T12:52:30Z</time>
      </trkpt>
      <trkpt lat="47.65151" lon="-2.56522">
        <ele>49</ele>
        <time>2020-10-07T12:52:34Z</time>
      </trkpt>
      <trkpt lat="47.65148" lon="-2.56507">
        <ele>49.2</ele>
        <time>2020-10-07T12:52:38Z</time>
      </trkpt>
      <trkpt lat="47.65147" lon="-2.56484">
        <ele>49.4</ele>
        <time>2020-10-07T12:52:42Z</time>
      </trkpt>
      <trkpt lat="47.65145" lon="-2.56463">
        <ele>49.4</ele>
        <time>2020-10-07T12:52:46Z</time>
      </trkpt>
      <trkpt lat="47.6514" lon="-2.56441">
        <ele>49.4</ele>
        <time>2020-10-07T12:52:50Z</time>
      </trkpt>
      <trkpt lat="47.65144" lon="-2.56422">
        <ele>49.8</ele>
        <time>2020-10-07T12:52:54Z</time>
      </trkpt>
      <trkpt lat="47.65143" lon="-2.564">
        <ele>49.4</ele>
        <time>2020-10-07T12:52:58Z</time>
      </trkpt>
      <trkpt lat="47.65144" lon="-2.5638">
        <ele>49.4</ele>
        <time>2020-10-07T12:53:02Z</time>
      </trkpt>
      <trkpt lat="47.65146" lon="-2.56363">
        <ele>49.2</ele>
        <time>2020-10-07T12:53:06Z</time>
      </trkpt>
      <trkpt lat="47.65147" lon="-2.56341">
        <ele>49</ele>
        <time>2020-10-07T12:53:10Z</time>
      </trkpt>
      <trkpt lat="47.65147" lon="-2.5632">
        <ele>48.6</ele>
        <time>2020-10-07T12:53:14Z</time>
      </trkpt>
      <trkpt lat="47.65151" lon="-2.56303">
        <ele>48.8</ele>
        <time>2020-10-07T12:53:18Z</time>
      </trkpt>
      <trkpt lat="47.6516" lon="-2.56286">
        <ele>48.6</ele>
        <time>2020-10-07T12:53:22Z</time>
      </trkpt>
      <trkpt lat="47.6517" lon="-2.56273">
        <ele>48.4</ele>
        <time>2020-10-07T12:53:26Z</time>
      </trkpt>
      <trkpt lat="47.65175" lon="-2.56259">
        <ele>48.4</ele>
        <time>2020-10-07T12:53:30Z</time>
      </trkpt>
      <trkpt lat="47.65181" lon="-2.56246">
        <ele>48.2</ele>
        <time>2020-10-07T12:53:34Z</time>
      </trkpt>
      <trkpt lat="47.65192" lon="-2.56239">
        <ele>48.4</ele>
        <time>2020-10-07T12:53:38Z</time>
      </trkpt>
      <trkpt lat="47.65195" lon="-2.56221">
        <ele>47.8</ele>
        <time>2020-10-07T12:53:42Z</time>
      </trkpt>
      <trkpt lat="47.65193" lon="-2.56195">
        <ele>47.2</ele>
        <time>2020-10-07T12:53:46Z</time>
      </trkpt>
      <trkpt lat="47.65192" lon="-2.56165">
        <ele>45.4</ele>
        <time>2020-10-07T12:53:50Z</time>
      </trkpt>
      <trkpt lat="47.65186" lon="-2.56139">
        <ele>43.8</ele>
        <time>2020-10-07T12:53:54Z</time>
      </trkpt>
      <trkpt lat="47.65177" lon="-2.56114">
        <ele>43</ele>
        <time>2020-10-07T12:53:58Z</time>
      </trkpt>
      <trkpt lat="47.65174" lon="-2.56088">
        <ele>43.4</ele>
        <time>2020-10-07T12:54:02Z</time>
      </trkpt>
      <trkpt lat="47.65176" lon="-2.56065">
        <ele>43.8</ele>
        <time>2020-10-07T12:54:06Z</time>
      </trkpt>
      <trkpt lat="47.65175" lon="-2.56041">
        <ele>44</ele>
        <time>2020-10-07T12:54:10Z</time>
      </trkpt>
      <trkpt lat="47.65177" lon="-2.56015">
        <ele>42.8</ele>
        <time>2020-10-07T12:54:14Z</time>
      </trkpt>
      <trkpt lat="47.65181" lon="-2.55989">
        <ele>42</ele>
        <time>2020-10-07T12:54:18Z</time>
      </trkpt>
      <trkpt lat="47.65183" lon="-2.55963">
        <ele>42</ele>
        <time>2020-10-07T12:54:22Z</time>
      </trkpt>
      <trkpt lat="47.65186" lon="-2.55934">
        <ele>41.4</ele>
        <time>2020-10-07T12:54:26Z</time>
      </trkpt>
      <trkpt lat="47.6519" lon="-2.55906">
        <ele>40.8</ele>
        <time>2020-10-07T12:54:30Z</time>
      </trkpt>
      <trkpt lat="47.65194" lon="-2.55883">
        <ele>38.8</ele>
        <time>2020-10-07T12:54:34Z</time>
      </trkpt>
      <trkpt lat="47.65195" lon="-2.55862">
        <ele>36.8</ele>
        <time>2020-10-07T12:54:38Z</time>
      </trkpt>
      <trkpt lat="47.65201" lon="-2.55847">
        <ele>35.2</ele>
        <time>2020-10-07T12:54:42Z</time>
      </trkpt>
      <trkpt lat="47.6521" lon="-2.55845">
        <ele>32.8</ele>
        <time>2020-10-07T12:54:46Z</time>
      </trkpt>
      <trkpt lat="47.65217" lon="-2.55836">
        <ele>30.8</ele>
        <time>2020-10-07T12:54:50Z</time>
      </trkpt>
      <trkpt lat="47.65214" lon="-2.55824">
        <ele>30.2</ele>
        <time>2020-10-07T12:54:54Z</time>
      </trkpt>
      <trkpt lat="47.65212" lon="-2.55811">
        <ele>28.4</ele>
        <time>2020-10-07T12:54:58Z</time>
      </trkpt>
      <trkpt lat="47.65217" lon="-2.55802">
        <ele>26.4</ele>
        <time>2020-10-07T12:55:02Z</time>
      </trkpt>
      <trkpt lat="47.65225" lon="-2.55792">
        <ele>25.6</ele>
        <time>2020-10-07T12:55:06Z</time>
      </trkpt>
      <trkpt lat="47.65235" lon="-2.55785">
        <ele>26</ele>
        <time>2020-10-07T12:55:10Z</time>
      </trkpt>
      <trkpt lat="47.65246" lon="-2.55773">
        <ele>26.2</ele>
        <time>2020-10-07T12:55:14Z</time>
      </trkpt>
      <trkpt lat="47.65252" lon="-2.55746">
        <ele>26.4</ele>
        <time>2020-10-07T12:55:18Z</time>
      </trkpt>
      <trkpt lat="47.65251" lon="-2.55726">
        <ele>27.6</ele>
        <time>2020-10-07T12:55:22Z</time>
      </trkpt>
      <trkpt lat="47.65249" lon="-2.55711">
        <ele>28.2</ele>
        <time>2020-10-07T12:55:26Z</time>
      </trkpt>
      <trkpt lat="47.65249" lon="-2.55692">
        <ele>28.6</ele>
        <time>2020-10-07T12:55:30Z</time>
      </trkpt>
      <trkpt lat="47.65245" lon="-2.55674">
        <ele>28.8</ele>
        <time>2020-10-07T12:55:34Z</time>
      </trkpt>
      <trkpt lat="47.65241" lon="-2.55657">
        <ele>28.6</ele>
        <time>2020-10-07T12:55:38Z</time>
      </trkpt>
      <trkpt lat="47.65239" lon="-2.55638">
        <ele>29</ele>
        <time>2020-10-07T12:55:42Z</time>
      </trkpt>
      <trkpt lat="47.65236" lon="-2.55618">
        <ele>28.6</ele>
        <time>2020-10-07T12:55:46Z</time>
      </trkpt>
      <trkpt lat="47.65233" lon="-2.55597">
        <ele>29</ele>
        <time>2020-10-07T12:55:50Z</time>
      </trkpt>
      <trkpt lat="47.65232" lon="-2.55576">
        <ele>29</ele>
        <time>2020-10-07T12:55:54Z</time>
      </trkpt>
      <trkpt lat="47.6523" lon="-2.55555">
        <ele>29</ele>
        <time>2020-10-07T12:55:58Z</time>
      </trkpt>
      <trkpt lat="47.65229" lon="-2.55535">
        <ele>29</ele>
        <time>2020-10-07T12:56:02Z</time>
      </trkpt>
      <trkpt lat="47.65227" lon="-2.55516">
        <ele>29.2</ele>
        <time>2020-10-07T12:56:06Z</time>
      </trkpt>
      <trkpt lat="47.6523" lon="-2.55501">
        <ele>29.6</ele>
        <time>2020-10-07T12:56:10Z</time>
      </trkpt>
      <trkpt lat="47.65242" lon="-2.55498">
        <ele>29.8</ele>
        <time>2020-10-07T12:56:14Z</time>
      </trkpt>
      <trkpt lat="47.65252" lon="-2.55496">
        <ele>31.6</ele>
        <time>2020-10-07T12:56:18Z</time>
      </trkpt>
      <trkpt lat="47.6526" lon="-2.55491">
        <ele>32.6</ele>
        <time>2020-10-07T12:56:22Z</time>
      </trkpt>
      <trkpt lat="47.6526" lon="-2.55479">
        <ele>33</ele>
        <time>2020-10-07T12:56:26Z</time>
      </trkpt>
      <trkpt lat="47.65258" lon="-2.55465">
        <ele>32.8</ele>
        <time>2020-10-07T12:56:30Z</time>
      </trkpt>
      <trkpt lat="47.65258" lon="-2.55448">
        <ele>33</ele>
        <time>2020-10-07T12:56:34Z</time>
      </trkpt>
      <trkpt lat="47.65258" lon="-2.55436">
        <ele>33.6</ele>
        <time>2020-10-07T12:56:38Z</time>
      </trkpt>
      <trkpt lat="47.65254" lon="-2.55424">
        <ele>33.6</ele>
        <time>2020-10-07T12:56:42Z</time>
      </trkpt>
      <trkpt lat="47.6525" lon="-2.55409">
        <ele>33.6</ele>
        <time>2020-10-07T12:56:46Z</time>
      </trkpt>
      <trkpt lat="47.65248" lon="-2.55399">
        <ele>32.8</ele>
        <time>2020-10-07T12:56:50Z</time>
      </trkpt>
      <trkpt lat="47.65245" lon="-2.55384">
        <ele>33.2</ele>
        <time>2020-10-07T12:56:54Z</time>
      </trkpt>
      <trkpt lat="47.6524" lon="-2.5537">
        <ele>32.8</ele>
        <time>2020-10-07T12:56:58Z</time>
      </trkpt>
      <trkpt lat="47.65225" lon="-2.55353">
        <ele>32.6</ele>
        <time>2020-10-07T12:57:02Z</time>
      </trkpt>
      <trkpt lat="47.65218" lon="-2.55345">
        <ele>32.2</ele>
        <time>2020-10-07T12:57:06Z</time>
      </trkpt>
      <trkpt lat="47.65209" lon="-2.55337">
        <ele>33.2</ele>
        <time>2020-10-07T12:57:10Z</time>
      </trkpt>
      <trkpt lat="47.65201" lon="-2.55336">
        <ele>33.2</ele>
        <time>2020-10-07T12:57:14Z</time>
      </trkpt>
      <trkpt lat="47.65192" lon="-2.55337">
        <ele>34</ele>
        <time>2020-10-07T12:57:18Z</time>
      </trkpt>
      <trkpt lat="47.65182" lon="-2.55341">
        <ele>34</ele>
        <time>2020-10-07T12:57:22Z</time>
      </trkpt>
      <trkpt lat="47.65172" lon="-2.55345">
        <ele>33.8</ele>
        <time>2020-10-07T12:57:26Z</time>
      </trkpt>
      <trkpt lat="47.65165" lon="-2.55352">
        <ele>34.2</ele>
        <time>2020-10-07T12:57:30Z</time>
      </trkpt>
      <trkpt lat="47.65158" lon="-2.55359">
        <ele>34.2</ele>
        <time>2020-10-07T12:57:34Z</time>
      </trkpt>
      <trkpt lat="47.65148" lon="-2.55368">
        <ele>34.6</ele>
        <time>2020-10-07T12:57:38Z</time>
      </trkpt>
      <trkpt lat="47.6514" lon="-2.55373">
        <ele>34.8</ele>
        <time>2020-10-07T12:57:42Z</time>
      </trkpt>
      <trkpt lat="47.65131" lon="-2.55376">
        <ele>35</ele>
        <time>2020-10-07T12:57:46Z</time>
      </trkpt>
      <trkpt lat="47.65123" lon="-2.5538">
        <ele>36.8</ele>
        <time>2020-10-07T12:57:50Z</time>
      </trkpt>
      <trkpt lat="47.65115" lon="-2.55383">
        <ele>37.2</ele>
        <time>2020-10-07T12:57:54Z</time>
      </trkpt>
      <trkpt lat="47.65111" lon="-2.5539">
        <ele>37.8</ele>
        <time>2020-10-07T12:57:58Z</time>
      </trkpt>
      <trkpt lat="47.65103" lon="-2.55394">
        <ele>38.6</ele>
        <time>2020-10-07T12:58:02Z</time>
      </trkpt>
      <trkpt lat="47.65096" lon="-2.554">
        <ele>39.8</ele>
        <time>2020-10-07T12:58:06Z</time>
      </trkpt>
      <trkpt lat="47.6509" lon="-2.55404">
        <ele>40.2</ele>
        <time>2020-10-07T12:58:10Z</time>
      </trkpt>
      <trkpt lat="47.65082" lon="-2.5541">
        <ele>40.8</ele>
        <time>2020-10-07T12:58:14Z</time>
      </trkpt>
      <trkpt lat="47.65075" lon="-2.55413">
        <ele>41.2</ele>
        <time>2020-10-07T12:58:18Z</time>
      </trkpt>
      <trkpt lat="47.65069" lon="-2.55418">
        <ele>42</ele>
        <time>2020-10-07T12:58:22Z</time>
      </trkpt>
      <trkpt lat="47.65063" lon="-2.55421">
        <ele>43</ele>
        <time>2020-10-07T12:58:26Z</time>
      </trkpt>
      <trkpt lat="47.65057" lon="-2.55418">
        <ele>43</ele>
        <time>2020-10-07T12:58:30Z</time>
      </trkpt>
      <trkpt lat="47.65055" lon="-2.55412">
        <ele>43.6</ele>
        <time>2020-10-07T12:58:34Z</time>
      </trkpt>
      <trkpt lat="47.65053" lon="-2.55403">
        <ele>43.8</ele>
        <time>2020-10-07T12:58:38Z</time>
      </trkpt>
      <trkpt lat="47.6505" lon="-2.55395">
        <ele>43.8</ele>
        <time>2020-10-07T12:58:42Z</time>
      </trkpt>
      <trkpt lat="47.65047" lon="-2.55386">
        <ele>43.4</ele>
        <time>2020-10-07T12:58:46Z</time>
      </trkpt>
      <trkpt lat="47.65043" lon="-2.55375">
        <ele>43.8</ele>
        <time>2020-10-07T12:58:50Z</time>
      </trkpt>
      <trkpt lat="47.65039" lon="-2.55363">
        <ele>43.2</ele>
        <time>2020-10-07T12:58:54Z</time>
      </trkpt>
      <trkpt lat="47.65033" lon="-2.5535">
        <ele>43.2</ele>
        <time>2020-10-07T12:58:58Z</time>
      </trkpt>
      <trkpt lat="47.65029" lon="-2.55337">
        <ele>42.8</ele>
        <time>2020-10-07T12:59:02Z</time>
      </trkpt>
      <trkpt lat="47.65025" lon="-2.55323">
        <ele>43</ele>
        <time>2020-10-07T12:59:06Z</time>
      </trkpt>
      <trkpt lat="47.65022" lon="-2.5531">
        <ele>42.6</ele>
        <time>2020-10-07T12:59:10Z</time>
      </trkpt>
      <trkpt lat="47.65018" lon="-2.55296">
        <ele>42.8</ele>
        <time>2020-10-07T12:59:14Z</time>
      </trkpt>
      <trkpt lat="47.65013" lon="-2.55281">
        <ele>42</ele>
        <time>2020-10-07T12:59:18Z</time>
      </trkpt>
      <trkpt lat="47.6501" lon="-2.55262">
        <ele>41.2</ele>
        <time>2020-10-07T12:59:22Z</time>
      </trkpt>
      <trkpt lat="47.65013" lon="-2.55246">
        <ele>40.8</ele>
        <time>2020-10-07T12:59:26Z</time>
      </trkpt>
      <trkpt lat="47.65015" lon="-2.55232">
        <ele>41.2</ele>
        <time>2020-10-07T12:59:30Z</time>
      </trkpt>
      <trkpt lat="47.65017" lon="-2.55216">
        <ele>41.2</ele>
        <time>2020-10-07T12:59:34Z</time>
      </trkpt>
      <trkpt lat="47.65018" lon="-2.55198">
        <ele>41</ele>
        <time>2020-10-07T12:59:38Z</time>
      </trkpt>
      <trkpt lat="47.65018" lon="-2.55182">
        <ele>41</ele>
        <time>2020-10-07T12:59:42Z</time>
      </trkpt>
      <trkpt lat="47.65018" lon="-2.55163">
        <ele>39.8</ele>
        <time>2020-10-07T12:59:46Z</time>
      </trkpt>
      <trkpt lat="47.65017" lon="-2.5514">
        <ele>39.8</ele>
        <time>2020-10-07T12:59:50Z</time>
      </trkpt>
      <trkpt lat="47.65016" lon="-2.55118">
        <ele>39.2</ele>
        <time>2020-10-07T12:59:54Z</time>
      </trkpt>
      <trkpt lat="47.65021" lon="-2.55099">
        <ele>39.8</ele>
        <time>2020-10-07T12:59:58Z</time>
      </trkpt>
      <trkpt lat="47.6503" lon="-2.55086">
        <ele>40.2</ele>
        <time>2020-10-07T13:00:02Z</time>
      </trkpt>
      <trkpt lat="47.6504" lon="-2.55071">
        <ele>41</ele>
        <time>2020-10-07T13:00:06Z</time>
      </trkpt>
      <trkpt lat="47.65045" lon="-2.55053">
        <ele>41.4</ele>
        <time>2020-10-07T13:00:10Z</time>
      </trkpt>
      <trkpt lat="47.65044" lon="-2.55037">
        <ele>41.6</ele>
        <time>2020-10-07T13:00:14Z</time>
      </trkpt>
      <trkpt lat="47.65045" lon="-2.55022">
        <ele>42.2</ele>
        <time>2020-10-07T13:00:18Z</time>
      </trkpt>
      <trkpt lat="47.65053" lon="-2.55013">
        <ele>43</ele>
        <time>2020-10-07T13:00:22Z</time>
      </trkpt>
      <trkpt lat="47.65058" lon="-2.55011">
        <ele>43.8</ele>
        <time>2020-10-07T13:00:26Z</time>
      </trkpt>
      <trkpt lat="47.65062" lon="-2.55006">
        <ele>44</ele>
        <time>2020-10-07T13:00:30Z</time>
      </trkpt>
      <trkpt lat="47.65064" lon="-2.54995">
        <ele>45.2</ele>
        <time>2020-10-07T13:00:34Z</time>
      </trkpt>
      <trkpt lat="47.65064" lon="-2.54982">
        <ele>46.2</ele>
        <time>2020-10-07T13:00:38Z</time>
      </trkpt>
      <trkpt lat="47.65062" lon="-2.54974">
        <ele>46.8</ele>
        <time>2020-10-07T13:00:42Z</time>
      </trkpt>
      <trkpt lat="47.65061" lon="-2.54964">
        <ele>47</ele>
        <time>2020-10-07T13:00:46Z</time>
      </trkpt>
      <trkpt lat="47.65061" lon="-2.54955">
        <ele>48.2</ele>
        <time>2020-10-07T13:00:50Z</time>
      </trkpt>
      <trkpt lat="47.65059" lon="-2.54946">
        <ele>48.8</ele>
        <time>2020-10-07T13:00:54Z</time>
      </trkpt>
      <trkpt lat="47.65056" lon="-2.54935">
        <ele>48.8</ele>
        <time>2020-10-07T13:00:58Z</time>
      </trkpt>
      <trkpt lat="47.65052" lon="-2.54923">
        <ele>48.6</ele>
        <time>2020-10-07T13:01:02Z</time>
      </trkpt>
      <trkpt lat="47.65053" lon="-2.54912">
        <ele>49</ele>
        <time>2020-10-07T13:01:06Z</time>
      </trkpt>
      <trkpt lat="47.65052" lon="-2.54898">
        <ele>48.6</ele>
        <time>2020-10-07T13:01:10Z</time>
      </trkpt>
      <trkpt lat="47.65052" lon="-2.54885">
        <ele>48.4</ele>
        <time>2020-10-07T13:01:14Z</time>
      </trkpt>
      <trkpt lat="47.6505" lon="-2.54873">
        <ele>47.8</ele>
        <time>2020-10-07T13:01:18Z</time>
      </trkpt>
      <trkpt lat="47.65051" lon="-2.54859">
        <ele>47.6</ele>
        <time>2020-10-07T13:01:22Z</time>
      </trkpt>
      <trkpt lat="47.65055" lon="-2.5484">
        <ele>46</ele>
        <time>2020-10-07T13:01:26Z</time>
      </trkpt>
      <trkpt lat="47.65057" lon="-2.54818">
        <ele>45.2</ele>
        <time>2020-10-07T13:01:30Z</time>
      </trkpt>
      <trkpt lat="47.65059" lon="-2.54802">
        <ele>44.8</ele>
        <time>2020-10-07T13:01:34Z</time>
      </trkpt>
      <trkpt lat="47.65059" lon="-2.54794">
        <ele>45</ele>
        <time>2020-10-07T13:01:38Z</time>
      </trkpt>
      <trkpt lat="47.65059" lon="-2.54784">
        <ele>44.8</ele>
        <time>2020-10-07T13:01:42Z</time>
      </trkpt>
      <trkpt lat="47.65061" lon="-2.54776">
        <ele>44.4</ele>
        <time>2020-10-07T13:01:46Z</time>
      </trkpt>
      <trkpt lat="47.65064" lon="-2.54768">
        <ele>43.6</ele>
        <time>2020-10-07T13:01:50Z</time>
      </trkpt>
      <trkpt lat="47.65066" lon="-2.54755">
        <ele>43</ele>
        <time>2020-10-07T13:01:54Z</time>
      </trkpt>
      <trkpt lat="47.65065" lon="-2.54744">
        <ele>43.4</ele>
        <time>2020-10-07T13:01:58Z</time>
      </trkpt>
      <trkpt lat="47.65062" lon="-2.54738">
        <ele>43.2</ele>
        <time>2020-10-07T13:02:06Z</time>
      </trkpt>
      <trkpt lat="47.65064" lon="-2.54733">
        <ele>43.2</ele>
        <time>2020-10-07T13:02:14Z</time>
      </trkpt>
      <trkpt lat="47.65065" lon="-2.54727">
        <ele>43</ele>
        <time>2020-10-07T13:02:26Z</time>
      </trkpt>
      <trkpt lat="47.65064" lon="-2.5472">
        <ele>42.6</ele>
        <time>2020-10-07T13:02:30Z</time>
      </trkpt>
      <trkpt lat="47.65063" lon="-2.54714">
        <ele>42.4</ele>
        <time>2020-10-07T13:02:34Z</time>
      </trkpt>
      <trkpt lat="47.65062" lon="-2.54707">
        <ele>42.2</ele>
        <time>2020-10-07T13:02:38Z</time>
      </trkpt>
      <trkpt lat="47.6506" lon="-2.54698">
        <ele>42.4</ele>
        <time>2020-10-07T13:02:42Z</time>
      </trkpt>
      <trkpt lat="47.65059" lon="-2.54691">
        <ele>41.8</ele>
        <time>2020-10-07T13:02:50Z</time>
      </trkpt>
      <trkpt lat="47.65053" lon="-2.54693">
        <ele>42</ele>
        <time>2020-10-07T13:03:02Z</time>
      </trkpt>
      <trkpt lat="47.65051" lon="-2.54691">
        <ele>41.8</ele>
        <time>2020-10-07T13:03:06Z</time>
      </trkpt>
      <trkpt lat="47.6505" lon="-2.54687">
        <ele>41.2</ele>
        <time>2020-10-07T13:03:10Z</time>
      </trkpt>
      <trkpt lat="47.65047" lon="-2.54679">
        <ele>40.8</ele>
        <time>2020-10-07T13:03:18Z</time>
      </trkpt>
      <trkpt lat="47.65045" lon="-2.54673">
        <ele>39.4</ele>
        <time>2020-10-07T13:03:22Z</time>
      </trkpt>
      <trkpt lat="47.65039" lon="-2.54665">
        <ele>38.2</ele>
        <time>2020-10-07T13:03:26Z</time>
      </trkpt>
      <trkpt lat="47.65031" lon="-2.5465">
        <ele>37.8</ele>
        <time>2020-10-07T13:03:30Z</time>
      </trkpt>
      <trkpt lat="47.65025" lon="-2.54637">
        <ele>37.6</ele>
        <time>2020-10-07T13:03:34Z</time>
      </trkpt>
      <trkpt lat="47.65018" lon="-2.54624">
        <ele>37.8</ele>
        <time>2020-10-07T13:03:38Z</time>
      </trkpt>
      <trkpt lat="47.6501" lon="-2.54612">
        <ele>38.2</ele>
        <time>2020-10-07T13:03:42Z</time>
      </trkpt>
      <trkpt lat="47.65" lon="-2.54598">
        <ele>39.6</ele>
        <time>2020-10-07T13:03:46Z</time>
      </trkpt>
      <trkpt lat="47.64997" lon="-2.54585">
        <ele>38.6</ele>
        <time>2020-10-07T13:03:50Z</time>
      </trkpt>
      <trkpt lat="47.64997" lon="-2.54573">
        <ele>38.8</ele>
        <time>2020-10-07T13:03:54Z</time>
      </trkpt>
      <trkpt lat="47.64997" lon="-2.54562">
        <ele>38.2</ele>
        <time>2020-10-07T13:03:58Z</time>
      </trkpt>
      <trkpt lat="47.64997" lon="-2.54549">
        <ele>38.2</ele>
        <time>2020-10-07T13:04:02Z</time>
      </trkpt>
      <trkpt lat="47.64993" lon="-2.54535">
        <ele>37.2</ele>
        <time>2020-10-07T13:04:06Z</time>
      </trkpt>
      <trkpt lat="47.64988" lon="-2.54515">
        <ele>35.8</ele>
        <time>2020-10-07T13:04:10Z</time>
      </trkpt>
      <trkpt lat="47.64984" lon="-2.54496">
        <ele>34.8</ele>
        <time>2020-10-07T13:04:14Z</time>
      </trkpt>
      <trkpt lat="47.64976" lon="-2.54478">
        <ele>34</ele>
        <time>2020-10-07T13:04:18Z</time>
      </trkpt>
      <trkpt lat="47.64965" lon="-2.54459">
        <ele>33.6</ele>
        <time>2020-10-07T13:04:22Z</time>
      </trkpt>
      <trkpt lat="47.64957" lon="-2.54438">
        <ele>32</ele>
        <time>2020-10-07T13:04:26Z</time>
      </trkpt>
      <trkpt lat="47.64955" lon="-2.54415">
        <ele>31</ele>
        <time>2020-10-07T13:04:30Z</time>
      </trkpt>
      <trkpt lat="47.64952" lon="-2.544">
        <ele>29.8</ele>
        <time>2020-10-07T13:04:34Z</time>
      </trkpt>
      <trkpt lat="47.6495" lon="-2.5438">
        <ele>28.2</ele>
        <time>2020-10-07T13:04:38Z</time>
      </trkpt>
      <trkpt lat="47.64947" lon="-2.54367">
        <ele>26.8</ele>
        <time>2020-10-07T13:04:42Z</time>
      </trkpt>
      <trkpt lat="47.64942" lon="-2.54354">
        <ele>24.6</ele>
        <time>2020-10-07T13:04:46Z</time>
      </trkpt>
      <trkpt lat="47.64941" lon="-2.5434">
        <ele>24.4</ele>
        <time>2020-10-07T13:04:50Z</time>
      </trkpt>
      <trkpt lat="47.64935" lon="-2.5432">
        <ele>24.4</ele>
        <time>2020-10-07T13:04:54Z</time>
      </trkpt>
      <trkpt lat="47.64926" lon="-2.543">
        <ele>23.4</ele>
        <time>2020-10-07T13:04:58Z</time>
      </trkpt>
      <trkpt lat="47.64921" lon="-2.5428">
        <ele>22</ele>
        <time>2020-10-07T13:05:02Z</time>
      </trkpt>
      <trkpt lat="47.64917" lon="-2.54265">
        <ele>20.6</ele>
        <time>2020-10-07T13:05:06Z</time>
      </trkpt>
      <trkpt lat="47.64916" lon="-2.5425">
        <ele>20.4</ele>
        <time>2020-10-07T13:05:10Z</time>
      </trkpt>
      <trkpt lat="47.64918" lon="-2.54233">
        <ele>19.6</ele>
        <time>2020-10-07T13:05:14Z</time>
      </trkpt>
      <trkpt lat="47.64915" lon="-2.54218">
        <ele>21.2</ele>
        <time>2020-10-07T13:05:18Z</time>
      </trkpt>
      <trkpt lat="47.64907" lon="-2.54197">
        <ele>21.6</ele>
        <time>2020-10-07T13:05:22Z</time>
      </trkpt>
      <trkpt lat="47.64901" lon="-2.54185">
        <ele>21.8</ele>
        <time>2020-10-07T13:05:26Z</time>
      </trkpt>
      <trkpt lat="47.64893" lon="-2.54177">
        <ele>23.2</ele>
        <time>2020-10-07T13:05:30Z</time>
      </trkpt>
      <trkpt lat="47.64886" lon="-2.54169">
        <ele>25.2</ele>
        <time>2020-10-07T13:05:34Z</time>
      </trkpt>
      <trkpt lat="47.64881" lon="-2.54158">
        <ele>27.2</ele>
        <time>2020-10-07T13:05:38Z</time>
      </trkpt>
      <trkpt lat="47.64878" lon="-2.54145">
        <ele>29.2</ele>
        <time>2020-10-07T13:05:42Z</time>
      </trkpt>
      <trkpt lat="47.64876" lon="-2.54128">
        <ele>31.2</ele>
        <time>2020-10-07T13:05:46Z</time>
      </trkpt>
      <trkpt lat="47.64883" lon="-2.54125">
        <ele>31.8</ele>
        <time>2020-10-07T13:05:50Z</time>
      </trkpt>
      <trkpt lat="47.64889" lon="-2.54128">
        <ele>31.6</ele>
        <time>2020-10-07T13:05:54Z</time>
      </trkpt>
      <trkpt lat="47.64895" lon="-2.54134">
        <ele>31</ele>
        <time>2020-10-07T13:05:58Z</time>
      </trkpt>
      <trkpt lat="47.649" lon="-2.54131">
        <ele>30.8</ele>
        <time>2020-10-07T13:07:46Z</time>
      </trkpt>
      <trkpt lat="47.64905" lon="-2.54133">
        <ele>30.6</ele>
        <time>2020-10-07T13:07:50Z</time>
      </trkpt>
      <trkpt lat="47.6491" lon="-2.54133">
        <ele>30.8</ele>
        <time>2020-10-07T13:07:54Z</time>
      </trkpt>
      <trkpt lat="47.64915" lon="-2.54132">
        <ele>30.8</ele>
        <time>2020-10-07T13:07:58Z</time>
      </trkpt>
      <trkpt lat="47.64921" lon="-2.54131">
        <ele>31.4</ele>
        <time>2020-10-07T13:08:02Z</time>
      </trkpt>
      <trkpt lat="47.64926" lon="-2.54132">
        <ele>31.6</ele>
        <time>2020-10-07T13:08:06Z</time>
      </trkpt>
      <trkpt lat="47.64933" lon="-2.54131">
        <ele>32</ele>
        <time>2020-10-07T13:08:10Z</time>
      </trkpt>
      <trkpt lat="47.64938" lon="-2.54132">
        <ele>32.4</ele>
        <time>2020-10-07T13:08:14Z</time>
      </trkpt>
      <trkpt lat="47.64944" lon="-2.54133">
        <ele>32.2</ele>
        <time>2020-10-07T13:08:18Z</time>
      </trkpt>
      <trkpt lat="47.6495" lon="-2.54137">
        <ele>32</ele>
        <time>2020-10-07T13:08:22Z</time>
      </trkpt>
      <trkpt lat="47.64962" lon="-2.54136">
        <ele>32.2</ele>
        <time>2020-10-07T13:08:26Z</time>
      </trkpt>
      <trkpt lat="47.64972" lon="-2.54133">
        <ele>32.8</ele>
        <time>2020-10-07T13:08:30Z</time>
      </trkpt>
      <trkpt lat="47.64979" lon="-2.54133">
        <ele>32.8</ele>
        <time>2020-10-07T13:08:34Z</time>
      </trkpt>
      <trkpt lat="47.64986" lon="-2.54133">
        <ele>32.6</ele>
        <time>2020-10-07T13:08:38Z</time>
      </trkpt>
      <trkpt lat="47.65001" lon="-2.54132">
        <ele>32.6</ele>
        <time>2020-10-07T13:08:42Z</time>
      </trkpt>
      <trkpt lat="47.65009" lon="-2.54136">
        <ele>31.8</ele>
        <time>2020-10-07T13:08:46Z</time>
      </trkpt>
      <trkpt lat="47.65023" lon="-2.54134">
        <ele>30</ele>
        <time>2020-10-07T13:08:50Z</time>
      </trkpt>
      <trkpt lat="47.65037" lon="-2.54129">
        <ele>30.2</ele>
        <time>2020-10-07T13:08:54Z</time>
      </trkpt>
      <trkpt lat="47.65047" lon="-2.5413">
        <ele>31</ele>
        <time>2020-10-07T13:08:58Z</time>
      </trkpt>
      <trkpt lat="47.65055" lon="-2.5414">
        <ele>31</ele>
        <time>2020-10-07T13:09:02Z</time>
      </trkpt>
      <trkpt lat="47.65067" lon="-2.54154">
        <ele>29.6</ele>
        <time>2020-10-07T13:09:06Z</time>
      </trkpt>
      <trkpt lat="47.65081" lon="-2.54162">
        <ele>26.4</ele>
        <time>2020-10-07T13:09:10Z</time>
      </trkpt>
      <trkpt lat="47.65091" lon="-2.54167">
        <ele>26</ele>
        <time>2020-10-07T13:09:14Z</time>
      </trkpt>
      <trkpt lat="47.65096" lon="-2.54161">
        <ele>29.2</ele>
        <time>2020-10-07T13:09:18Z</time>
      </trkpt>
      <trkpt lat="47.65103" lon="-2.54152">
        <ele>29.2</ele>
        <time>2020-10-07T13:09:22Z</time>
      </trkpt>
      <trkpt lat="47.6511" lon="-2.54146">
        <ele>30.6</ele>
        <time>2020-10-07T13:09:26Z</time>
      </trkpt>
      <trkpt lat="47.65117" lon="-2.54138">
        <ele>31.6</ele>
        <time>2020-10-07T13:09:30Z</time>
      </trkpt>
      <trkpt lat="47.65123" lon="-2.54129">
        <ele>31.8</ele>
        <time>2020-10-07T13:09:34Z</time>
      </trkpt>
      <trkpt lat="47.65129" lon="-2.54119">
        <ele>32.4</ele>
        <time>2020-10-07T13:09:38Z</time>
      </trkpt>
      <trkpt lat="47.65136" lon="-2.54113">
        <ele>34.2</ele>
        <time>2020-10-07T13:09:42Z</time>
      </trkpt>
      <trkpt lat="47.65145" lon="-2.54105">
        <ele>35</ele>
        <time>2020-10-07T13:09:46Z</time>
      </trkpt>
      <trkpt lat="47.65151" lon="-2.54101">
        <ele>35.2</ele>
        <time>2020-10-07T13:09:50Z</time>
      </trkpt>
      <trkpt lat="47.65157" lon="-2.54095">
        <ele>35.4</ele>
        <time>2020-10-07T13:09:54Z</time>
      </trkpt>
      <trkpt lat="47.65164" lon="-2.54092">
        <ele>36.2</ele>
        <time>2020-10-07T13:09:58Z</time>
      </trkpt>
      <trkpt lat="47.65172" lon="-2.54089">
        <ele>37.8</ele>
        <time>2020-10-07T13:10:06Z</time>
      </trkpt>
      <trkpt lat="47.65178" lon="-2.54085">
        <ele>38.2</ele>
        <time>2020-10-07T13:10:10Z</time>
      </trkpt>
      <trkpt lat="47.65184" lon="-2.54082">
        <ele>38.4</ele>
        <time>2020-10-07T13:10:14Z</time>
      </trkpt>
      <trkpt lat="47.65188" lon="-2.5408">
        <ele>38.6</ele>
        <time>2020-10-07T13:10:18Z</time>
      </trkpt>
      <trkpt lat="47.65196" lon="-2.54078">
        <ele>39.2</ele>
        <time>2020-10-07T13:10:22Z</time>
      </trkpt>
      <trkpt lat="47.65202" lon="-2.54076">
        <ele>40.6</ele>
        <time>2020-10-07T13:10:26Z</time>
      </trkpt>
      <trkpt lat="47.65208" lon="-2.54075">
        <ele>41.2</ele>
        <time>2020-10-07T13:10:30Z</time>
      </trkpt>
      <trkpt lat="47.65213" lon="-2.54075">
        <ele>41.6</ele>
        <time>2020-10-07T13:10:34Z</time>
      </trkpt>
      <trkpt lat="47.65219" lon="-2.54074">
        <ele>42.4</ele>
        <time>2020-10-07T13:10:38Z</time>
      </trkpt>
      <trkpt lat="47.65224" lon="-2.5407">
        <ele>42.6</ele>
        <time>2020-10-07T13:10:42Z</time>
      </trkpt>
      <trkpt lat="47.65227" lon="-2.54062">
        <ele>42</ele>
        <time>2020-10-07T13:10:46Z</time>
      </trkpt>
      <trkpt lat="47.65225" lon="-2.54059">
        <ele>41.8</ele>
        <time>2020-10-07T13:10:50Z</time>
      </trkpt>
      <trkpt lat="47.65223" lon="-2.54055">
        <ele>42.2</ele>
        <time>2020-10-07T13:10:54Z</time>
      </trkpt>
      <trkpt lat="47.6522" lon="-2.54047">
        <ele>42.6</ele>
        <time>2020-10-07T13:10:58Z</time>
      </trkpt>
      <trkpt lat="47.65215" lon="-2.54037">
        <ele>43.2</ele>
        <time>2020-10-07T13:11:02Z</time>
      </trkpt>
      <trkpt lat="47.65211" lon="-2.54031">
        <ele>43.2</ele>
        <time>2020-10-07T13:11:06Z</time>
      </trkpt>
      <trkpt lat="47.65206" lon="-2.54027">
        <ele>43.8</ele>
        <time>2020-10-07T13:11:10Z</time>
      </trkpt>
      <trkpt lat="47.65202" lon="-2.54022">
        <ele>44.6</ele>
        <time>2020-10-07T13:11:14Z</time>
      </trkpt>
      <trkpt lat="47.65198" lon="-2.54017">
        <ele>44.4</ele>
        <time>2020-10-07T13:11:18Z</time>
      </trkpt>
      <trkpt lat="47.65192" lon="-2.5401">
        <ele>45</ele>
        <time>2020-10-07T13:11:22Z</time>
      </trkpt>
      <trkpt lat="47.65187" lon="-2.54004">
        <ele>45.4</ele>
        <time>2020-10-07T13:11:26Z</time>
      </trkpt>
      <trkpt lat="47.65182" lon="-2.53996">
        <ele>45.2</ele>
        <time>2020-10-07T13:11:30Z</time>
      </trkpt>
      <trkpt lat="47.65177" lon="-2.53989">
        <ele>45.2</ele>
        <time>2020-10-07T13:11:34Z</time>
      </trkpt>
      <trkpt lat="47.65172" lon="-2.53983">
        <ele>45.2</ele>
        <time>2020-10-07T13:11:38Z</time>
      </trkpt>
      <trkpt lat="47.6517" lon="-2.53974">
        <ele>45.4</ele>
        <time>2020-10-07T13:11:42Z</time>
      </trkpt>
      <trkpt lat="47.65172" lon="-2.53968">
        <ele>47</ele>
        <time>2020-10-07T13:11:46Z</time>
      </trkpt>
      <trkpt lat="47.65173" lon="-2.5396">
        <ele>47.8</ele>
        <time>2020-10-07T13:11:50Z</time>
      </trkpt>
      <trkpt lat="47.65174" lon="-2.53952">
        <ele>47.6</ele>
        <time>2020-10-07T13:11:54Z</time>
      </trkpt>
      <trkpt lat="47.65177" lon="-2.53945">
        <ele>49</ele>
        <time>2020-10-07T13:11:58Z</time>
      </trkpt>
      <trkpt lat="47.6518" lon="-2.53939">
        <ele>49.8</ele>
        <time>2020-10-07T13:12:02Z</time>
      </trkpt>
      <trkpt lat="47.65183" lon="-2.53934">
        <ele>50.8</ele>
        <time>2020-10-07T13:12:06Z</time>
      </trkpt>
      <trkpt lat="47.65187" lon="-2.53928">
        <ele>51</ele>
        <time>2020-10-07T13:12:10Z</time>
      </trkpt>
      <trkpt lat="47.6519" lon="-2.53923">
        <ele>52.4</ele>
        <time>2020-10-07T13:12:14Z</time>
      </trkpt>
      <trkpt lat="47.65192" lon="-2.53919">
        <ele>53</ele>
        <time>2020-10-07T13:12:18Z</time>
      </trkpt>
      <trkpt lat="47.65195" lon="-2.53916">
        <ele>53</ele>
        <time>2020-10-07T13:12:22Z</time>
      </trkpt>
      <trkpt lat="47.65199" lon="-2.53911">
        <ele>53.2</ele>
        <time>2020-10-07T13:12:26Z</time>
      </trkpt>
      <trkpt lat="47.652" lon="-2.53902">
        <ele>54.6</ele>
        <time>2020-10-07T13:12:30Z</time>
      </trkpt>
      <trkpt lat="47.65203" lon="-2.53895">
        <ele>54.8</ele>
        <time>2020-10-07T13:12:34Z</time>
      </trkpt>
      <trkpt lat="47.65208" lon="-2.5389">
        <ele>55.4</ele>
        <time>2020-10-07T13:12:38Z</time>
      </trkpt>
      <trkpt lat="47.65212" lon="-2.53886">
        <ele>56</ele>
        <time>2020-10-07T13:12:42Z</time>
      </trkpt>
      <trkpt lat="47.65215" lon="-2.53881">
        <ele>56.2</ele>
        <time>2020-10-07T13:12:46Z</time>
      </trkpt>
      <trkpt lat="47.6522" lon="-2.53874">
        <ele>56.8</ele>
        <time>2020-10-07T13:12:50Z</time>
      </trkpt>
      <trkpt lat="47.65225" lon="-2.53864">
        <ele>57.6</ele>
        <time>2020-10-07T13:12:54Z</time>
      </trkpt>
      <trkpt lat="47.65228" lon="-2.53858">
        <ele>58.2</ele>
        <time>2020-10-07T13:12:58Z</time>
      </trkpt>
      <trkpt lat="47.65231" lon="-2.53851">
        <ele>58.6</ele>
        <time>2020-10-07T13:13:02Z</time>
      </trkpt>
      <trkpt lat="47.65234" lon="-2.53846">
        <ele>59</ele>
        <time>2020-10-07T13:13:06Z</time>
      </trkpt>
      <trkpt lat="47.65238" lon="-2.53843">
        <ele>59.4</ele>
        <time>2020-10-07T13:13:10Z</time>
      </trkpt>
      <trkpt lat="47.65244" lon="-2.53831">
        <ele>60.2</ele>
        <time>2020-10-07T13:13:14Z</time>
      </trkpt>
      <trkpt lat="47.65251" lon="-2.53819">
        <ele>61</ele>
        <time>2020-10-07T13:13:18Z</time>
      </trkpt>
      <trkpt lat="47.65256" lon="-2.53807">
        <ele>61</ele>
        <time>2020-10-07T13:13:22Z</time>
      </trkpt>
      <trkpt lat="47.6526" lon="-2.53798">
        <ele>61.4</ele>
        <time>2020-10-07T13:13:26Z</time>
      </trkpt>
      <trkpt lat="47.65265" lon="-2.53789">
        <ele>61.8</ele>
        <time>2020-10-07T13:13:30Z</time>
      </trkpt>
      <trkpt lat="47.65269" lon="-2.5378">
        <ele>62</ele>
        <time>2020-10-07T13:13:34Z</time>
      </trkpt>
      <trkpt lat="47.65272" lon="-2.5377">
        <ele>62.2</ele>
        <time>2020-10-07T13:13:38Z</time>
      </trkpt>
      <trkpt lat="47.65274" lon="-2.5376">
        <ele>63.2</ele>
        <time>2020-10-07T13:13:42Z</time>
      </trkpt>
      <trkpt lat="47.65274" lon="-2.53748">
        <ele>63.2</ele>
        <time>2020-10-07T13:13:46Z</time>
      </trkpt>
      <trkpt lat="47.65273" lon="-2.53736">
        <ele>63.2</ele>
        <time>2020-10-07T13:13:50Z</time>
      </trkpt>
      <trkpt lat="47.65272" lon="-2.53722">
        <ele>64.2</ele>
        <time>2020-10-07T13:13:54Z</time>
      </trkpt>
      <trkpt lat="47.65271" lon="-2.53707">
        <ele>63.6</ele>
        <time>2020-10-07T13:13:58Z</time>
      </trkpt>
      <trkpt lat="47.6527" lon="-2.53691">
        <ele>63.2</ele>
        <time>2020-10-07T13:14:02Z</time>
      </trkpt>
      <trkpt lat="47.65269" lon="-2.53674">
        <ele>63.4</ele>
        <time>2020-10-07T13:14:06Z</time>
      </trkpt>
      <trkpt lat="47.65269" lon="-2.53656">
        <ele>63</ele>
        <time>2020-10-07T13:14:10Z</time>
      </trkpt>
      <trkpt lat="47.65268" lon="-2.53636">
        <ele>62.8</ele>
        <time>2020-10-07T13:14:14Z</time>
      </trkpt>
      <trkpt lat="47.65267" lon="-2.53616">
        <ele>63</ele>
        <time>2020-10-07T13:14:18Z</time>
      </trkpt>
      <trkpt lat="47.65266" lon="-2.53595">
        <ele>62.2</ele>
        <time>2020-10-07T13:14:22Z</time>
      </trkpt>
      <trkpt lat="47.65265" lon="-2.53573">
        <ele>61.8</ele>
        <time>2020-10-07T13:14:26Z</time>
      </trkpt>
      <trkpt lat="47.65264" lon="-2.5355">
        <ele>61.4</ele>
        <time>2020-10-07T13:14:30Z</time>
      </trkpt>
      <trkpt lat="47.65262" lon="-2.53526">
        <ele>59.2</ele>
        <time>2020-10-07T13:14:34Z</time>
      </trkpt>
      <trkpt lat="47.65261" lon="-2.53499">
        <ele>58.2</ele>
        <time>2020-10-07T13:14:38Z</time>
      </trkpt>
      <trkpt lat="47.65259" lon="-2.53474">
        <ele>57.6</ele>
        <time>2020-10-07T13:14:42Z</time>
      </trkpt>
      <trkpt lat="47.65261" lon="-2.53463">
        <ele>57.4</ele>
        <time>2020-10-07T13:14:46Z</time>
      </trkpt>
      <trkpt lat="47.65265" lon="-2.53451">
        <ele>57</ele>
        <time>2020-10-07T13:14:50Z</time>
      </trkpt>
      <trkpt lat="47.65266" lon="-2.53436">
        <ele>56.6</ele>
        <time>2020-10-07T13:14:54Z</time>
      </trkpt>
      <trkpt lat="47.65263" lon="-2.53419">
        <ele>55.6</ele>
        <time>2020-10-07T13:14:58Z</time>
      </trkpt>
      <trkpt lat="47.65265" lon="-2.53406">
        <ele>55.8</ele>
        <time>2020-10-07T13:15:02Z</time>
      </trkpt>
      <trkpt lat="47.65268" lon="-2.53398">
        <ele>56.8</ele>
        <time>2020-10-07T13:15:06Z</time>
      </trkpt>
      <trkpt lat="47.65268" lon="-2.53391">
        <ele>57.6</ele>
        <time>2020-10-07T13:15:10Z</time>
      </trkpt>
      <trkpt lat="47.65269" lon="-2.53382">
        <ele>57.8</ele>
        <time>2020-10-07T13:15:14Z</time>
      </trkpt>
      <trkpt lat="47.65262" lon="-2.53373">
        <ele>57.6</ele>
        <time>2020-10-07T13:15:18Z</time>
      </trkpt>
      <trkpt lat="47.65258" lon="-2.53366">
        <ele>57.4</ele>
        <time>2020-10-07T13:15:22Z</time>
      </trkpt>
      <trkpt lat="47.6526" lon="-2.53355">
        <ele>57.8</ele>
        <time>2020-10-07T13:15:26Z</time>
      </trkpt>
      <trkpt lat="47.65264" lon="-2.53344">
        <ele>58</ele>
        <time>2020-10-07T13:15:30Z</time>
      </trkpt>
      <trkpt lat="47.65266" lon="-2.53333">
        <ele>58.4</ele>
        <time>2020-10-07T13:15:34Z</time>
      </trkpt>
      <trkpt lat="47.65258" lon="-2.53321">
        <ele>59</ele>
        <time>2020-10-07T13:15:38Z</time>
      </trkpt>
      <trkpt lat="47.65251" lon="-2.53313">
        <ele>59.2</ele>
        <time>2020-10-07T13:15:42Z</time>
      </trkpt>
      <trkpt lat="47.65243" lon="-2.53303">
        <ele>58.8</ele>
        <time>2020-10-07T13:15:46Z</time>
      </trkpt>
      <trkpt lat="47.65235" lon="-2.53295">
        <ele>58</ele>
        <time>2020-10-07T13:15:50Z</time>
      </trkpt>
      <trkpt lat="47.6523" lon="-2.53287">
        <ele>57</ele>
        <time>2020-10-07T13:15:54Z</time>
      </trkpt>
      <trkpt lat="47.65225" lon="-2.53278">
        <ele>56.6</ele>
        <time>2020-10-07T13:15:58Z</time>
      </trkpt>
      <trkpt lat="47.65222" lon="-2.53273">
        <ele>56.4</ele>
        <time>2020-10-07T13:16:02Z</time>
      </trkpt>
      <trkpt lat="47.65219" lon="-2.53264">
        <ele>56.6</ele>
        <time>2020-10-07T13:16:06Z</time>
      </trkpt>
      <trkpt lat="47.65219" lon="-2.53257">
        <ele>56.4</ele>
        <time>2020-10-07T13:16:10Z</time>
      </trkpt>
      <trkpt lat="47.65222" lon="-2.53249">
        <ele>57</ele>
        <time>2020-10-07T13:16:18Z</time>
      </trkpt>
      <trkpt lat="47.65227" lon="-2.5324">
        <ele>57.2</ele>
        <time>2020-10-07T13:16:22Z</time>
      </trkpt>
      <trkpt lat="47.65232" lon="-2.53231">
        <ele>56.6</ele>
        <time>2020-10-07T13:16:26Z</time>
      </trkpt>
      <trkpt lat="47.65233" lon="-2.53222">
        <ele>56.6</ele>
        <time>2020-10-07T13:16:30Z</time>
      </trkpt>
      <trkpt lat="47.65231" lon="-2.53212">
        <ele>56.4</ele>
        <time>2020-10-07T13:16:34Z</time>
      </trkpt>
      <trkpt lat="47.65224" lon="-2.53203">
        <ele>55.6</ele>
        <time>2020-10-07T13:16:38Z</time>
      </trkpt>
      <trkpt lat="47.65224" lon="-2.53197">
        <ele>56.6</ele>
        <time>2020-10-07T13:16:42Z</time>
      </trkpt>
      <trkpt lat="47.65227" lon="-2.53189">
        <ele>56.4</ele>
        <time>2020-10-07T13:16:46Z</time>
      </trkpt>
      <trkpt lat="47.65232" lon="-2.53187">
        <ele>57.4</ele>
        <time>2020-10-07T13:16:50Z</time>
      </trkpt>
      <trkpt lat="47.65238" lon="-2.53184">
        <ele>58.8</ele>
        <time>2020-10-07T13:16:54Z</time>
      </trkpt>
      <trkpt lat="47.65245" lon="-2.53177">
        <ele>59</ele>
        <time>2020-10-07T13:16:58Z</time>
      </trkpt>
      <trkpt lat="47.65252" lon="-2.53176">
        <ele>59</ele>
        <time>2020-10-07T13:17:02Z</time>
      </trkpt>
      <trkpt lat="47.65257" lon="-2.53168">
        <ele>59</ele>
        <time>2020-10-07T13:17:06Z</time>
      </trkpt>
      <trkpt lat="47.65261" lon="-2.53154">
        <ele>59.8</ele>
        <time>2020-10-07T13:17:10Z</time>
      </trkpt>
      <trkpt lat="47.6526" lon="-2.53143">
        <ele>59.2</ele>
        <time>2020-10-07T13:17:14Z</time>
      </trkpt>
      <trkpt lat="47.65265" lon="-2.53137">
        <ele>59</ele>
        <time>2020-10-07T13:17:18Z</time>
      </trkpt>
      <trkpt lat="47.65272" lon="-2.53128">
        <ele>59.2</ele>
        <time>2020-10-07T13:17:22Z</time>
      </trkpt>
      <trkpt lat="47.65279" lon="-2.53119">
        <ele>58.6</ele>
        <time>2020-10-07T13:17:26Z</time>
      </trkpt>
      <trkpt lat="47.65282" lon="-2.53109">
        <ele>58.4</ele>
        <time>2020-10-07T13:17:30Z</time>
      </trkpt>
      <trkpt lat="47.65283" lon="-2.53098">
        <ele>57</ele>
        <time>2020-10-07T13:17:34Z</time>
      </trkpt>
      <trkpt lat="47.65284" lon="-2.53081">
        <ele>58</ele>
        <time>2020-10-07T13:17:38Z</time>
      </trkpt>
      <trkpt lat="47.65282" lon="-2.53066">
        <ele>58.6</ele>
        <time>2020-10-07T13:17:42Z</time>
      </trkpt>
      <trkpt lat="47.65277" lon="-2.53047">
        <ele>59</ele>
        <time>2020-10-07T13:17:46Z</time>
      </trkpt>
      <trkpt lat="47.65274" lon="-2.53032">
        <ele>60.6</ele>
        <time>2020-10-07T13:17:50Z</time>
      </trkpt>
      <trkpt lat="47.65273" lon="-2.53022">
        <ele>61</ele>
        <time>2020-10-07T13:17:54Z</time>
      </trkpt>
      <trkpt lat="47.6527" lon="-2.53014">
        <ele>61.4</ele>
        <time>2020-10-07T13:17:58Z</time>
      </trkpt>
      <trkpt lat="47.65268" lon="-2.52997">
        <ele>61.2</ele>
        <time>2020-10-07T13:18:02Z</time>
      </trkpt>
      <trkpt lat="47.65258" lon="-2.52969">
        <ele>61.2</ele>
        <time>2020-10-07T13:18:06Z</time>
      </trkpt>
      <trkpt lat="47.65253" lon="-2.52952">
        <ele>61.4</ele>
        <time>2020-10-07T13:18:10Z</time>
      </trkpt>
      <trkpt lat="47.65247" lon="-2.52939">
        <ele>61.4</ele>
        <time>2020-10-07T13:18:14Z</time>
      </trkpt>
      <trkpt lat="47.65242" lon="-2.52925">
        <ele>60.6</ele>
        <time>2020-10-07T13:18:18Z</time>
      </trkpt>
      <trkpt lat="47.65238" lon="-2.52912">
        <ele>60.2</ele>
        <time>2020-10-07T13:18:22Z</time>
      </trkpt>
      <trkpt lat="47.65238" lon="-2.52898">
        <ele>60</ele>
        <time>2020-10-07T13:18:26Z</time>
      </trkpt>
      <trkpt lat="47.65234" lon="-2.5288">
        <ele>59.4</ele>
        <time>2020-10-07T13:18:30Z</time>
      </trkpt>
      <trkpt lat="47.65228" lon="-2.52868">
        <ele>58.4</ele>
        <time>2020-10-07T13:18:34Z</time>
      </trkpt>
      <trkpt lat="47.6522" lon="-2.52855">
        <ele>58.4</ele>
        <time>2020-10-07T13:18:38Z</time>
      </trkpt>
      <trkpt lat="47.65213" lon="-2.5284">
        <ele>58.8</ele>
        <time>2020-10-07T13:18:42Z</time>
      </trkpt>
      <trkpt lat="47.65206" lon="-2.52826">
        <ele>59.2</ele>
        <time>2020-10-07T13:18:46Z</time>
      </trkpt>
      <trkpt lat="47.65198" lon="-2.52812">
        <ele>58.8</ele>
        <time>2020-10-07T13:18:50Z</time>
      </trkpt>
      <trkpt lat="47.65191" lon="-2.52798">
        <ele>59.4</ele>
        <time>2020-10-07T13:18:54Z</time>
      </trkpt>
      <trkpt lat="47.65183" lon="-2.52787">
        <ele>59.8</ele>
        <time>2020-10-07T13:19:02Z</time>
      </trkpt>
      <trkpt lat="47.6518" lon="-2.52776">
        <ele>59.2</ele>
        <time>2020-10-07T13:19:06Z</time>
      </trkpt>
      <trkpt lat="47.65176" lon="-2.52757">
        <ele>58.8</ele>
        <time>2020-10-07T13:19:10Z</time>
      </trkpt>
      <trkpt lat="47.65174" lon="-2.52731">
        <ele>58</ele>
        <time>2020-10-07T13:19:14Z</time>
      </trkpt>
      <trkpt lat="47.65173" lon="-2.52708">
        <ele>58.6</ele>
        <time>2020-10-07T13:19:18Z</time>
      </trkpt>
      <trkpt lat="47.65172" lon="-2.52683">
        <ele>58.6</ele>
        <time>2020-10-07T13:19:22Z</time>
      </trkpt>
      <trkpt lat="47.65171" lon="-2.52654">
        <ele>58.6</ele>
        <time>2020-10-07T13:19:26Z</time>
      </trkpt>
      <trkpt lat="47.65168" lon="-2.52622">
        <ele>59.4</ele>
        <time>2020-10-07T13:19:30Z</time>
      </trkpt>
      <trkpt lat="47.65162" lon="-2.52591">
        <ele>59</ele>
        <time>2020-10-07T13:19:34Z</time>
      </trkpt>
      <trkpt lat="47.6516" lon="-2.52556">
        <ele>58.2</ele>
        <time>2020-10-07T13:19:38Z</time>
      </trkpt>
      <trkpt lat="47.65154" lon="-2.5252">
        <ele>58</ele>
        <time>2020-10-07T13:19:42Z</time>
      </trkpt>
      <trkpt lat="47.6515" lon="-2.52486">
        <ele>57.2</ele>
        <time>2020-10-07T13:19:46Z</time>
      </trkpt>
      <trkpt lat="47.65148" lon="-2.52452">
        <ele>56.4</ele>
        <time>2020-10-07T13:19:50Z</time>
      </trkpt>
      <trkpt lat="47.65151" lon="-2.52423">
        <ele>57.2</ele>
        <time>2020-10-07T13:19:54Z</time>
      </trkpt>
      <trkpt lat="47.65157" lon="-2.52396">
        <ele>58.4</ele>
        <time>2020-10-07T13:19:58Z</time>
      </trkpt>
      <trkpt lat="47.65161" lon="-2.5237">
        <ele>59</ele>
        <time>2020-10-07T13:20:02Z</time>
      </trkpt>
      <trkpt lat="47.65152" lon="-2.5236">
        <ele>59.4</ele>
        <time>2020-10-07T13:20:06Z</time>
      </trkpt>
      <trkpt lat="47.65138" lon="-2.5236">
        <ele>59.2</ele>
        <time>2020-10-07T13:20:10Z</time>
      </trkpt>
      <trkpt lat="47.65125" lon="-2.52362">
        <ele>58.8</ele>
        <time>2020-10-07T13:20:14Z</time>
      </trkpt>
      <trkpt lat="47.65109" lon="-2.52364">
        <ele>60</ele>
        <time>2020-10-07T13:20:18Z</time>
      </trkpt>
      <trkpt lat="47.65092" lon="-2.52366">
        <ele>60.8</ele>
        <time>2020-10-07T13:20:22Z</time>
      </trkpt>
      <trkpt lat="47.65076" lon="-2.52369">
        <ele>60</ele>
        <time>2020-10-07T13:20:26Z</time>
      </trkpt>
      <trkpt lat="47.65062" lon="-2.52371">
        <ele>58.6</ele>
        <time>2020-10-07T13:20:30Z</time>
      </trkpt>
      <trkpt lat="47.65058" lon="-2.52361">
        <ele>59.8</ele>
        <time>2020-10-07T13:20:34Z</time>
      </trkpt>
      <trkpt lat="47.65055" lon="-2.52347">
        <ele>59</ele>
        <time>2020-10-07T13:20:38Z</time>
      </trkpt>
      <trkpt lat="47.65043" lon="-2.52337">
        <ele>58.6</ele>
        <time>2020-10-07T13:20:42Z</time>
      </trkpt>
      <trkpt lat="47.65028" lon="-2.52334">
        <ele>58</ele>
        <time>2020-10-07T13:20:46Z</time>
      </trkpt>
      <trkpt lat="47.65016" lon="-2.52334">
        <ele>57.4</ele>
        <time>2020-10-07T13:20:50Z</time>
      </trkpt>
      <trkpt lat="47.6501" lon="-2.52351">
        <ele>57.6</ele>
        <time>2020-10-07T13:20:54Z</time>
      </trkpt>
      <trkpt lat="47.65005" lon="-2.52368">
        <ele>56.4</ele>
        <time>2020-10-07T13:20:58Z</time>
      </trkpt>
      <trkpt lat="47.64995" lon="-2.5238">
        <ele>54.6</ele>
        <time>2020-10-07T13:21:02Z</time>
      </trkpt>
      <trkpt lat="47.64984" lon="-2.5239">
        <ele>54</ele>
        <time>2020-10-07T13:21:06Z</time>
      </trkpt>
      <trkpt lat="47.64978" lon="-2.52389">
        <ele>53.8</ele>
        <time>2020-10-07T13:21:10Z</time>
      </trkpt>
      <trkpt lat="47.64973" lon="-2.52372">
        <ele>52.8</ele>
        <time>2020-10-07T13:21:14Z</time>
      </trkpt>
      <trkpt lat="47.64963" lon="-2.5235">
        <ele>51.6</ele>
        <time>2020-10-07T13:21:18Z</time>
      </trkpt>
      <trkpt lat="47.64956" lon="-2.52328">
        <ele>50.8</ele>
        <time>2020-10-07T13:21:22Z</time>
      </trkpt>
      <trkpt lat="47.64942" lon="-2.52317">
        <ele>48.4</ele>
        <time>2020-10-07T13:21:26Z</time>
      </trkpt>
      <trkpt lat="47.64928" lon="-2.52315">
        <ele>46</ele>
        <time>2020-10-07T13:21:30Z</time>
      </trkpt>
      <trkpt lat="47.6491" lon="-2.52305">
        <ele>43.2</ele>
        <time>2020-10-07T13:21:34Z</time>
      </trkpt>
      <trkpt lat="47.64894" lon="-2.52296">
        <ele>42</ele>
        <time>2020-10-07T13:21:38Z</time>
      </trkpt>
      <trkpt lat="47.64879" lon="-2.52286">
        <ele>41</ele>
        <time>2020-10-07T13:21:42Z</time>
      </trkpt>
      <trkpt lat="47.64864" lon="-2.52275">
        <ele>39.2</ele>
        <time>2020-10-07T13:21:46Z</time>
      </trkpt>
      <trkpt lat="47.64849" lon="-2.52266">
        <ele>38.2</ele>
        <time>2020-10-07T13:21:50Z</time>
      </trkpt>
      <trkpt lat="47.64835" lon="-2.52254">
        <ele>36.4</ele>
        <time>2020-10-07T13:21:54Z</time>
      </trkpt>
      <trkpt lat="47.6482" lon="-2.52242">
        <ele>36</ele>
        <time>2020-10-07T13:21:58Z</time>
      </trkpt>
      <trkpt lat="47.64803" lon="-2.52225">
        <ele>36.2</ele>
        <time>2020-10-07T13:22:02Z</time>
      </trkpt>
      <trkpt lat="47.64788" lon="-2.52215">
        <ele>35.2</ele>
        <time>2020-10-07T13:22:06Z</time>
      </trkpt>
      <trkpt lat="47.64773" lon="-2.5221">
        <ele>35</ele>
        <time>2020-10-07T13:22:10Z</time>
      </trkpt>
      <trkpt lat="47.64761" lon="-2.52197">
        <ele>35.4</ele>
        <time>2020-10-07T13:22:14Z</time>
      </trkpt>
      <trkpt lat="47.64749" lon="-2.52191">
        <ele>35.4</ele>
        <time>2020-10-07T13:22:18Z</time>
      </trkpt>
      <trkpt lat="47.64734" lon="-2.52191">
        <ele>34.6</ele>
        <time>2020-10-07T13:22:22Z</time>
      </trkpt>
      <trkpt lat="47.64718" lon="-2.52181">
        <ele>33.8</ele>
        <time>2020-10-07T13:22:26Z</time>
      </trkpt>
      <trkpt lat="47.64706" lon="-2.52172">
        <ele>33.6</ele>
        <time>2020-10-07T13:22:30Z</time>
      </trkpt>
      <trkpt lat="47.64697" lon="-2.52168">
        <ele>34</ele>
        <time>2020-10-07T13:22:34Z</time>
      </trkpt>
      <trkpt lat="47.64694" lon="-2.52163">
        <ele>33.6</ele>
        <time>2020-10-07T13:22:42Z</time>
      </trkpt>
      <trkpt lat="47.64694" lon="-2.52156">
        <ele>34.2</ele>
        <time>2020-10-07T13:22:46Z</time>
      </trkpt>
      <trkpt lat="47.64693" lon="-2.52146">
        <ele>34.8</ele>
        <time>2020-10-07T13:22:50Z</time>
      </trkpt>
      <trkpt lat="47.64696" lon="-2.5214">
        <ele>35.4</ele>
        <time>2020-10-07T13:22:54Z</time>
      </trkpt>
      <trkpt lat="47.647" lon="-2.52133">
        <ele>35.6</ele>
        <time>2020-10-07T13:22:58Z</time>
      </trkpt>
      <trkpt lat="47.64702" lon="-2.52127">
        <ele>36.4</ele>
        <time>2020-10-07T13:23:02Z</time>
      </trkpt>
      <trkpt lat="47.64706" lon="-2.52123">
        <ele>36.6</ele>
        <time>2020-10-07T13:23:06Z</time>
      </trkpt>
      <trkpt lat="47.64712" lon="-2.52118">
        <ele>36.8</ele>
        <time>2020-10-07T13:23:10Z</time>
      </trkpt>
      <trkpt lat="47.64721" lon="-2.52113">
        <ele>37.2</ele>
        <time>2020-10-07T13:23:14Z</time>
      </trkpt>
      <trkpt lat="47.6473" lon="-2.5211">
        <ele>37.2</ele>
        <time>2020-10-07T13:23:18Z</time>
      </trkpt>
      <trkpt lat="47.64735" lon="-2.521">
        <ele>37.6</ele>
        <time>2020-10-07T13:23:22Z</time>
      </trkpt>
      <trkpt lat="47.64741" lon="-2.52095">
        <ele>37.8</ele>
        <time>2020-10-07T13:23:26Z</time>
      </trkpt>
      <trkpt lat="47.64747" lon="-2.52093">
        <ele>38.6</ele>
        <time>2020-10-07T13:23:34Z</time>
      </trkpt>
      <trkpt lat="47.6475" lon="-2.52092">
        <ele>38.4</ele>
        <time>2020-10-07T13:23:38Z</time>
      </trkpt>
      <trkpt lat="47.64752" lon="-2.52089">
        <ele>38.4</ele>
        <time>2020-10-07T13:23:42Z</time>
      </trkpt>
      <trkpt lat="47.64756" lon="-2.52084">
        <ele>37.8</ele>
        <time>2020-10-07T13:23:46Z</time>
      </trkpt>
      <trkpt lat="47.64764" lon="-2.52082">
        <ele>38</ele>
        <time>2020-10-07T13:23:50Z</time>
      </trkpt>
      <trkpt lat="47.6477" lon="-2.52077">
        <ele>38.4</ele>
        <time>2020-10-07T13:23:54Z</time>
      </trkpt>
      <trkpt lat="47.6478" lon="-2.52075">
        <ele>38.8</ele>
        <time>2020-10-07T13:23:58Z</time>
      </trkpt>
      <trkpt lat="47.64788" lon="-2.52069">
        <ele>38.6</ele>
        <time>2020-10-07T13:24:02Z</time>
      </trkpt>
      <trkpt lat="47.64793" lon="-2.52061">
        <ele>38.2</ele>
        <time>2020-10-07T13:24:06Z</time>
      </trkpt>
      <trkpt lat="47.64793" lon="-2.5205">
        <ele>37.2</ele>
        <time>2020-10-07T13:24:10Z</time>
      </trkpt>
      <trkpt lat="47.64792" lon="-2.52043">
        <ele>36.6</ele>
        <time>2020-10-07T13:24:14Z</time>
      </trkpt>
      <trkpt lat="47.6479" lon="-2.52036">
        <ele>35.8</ele>
        <time>2020-10-07T13:24:18Z</time>
      </trkpt>
      <trkpt lat="47.64791" lon="-2.52026">
        <ele>34.8</ele>
        <time>2020-10-07T13:24:22Z</time>
      </trkpt>
      <trkpt lat="47.64788" lon="-2.52017">
        <ele>34.6</ele>
        <time>2020-10-07T13:24:26Z</time>
      </trkpt>
      <trkpt lat="47.64787" lon="-2.51996">
        <ele>35.2</ele>
        <time>2020-10-07T13:24:30Z</time>
      </trkpt>
      <trkpt lat="47.64789" lon="-2.51981">
        <ele>35.8</ele>
        <time>2020-10-07T13:24:34Z</time>
      </trkpt>
      <trkpt lat="47.64794" lon="-2.51977">
        <ele>35.8</ele>
        <time>2020-10-07T13:24:42Z</time>
      </trkpt>
      <trkpt lat="47.648" lon="-2.51971">
        <ele>36.2</ele>
        <time>2020-10-07T13:24:46Z</time>
      </trkpt>
      <trkpt lat="47.64805" lon="-2.51965">
        <ele>37</ele>
        <time>2020-10-07T13:24:50Z</time>
      </trkpt>
      <trkpt lat="47.64809" lon="-2.51962">
        <ele>36.8</ele>
        <time>2020-10-07T13:24:54Z</time>
      </trkpt>
      <trkpt lat="47.64816" lon="-2.51959">
        <ele>37</ele>
        <time>2020-10-07T13:25:02Z</time>
      </trkpt>
      <trkpt lat="47.6482" lon="-2.51955">
        <ele>36.8</ele>
        <time>2020-10-07T13:25:06Z</time>
      </trkpt>
      <trkpt lat="47.64826" lon="-2.51951">
        <ele>36.8</ele>
        <time>2020-10-07T13:25:10Z</time>
      </trkpt>
      <trkpt lat="47.64833" lon="-2.51946">
        <ele>37</ele>
        <time>2020-10-07T13:25:14Z</time>
      </trkpt>
      <trkpt lat="47.64841" lon="-2.51941">
        <ele>36.6</ele>
        <time>2020-10-07T13:25:18Z</time>
      </trkpt>
      <trkpt lat="47.64847" lon="-2.51938">
        <ele>36.8</ele>
        <time>2020-10-07T13:25:22Z</time>
      </trkpt>
      <trkpt lat="47.64856" lon="-2.51932">
        <ele>37</ele>
        <time>2020-10-07T13:25:26Z</time>
      </trkpt>
      <trkpt lat="47.64867" lon="-2.51927">
        <ele>37</ele>
        <time>2020-10-07T13:25:30Z</time>
      </trkpt>
      <trkpt lat="47.64874" lon="-2.51923">
        <ele>36.6</ele>
        <time>2020-10-07T13:25:34Z</time>
      </trkpt>
      <trkpt lat="47.64878" lon="-2.51912">
        <ele>36</ele>
        <time>2020-10-07T13:25:38Z</time>
      </trkpt>
      <trkpt lat="47.64882" lon="-2.51898">
        <ele>34.6</ele>
        <time>2020-10-07T13:25:42Z</time>
      </trkpt>
      <trkpt lat="47.64887" lon="-2.51879">
        <ele>33.4</ele>
        <time>2020-10-07T13:25:46Z</time>
      </trkpt>
      <trkpt lat="47.64888" lon="-2.51868">
        <ele>32.2</ele>
        <time>2020-10-07T13:25:50Z</time>
      </trkpt>
      <trkpt lat="47.64888" lon="-2.51862">
        <ele>32.2</ele>
        <time>2020-10-07T13:25:54Z</time>
      </trkpt>
      <trkpt lat="47.64892" lon="-2.51849">
        <ele>31.6</ele>
        <time>2020-10-07T13:25:58Z</time>
      </trkpt>
      <trkpt lat="47.6489" lon="-2.5184">
        <ele>31.6</ele>
        <time>2020-10-07T13:26:02Z</time>
      </trkpt>
      <trkpt lat="47.64889" lon="-2.51834">
        <ele>31.2</ele>
        <time>2020-10-07T13:26:06Z</time>
      </trkpt>
      <trkpt lat="47.64886" lon="-2.51826">
        <ele>31.6</ele>
        <time>2020-10-07T13:26:14Z</time>
      </trkpt>
      <trkpt lat="47.64878" lon="-2.51823">
        <ele>31.4</ele>
        <time>2020-10-07T13:26:18Z</time>
      </trkpt>
      <trkpt lat="47.64869" lon="-2.51817">
        <ele>31.2</ele>
        <time>2020-10-07T13:26:22Z</time>
      </trkpt>
      <trkpt lat="47.64866" lon="-2.51806">
        <ele>31.2</ele>
        <time>2020-10-07T13:26:26Z</time>
      </trkpt>
      <trkpt lat="47.6487" lon="-2.51793">
        <ele>29.8</ele>
        <time>2020-10-07T13:26:30Z</time>
      </trkpt>
      <trkpt lat="47.64875" lon="-2.5178">
        <ele>29.4</ele>
        <time>2020-10-07T13:26:34Z</time>
      </trkpt>
      <trkpt lat="47.64881" lon="-2.51766">
        <ele>29.2</ele>
        <time>2020-10-07T13:26:38Z</time>
      </trkpt>
      <trkpt lat="47.6489" lon="-2.5175">
        <ele>28.6</ele>
        <time>2020-10-07T13:26:42Z</time>
      </trkpt>
      <trkpt lat="47.64898" lon="-2.51738">
        <ele>28.4</ele>
        <time>2020-10-07T13:26:46Z</time>
      </trkpt>
      <trkpt lat="47.64906" lon="-2.51728">
        <ele>27.6</ele>
        <time>2020-10-07T13:26:50Z</time>
      </trkpt>
      <trkpt lat="47.64919" lon="-2.51718">
        <ele>27.8</ele>
        <time>2020-10-07T13:26:54Z</time>
      </trkpt>
      <trkpt lat="47.64935" lon="-2.51708">
        <ele>26.4</ele>
        <time>2020-10-07T13:26:58Z</time>
      </trkpt>
      <trkpt lat="47.64951" lon="-2.51696">
        <ele>25.2</ele>
        <time>2020-10-07T13:27:02Z</time>
      </trkpt>
      <trkpt lat="47.64968" lon="-2.51682">
        <ele>24.6</ele>
        <time>2020-10-07T13:27:06Z</time>
      </trkpt>
      <trkpt lat="47.64982" lon="-2.51668">
        <ele>24.6</ele>
        <time>2020-10-07T13:27:10Z</time>
      </trkpt>
      <trkpt lat="47.64995" lon="-2.51651">
        <ele>24</ele>
        <time>2020-10-07T13:27:14Z</time>
      </trkpt>
      <trkpt lat="47.65007" lon="-2.51631">
        <ele>23.4</ele>
        <time>2020-10-07T13:27:18Z</time>
      </trkpt>
      <trkpt lat="47.65016" lon="-2.51612">
        <ele>23.4</ele>
        <time>2020-10-07T13:27:22Z</time>
      </trkpt>
      <trkpt lat="47.65024" lon="-2.51589">
        <ele>23.2</ele>
        <time>2020-10-07T13:27:26Z</time>
      </trkpt>
      <trkpt lat="47.65032" lon="-2.5157">
        <ele>22.8</ele>
        <time>2020-10-07T13:27:30Z</time>
      </trkpt>
      <trkpt lat="47.65039" lon="-2.5155">
        <ele>23</ele>
        <time>2020-10-07T13:27:34Z</time>
      </trkpt>
      <trkpt lat="47.65049" lon="-2.5152">
        <ele>22.2</ele>
        <time>2020-10-07T13:27:38Z</time>
      </trkpt>
      <trkpt lat="47.65057" lon="-2.51493">
        <ele>21.4</ele>
        <time>2020-10-07T13:27:42Z</time>
      </trkpt>
      <trkpt lat="47.65067" lon="-2.51475">
        <ele>21.6</ele>
        <time>2020-10-07T13:27:46Z</time>
      </trkpt>
      <trkpt lat="47.65072" lon="-2.51459">
        <ele>21.4</ele>
        <time>2020-10-07T13:27:50Z</time>
      </trkpt>
      <trkpt lat="47.65072" lon="-2.51438">
        <ele>20.6</ele>
        <time>2020-10-07T13:27:54Z</time>
      </trkpt>
      <trkpt lat="47.65074" lon="-2.51416">
        <ele>19.8</ele>
        <time>2020-10-07T13:27:58Z</time>
      </trkpt>
      <trkpt lat="47.65073" lon="-2.51394">
        <ele>20</ele>
        <time>2020-10-07T13:28:02Z</time>
      </trkpt>
      <trkpt lat="47.65072" lon="-2.51373">
        <ele>19.4</ele>
        <time>2020-10-07T13:28:06Z</time>
      </trkpt>
      <trkpt lat="47.65072" lon="-2.51351">
        <ele>18.6</ele>
        <time>2020-10-07T13:28:10Z</time>
      </trkpt>
      <trkpt lat="47.65073" lon="-2.51328">
        <ele>18.2</ele>
        <time>2020-10-07T13:28:14Z</time>
      </trkpt>
      <trkpt lat="47.65072" lon="-2.5131">
        <ele>18.4</ele>
        <time>2020-10-07T13:28:18Z</time>
      </trkpt>
      <trkpt lat="47.65071" lon="-2.51292">
        <ele>17.6</ele>
        <time>2020-10-07T13:28:22Z</time>
      </trkpt>
      <trkpt lat="47.6507" lon="-2.5127">
        <ele>17</ele>
        <time>2020-10-07T13:28:26Z</time>
      </trkpt>
      <trkpt lat="47.65071" lon="-2.51251">
        <ele>18</ele>
        <time>2020-10-07T13:28:30Z</time>
      </trkpt>
      <trkpt lat="47.65074" lon="-2.51239">
        <ele>19.6</ele>
        <time>2020-10-07T13:28:34Z</time>
      </trkpt>
      <trkpt lat="47.6507" lon="-2.51231">
        <ele>19.8</ele>
        <time>2020-10-07T13:28:38Z</time>
      </trkpt>
      <trkpt lat="47.65067" lon="-2.5122">
        <ele>19.2</ele>
        <time>2020-10-07T13:28:42Z</time>
      </trkpt>
      <trkpt lat="47.65064" lon="-2.51211">
        <ele>16.6</ele>
        <time>2020-10-07T13:28:46Z</time>
      </trkpt>
      <trkpt lat="47.65062" lon="-2.51201">
        <ele>16.2</ele>
        <time>2020-10-07T13:28:50Z</time>
      </trkpt>
      <trkpt lat="47.65059" lon="-2.51191">
        <ele>15.2</ele>
        <time>2020-10-07T13:28:54Z</time>
      </trkpt>
      <trkpt lat="47.65058" lon="-2.51177">
        <ele>14.6</ele>
        <time>2020-10-07T13:28:58Z</time>
      </trkpt>
      <trkpt lat="47.65058" lon="-2.51164">
        <ele>14.6</ele>
        <time>2020-10-07T13:29:02Z</time>
      </trkpt>
      <trkpt lat="47.65054" lon="-2.5115">
        <ele>14</ele>
        <time>2020-10-07T13:29:06Z</time>
      </trkpt>
      <trkpt lat="47.65052" lon="-2.51133">
        <ele>13.8</ele>
        <time>2020-10-07T13:29:10Z</time>
      </trkpt>
      <trkpt lat="47.6505" lon="-2.51118">
        <ele>13.6</ele>
        <time>2020-10-07T13:29:14Z</time>
      </trkpt>
      <trkpt lat="47.65047" lon="-2.51102">
        <ele>13.4</ele>
        <time>2020-10-07T13:29:18Z</time>
      </trkpt>
      <trkpt lat="47.65045" lon="-2.51089">
        <ele>13.6</ele>
        <time>2020-10-07T13:29:22Z</time>
      </trkpt>
      <trkpt lat="47.65043" lon="-2.51077">
        <ele>14</ele>
        <time>2020-10-07T13:29:30Z</time>
      </trkpt>
      <trkpt lat="47.65041" lon="-2.51069">
        <ele>13.2</ele>
        <time>2020-10-07T13:29:34Z</time>
      </trkpt>
      <trkpt lat="47.65037" lon="-2.51055">
        <ele>13.8</ele>
        <time>2020-10-07T13:29:38Z</time>
      </trkpt>
      <trkpt lat="47.65037" lon="-2.51042">
        <ele>12.2</ele>
        <time>2020-10-07T13:29:42Z</time>
      </trkpt>
      <trkpt lat="47.65032" lon="-2.51023">
        <ele>12</ele>
        <time>2020-10-07T13:29:46Z</time>
      </trkpt>
      <trkpt lat="47.65027" lon="-2.51005">
        <ele>11.4</ele>
        <time>2020-10-07T13:29:50Z</time>
      </trkpt>
      <trkpt lat="47.65021" lon="-2.50987">
        <ele>10.2</ele>
        <time>2020-10-07T13:29:54Z</time>
      </trkpt>
      <trkpt lat="47.65017" lon="-2.50969">
        <ele>9.8</ele>
        <time>2020-10-07T13:29:58Z</time>
      </trkpt>
      <trkpt lat="47.65015" lon="-2.5096">
        <ele>9.2</ele>
        <time>2020-10-07T13:30:02Z</time>
      </trkpt>
      <trkpt lat="47.65014" lon="-2.50946">
        <ele>8.8</ele>
        <time>2020-10-07T13:30:06Z</time>
      </trkpt>
      <trkpt lat="47.65012" lon="-2.50929">
        <ele>9.4</ele>
        <time>2020-10-07T13:30:10Z</time>
      </trkpt>
      <trkpt lat="47.6501" lon="-2.50914">
        <ele>9</ele>
        <time>2020-10-07T13:30:14Z</time>
      </trkpt>
      <trkpt lat="47.65006" lon="-2.50894">
        <ele>7.6</ele>
        <time>2020-10-07T13:30:18Z</time>
      </trkpt>
      <trkpt lat="47.65005" lon="-2.50876">
        <ele>7.6</ele>
        <time>2020-10-07T13:30:22Z</time>
      </trkpt>
      <trkpt lat="47.65003" lon="-2.50865">
        <ele>7.2</ele>
        <time>2020-10-07T13:30:26Z</time>
      </trkpt>
      <trkpt lat="47.65002" lon="-2.50849">
        <ele>7</ele>
        <time>2020-10-07T13:30:30Z</time>
      </trkpt>
      <trkpt lat="47.64996" lon="-2.50826">
        <ele>6.8</ele>
        <time>2020-10-07T13:30:34Z</time>
      </trkpt>
      <trkpt lat="47.64996" lon="-2.50814">
        <ele>7</ele>
        <time>2020-10-07T13:30:38Z</time>
      </trkpt>
      <trkpt lat="47.64995" lon="-2.50803">
        <ele>6</ele>
        <time>2020-10-07T13:30:42Z</time>
      </trkpt>
      <trkpt lat="47.64994" lon="-2.5079">
        <ele>6.4</ele>
        <time>2020-10-07T13:30:46Z</time>
      </trkpt>
      <trkpt lat="47.6499" lon="-2.50785">
        <ele>5.2</ele>
        <time>2020-10-07T13:30:50Z</time>
      </trkpt>
      <trkpt lat="47.64989" lon="-2.50786">
        <ele>4.8</ele>
        <time>2020-10-07T13:30:54Z</time>
      </trkpt>
      <trkpt lat="47.64987" lon="-2.5079">
        <ele>4.8</ele>
        <time>2020-10-07T13:30:58Z</time>
      </trkpt>
      <trkpt lat="47.64976" lon="-2.50792">
        <ele>5.8</ele>
        <time>2020-10-07T13:31:02Z</time>
      </trkpt>
      <trkpt lat="47.64968" lon="-2.50792">
        <ele>5.6</ele>
        <time>2020-10-07T13:31:06Z</time>
      </trkpt>
      <trkpt lat="47.64967" lon="-2.50782">
        <ele>4.8</ele>
        <time>2020-10-07T13:31:10Z</time>
      </trkpt>
      <trkpt lat="47.64968" lon="-2.50773">
        <ele>4.4</ele>
        <time>2020-10-07T13:31:14Z</time>
      </trkpt>
      <trkpt lat="47.6496" lon="-2.50763">
        <ele>4.4</ele>
        <time>2020-10-07T13:31:18Z</time>
      </trkpt>
      <trkpt lat="47.64949" lon="-2.50764">
        <ele>5.4</ele>
        <time>2020-10-07T13:31:22Z</time>
      </trkpt>
      <trkpt lat="47.64944" lon="-2.50771">
        <ele>5.8</ele>
        <time>2020-10-07T13:31:26Z</time>
      </trkpt>
      <trkpt lat="47.64941" lon="-2.50779">
        <ele>7.4</ele>
        <time>2020-10-07T13:31:30Z</time>
      </trkpt>
      <trkpt lat="47.64942" lon="-2.50788">
        <ele>8</ele>
        <time>2020-10-07T13:31:34Z</time>
      </trkpt>
      <trkpt lat="47.64942" lon="-2.50797">
        <ele>8.6</ele>
        <time>2020-10-07T13:31:38Z</time>
      </trkpt>
      <trkpt lat="47.64948" lon="-2.50804">
        <ele>7.8</ele>
        <time>2020-10-07T13:31:42Z</time>
      </trkpt>
      <trkpt lat="47.64957" lon="-2.50815">
        <ele>5.8</ele>
        <time>2020-10-07T13:31:46Z</time>
      </trkpt>
      <trkpt lat="47.64963" lon="-2.50826">
        <ele>5.4</ele>
        <time>2020-10-07T13:31:50Z</time>
      </trkpt>
      <trkpt lat="47.64971" lon="-2.50838">
        <ele>6</ele>
        <time>2020-10-07T13:31:54Z</time>
      </trkpt>
      <trkpt lat="47.64977" lon="-2.50855">
        <ele>5.8</ele>
        <time>2020-10-07T13:31:58Z</time>
      </trkpt>
      <trkpt lat="47.6498" lon="-2.50869">
        <ele>6.4</ele>
        <time>2020-10-07T13:32:02Z</time>
      </trkpt>
      <trkpt lat="47.64983" lon="-2.50884">
        <ele>6.4</ele>
        <time>2020-10-07T13:32:06Z</time>
      </trkpt>
      <trkpt lat="47.64985" lon="-2.50899">
        <ele>6.8</ele>
        <time>2020-10-07T13:32:10Z</time>
      </trkpt>
      <trkpt lat="47.64988" lon="-2.50915">
        <ele>7.6</ele>
        <time>2020-10-07T13:32:14Z</time>
      </trkpt>
      <trkpt lat="47.64989" lon="-2.50931">
        <ele>6.8</ele>
        <time>2020-10-07T13:32:18Z</time>
      </trkpt>
      <trkpt lat="47.64988" lon="-2.50947">
        <ele>8.4</ele>
        <time>2020-10-07T13:32:22Z</time>
      </trkpt>
      <trkpt lat="47.64985" lon="-2.50962">
        <ele>8.6</ele>
        <time>2020-10-07T13:32:26Z</time>
      </trkpt>
      <trkpt lat="47.64978" lon="-2.50971">
        <ele>10.2</ele>
        <time>2020-10-07T13:32:30Z</time>
      </trkpt>
      <trkpt lat="47.64972" lon="-2.50982">
        <ele>10.8</ele>
        <time>2020-10-07T13:32:34Z</time>
      </trkpt>
      <trkpt lat="47.64965" lon="-2.50992">
        <ele>11.6</ele>
        <time>2020-10-07T13:32:38Z</time>
      </trkpt>
      <trkpt lat="47.64956" lon="-2.51">
        <ele>12.8</ele>
        <time>2020-10-07T13:32:42Z</time>
      </trkpt>
      <trkpt lat="47.64947" lon="-2.51006">
        <ele>13.8</ele>
        <time>2020-10-07T13:32:46Z</time>
      </trkpt>
      <trkpt lat="47.64938" lon="-2.51012">
        <ele>14.6</ele>
        <time>2020-10-07T13:32:50Z</time>
      </trkpt>
      <trkpt lat="47.64929" lon="-2.51017">
        <ele>15.6</ele>
        <time>2020-10-07T13:32:54Z</time>
      </trkpt>
      <trkpt lat="47.64921" lon="-2.51027">
        <ele>16.6</ele>
        <time>2020-10-07T13:32:58Z</time>
      </trkpt>
      <trkpt lat="47.64912" lon="-2.51036">
        <ele>17.8</ele>
        <time>2020-10-07T13:33:02Z</time>
      </trkpt>
      <trkpt lat="47.64903" lon="-2.51046">
        <ele>18.8</ele>
        <time>2020-10-07T13:33:06Z</time>
      </trkpt>
      <trkpt lat="47.64894" lon="-2.51055">
        <ele>19</ele>
        <time>2020-10-07T13:33:10Z</time>
      </trkpt>
      <trkpt lat="47.64887" lon="-2.51065">
        <ele>20.8</ele>
        <time>2020-10-07T13:33:14Z</time>
      </trkpt>
      <trkpt lat="47.64886" lon="-2.5108">
        <ele>21.6</ele>
        <time>2020-10-07T13:33:18Z</time>
      </trkpt>
      <trkpt lat="47.64886" lon="-2.51096">
        <ele>22.6</ele>
        <time>2020-10-07T13:33:22Z</time>
      </trkpt>
      <trkpt lat="47.64887" lon="-2.51111">
        <ele>24.6</ele>
        <time>2020-10-07T13:33:26Z</time>
      </trkpt>
      <trkpt lat="47.64887" lon="-2.51126">
        <ele>26.2</ele>
        <time>2020-10-07T13:33:30Z</time>
      </trkpt>
      <trkpt lat="47.64887" lon="-2.51142">
        <ele>27.2</ele>
        <time>2020-10-07T13:33:34Z</time>
      </trkpt>
      <trkpt lat="47.64886" lon="-2.51156">
        <ele>27.6</ele>
        <time>2020-10-07T13:33:38Z</time>
      </trkpt>
      <trkpt lat="47.64884" lon="-2.51171">
        <ele>27.8</ele>
        <time>2020-10-07T13:33:42Z</time>
      </trkpt>
      <trkpt lat="47.64877" lon="-2.51178">
        <ele>28.2</ele>
        <time>2020-10-07T13:33:46Z</time>
      </trkpt>
      <trkpt lat="47.64873" lon="-2.5118">
        <ele>28.6</ele>
        <time>2020-10-07T13:33:50Z</time>
      </trkpt>
      <trkpt lat="47.64873" lon="-2.51183">
        <ele>29.2</ele>
        <time>2020-10-07T13:34:46Z</time>
      </trkpt>
      <trkpt lat="47.64865" lon="-2.51182">
        <ele>27.4</ele>
        <time>2020-10-07T13:34:50Z</time>
      </trkpt>
      <trkpt lat="47.64855" lon="-2.51184">
        <ele>28.4</ele>
        <time>2020-10-07T13:34:54Z</time>
      </trkpt>
      <trkpt lat="47.64844" lon="-2.51185">
        <ele>28.6</ele>
        <time>2020-10-07T13:34:58Z</time>
      </trkpt>
      <trkpt lat="47.64832" lon="-2.51187">
        <ele>28.6</ele>
        <time>2020-10-07T13:35:02Z</time>
      </trkpt>
      <trkpt lat="47.6482" lon="-2.51189">
        <ele>28.8</ele>
        <time>2020-10-07T13:35:06Z</time>
      </trkpt>
      <trkpt lat="47.64807" lon="-2.5119">
        <ele>28.6</ele>
        <time>2020-10-07T13:35:10Z</time>
      </trkpt>
      <trkpt lat="47.64794" lon="-2.51192">
        <ele>28.4</ele>
        <time>2020-10-07T13:35:14Z</time>
      </trkpt>
      <trkpt lat="47.6478" lon="-2.51193">
        <ele>28.2</ele>
        <time>2020-10-07T13:35:18Z</time>
      </trkpt>
      <trkpt lat="47.64765" lon="-2.51195">
        <ele>28.8</ele>
        <time>2020-10-07T13:35:22Z</time>
      </trkpt>
      <trkpt lat="47.64748" lon="-2.51197">
        <ele>27.2</ele>
        <time>2020-10-07T13:35:26Z</time>
      </trkpt>
      <trkpt lat="47.64729" lon="-2.512">
        <ele>26.8</ele>
        <time>2020-10-07T13:35:30Z</time>
      </trkpt>
      <trkpt lat="47.64711" lon="-2.51206">
        <ele>25</ele>
        <time>2020-10-07T13:35:34Z</time>
      </trkpt>
      <trkpt lat="47.64692" lon="-2.51216">
        <ele>25.2</ele>
        <time>2020-10-07T13:35:38Z</time>
      </trkpt>
      <trkpt lat="47.64673" lon="-2.51227">
        <ele>25.8</ele>
        <time>2020-10-07T13:35:42Z</time>
      </trkpt>
      <trkpt lat="47.64655" lon="-2.51237">
        <ele>24.8</ele>
        <time>2020-10-07T13:35:46Z</time>
      </trkpt>
      <trkpt lat="47.64638" lon="-2.51248">
        <ele>25</ele>
        <time>2020-10-07T13:35:50Z</time>
      </trkpt>
      <trkpt lat="47.64624" lon="-2.51259">
        <ele>24.2</ele>
        <time>2020-10-07T13:35:54Z</time>
      </trkpt>
      <trkpt lat="47.64606" lon="-2.51272">
        <ele>24</ele>
        <time>2020-10-07T13:35:58Z</time>
      </trkpt>
      <trkpt lat="47.64592" lon="-2.51291">
        <ele>26.2</ele>
        <time>2020-10-07T13:36:02Z</time>
      </trkpt>
      <trkpt lat="47.64583" lon="-2.51314">
        <ele>26.2</ele>
        <time>2020-10-07T13:36:06Z</time>
      </trkpt>
      <trkpt lat="47.64579" lon="-2.51338">
        <ele>28.2</ele>
        <time>2020-10-07T13:36:10Z</time>
      </trkpt>
      <trkpt lat="47.64578" lon="-2.51359">
        <ele>29.2</ele>
        <time>2020-10-07T13:36:14Z</time>
      </trkpt>
      <trkpt lat="47.64579" lon="-2.51377">
        <ele>30.6</ele>
        <time>2020-10-07T13:36:18Z</time>
      </trkpt>
      <trkpt lat="47.64579" lon="-2.51395">
        <ele>31.2</ele>
        <time>2020-10-07T13:36:22Z</time>
      </trkpt>
      <trkpt lat="47.6458" lon="-2.51414">
        <ele>31.4</ele>
        <time>2020-10-07T13:36:26Z</time>
      </trkpt>
      <trkpt lat="47.6458" lon="-2.51432">
        <ele>31</ele>
        <time>2020-10-07T13:36:30Z</time>
      </trkpt>
      <trkpt lat="47.64581" lon="-2.5145">
        <ele>31.4</ele>
        <time>2020-10-07T13:36:34Z</time>
      </trkpt>
      <trkpt lat="47.64582" lon="-2.5147">
        <ele>31.6</ele>
        <time>2020-10-07T13:36:38Z</time>
      </trkpt>
      <trkpt lat="47.64582" lon="-2.51491">
        <ele>31.2</ele>
        <time>2020-10-07T13:36:42Z</time>
      </trkpt>
      <trkpt lat="47.64583" lon="-2.51513">
        <ele>31.2</ele>
        <time>2020-10-07T13:36:46Z</time>
      </trkpt>
      <trkpt lat="47.64583" lon="-2.51538">
        <ele>30.2</ele>
        <time>2020-10-07T13:36:50Z</time>
      </trkpt>
      <trkpt lat="47.64584" lon="-2.51565">
        <ele>30.4</ele>
        <time>2020-10-07T13:36:54Z</time>
      </trkpt>
      <trkpt lat="47.64584" lon="-2.51594">
        <ele>29.2</ele>
        <time>2020-10-07T13:36:58Z</time>
      </trkpt>
      <trkpt lat="47.64583" lon="-2.51621">
        <ele>28.8</ele>
        <time>2020-10-07T13:37:02Z</time>
      </trkpt>
      <trkpt lat="47.64578" lon="-2.51645">
        <ele>28.4</ele>
        <time>2020-10-07T13:37:06Z</time>
      </trkpt>
      <trkpt lat="47.64561" lon="-2.5164">
        <ele>27.2</ele>
        <time>2020-10-07T13:37:10Z</time>
      </trkpt>
      <trkpt lat="47.64546" lon="-2.51621">
        <ele>26.4</ele>
        <time>2020-10-07T13:37:14Z</time>
      </trkpt>
      <trkpt lat="47.64532" lon="-2.51598">
        <ele>26</ele>
        <time>2020-10-07T13:37:18Z</time>
      </trkpt>
      <trkpt lat="47.64516" lon="-2.51576">
        <ele>25.2</ele>
        <time>2020-10-07T13:37:22Z</time>
      </trkpt>
      <trkpt lat="47.64501" lon="-2.51553">
        <ele>25</ele>
        <time>2020-10-07T13:37:26Z</time>
      </trkpt>
      <trkpt lat="47.64488" lon="-2.51538">
        <ele>24.8</ele>
        <time>2020-10-07T13:37:30Z</time>
      </trkpt>
      <trkpt lat="47.64477" lon="-2.5152">
        <ele>24.6</ele>
        <time>2020-10-07T13:37:34Z</time>
      </trkpt>
      <trkpt lat="47.64465" lon="-2.515">
        <ele>25.2</ele>
        <time>2020-10-07T13:37:38Z</time>
      </trkpt>
      <trkpt lat="47.64454" lon="-2.51485">
        <ele>24.8</ele>
        <time>2020-10-07T13:37:42Z</time>
      </trkpt>
      <trkpt lat="47.64442" lon="-2.51477">
        <ele>22</ele>
        <time>2020-10-07T13:37:46Z</time>
      </trkpt>
      <trkpt lat="47.64435" lon="-2.51468">
        <ele>19.6</ele>
        <time>2020-10-07T13:37:50Z</time>
      </trkpt>
      <trkpt lat="47.64426" lon="-2.51461">
        <ele>18.8</ele>
        <time>2020-10-07T13:37:54Z</time>
      </trkpt>
      <trkpt lat="47.64416" lon="-2.51454">
        <ele>18.4</ele>
        <time>2020-10-07T13:37:58Z</time>
      </trkpt>
      <trkpt lat="47.64413" lon="-2.51452">
        <ele>18.4</ele>
        <time>2020-10-07T13:38:06Z</time>
      </trkpt>
      <trkpt lat="47.64408" lon="-2.51454">
        <ele>17.6</ele>
        <time>2020-10-07T13:38:18Z</time>
      </trkpt>
      <trkpt lat="47.64397" lon="-2.51449">
        <ele>15.6</ele>
        <time>2020-10-07T13:38:22Z</time>
      </trkpt>
      <trkpt lat="47.6438" lon="-2.51439">
        <ele>12.8</ele>
        <time>2020-10-07T13:38:26Z</time>
      </trkpt>
      <trkpt lat="47.64367" lon="-2.51434">
        <ele>11.2</ele>
        <time>2020-10-07T13:38:30Z</time>
      </trkpt>
      <trkpt lat="47.64357" lon="-2.51436">
        <ele>11.4</ele>
        <time>2020-10-07T13:38:34Z</time>
      </trkpt>
      <trkpt lat="47.64348" lon="-2.5144">
        <ele>12.6</ele>
        <time>2020-10-07T13:38:38Z</time>
      </trkpt>
      <trkpt lat="47.6434" lon="-2.5145">
        <ele>14.4</ele>
        <time>2020-10-07T13:38:42Z</time>
      </trkpt>
      <trkpt lat="47.64333" lon="-2.51452">
        <ele>16</ele>
        <time>2020-10-07T13:38:46Z</time>
      </trkpt>
      <trkpt lat="47.64325" lon="-2.51449">
        <ele>16.8</ele>
        <time>2020-10-07T13:38:50Z</time>
      </trkpt>
      <trkpt lat="47.64321" lon="-2.51443">
        <ele>17.4</ele>
        <time>2020-10-07T13:38:54Z</time>
      </trkpt>
      <trkpt lat="47.64316" lon="-2.51438">
        <ele>18</ele>
        <time>2020-10-07T13:38:58Z</time>
      </trkpt>
      <trkpt lat="47.64315" lon="-2.51429">
        <ele>18.2</ele>
        <time>2020-10-07T13:39:02Z</time>
      </trkpt>
      <trkpt lat="47.64313" lon="-2.5142">
        <ele>18.8</ele>
        <time>2020-10-07T13:39:06Z</time>
      </trkpt>
      <trkpt lat="47.64312" lon="-2.51413">
        <ele>19.8</ele>
        <time>2020-10-07T13:39:10Z</time>
      </trkpt>
      <trkpt lat="47.64311" lon="-2.51404">
        <ele>20.4</ele>
        <time>2020-10-07T13:39:14Z</time>
      </trkpt>
      <trkpt lat="47.64308" lon="-2.51396">
        <ele>21.4</ele>
        <time>2020-10-07T13:39:18Z</time>
      </trkpt>
      <trkpt lat="47.64306" lon="-2.51385">
        <ele>22</ele>
        <time>2020-10-07T13:39:22Z</time>
      </trkpt>
      <trkpt lat="47.64303" lon="-2.51377">
        <ele>22.6</ele>
        <time>2020-10-07T13:39:26Z</time>
      </trkpt>
      <trkpt lat="47.64301" lon="-2.51368">
        <ele>22.6</ele>
        <time>2020-10-07T13:39:30Z</time>
      </trkpt>
      <trkpt lat="47.64301" lon="-2.51355">
        <ele>23</ele>
        <time>2020-10-07T13:39:34Z</time>
      </trkpt>
      <trkpt lat="47.64301" lon="-2.51343">
        <ele>23.8</ele>
        <time>2020-10-07T13:39:38Z</time>
      </trkpt>
      <trkpt lat="47.64299" lon="-2.5133">
        <ele>24.2</ele>
        <time>2020-10-07T13:39:42Z</time>
      </trkpt>
      <trkpt lat="47.64301" lon="-2.51317">
        <ele>23.6</ele>
        <time>2020-10-07T13:39:46Z</time>
      </trkpt>
      <trkpt lat="47.64306" lon="-2.51305">
        <ele>23</ele>
        <time>2020-10-07T13:39:50Z</time>
      </trkpt>
      <trkpt lat="47.64311" lon="-2.51289">
        <ele>21.2</ele>
        <time>2020-10-07T13:39:54Z</time>
      </trkpt>
      <trkpt lat="47.64319" lon="-2.51267">
        <ele>19.4</ele>
        <time>2020-10-07T13:39:58Z</time>
      </trkpt>
      <trkpt lat="47.64325" lon="-2.51245">
        <ele>17.6</ele>
        <time>2020-10-07T13:40:02Z</time>
      </trkpt>
      <trkpt lat="47.64329" lon="-2.51227">
        <ele>16.4</ele>
        <time>2020-10-07T13:40:06Z</time>
      </trkpt>
      <trkpt lat="47.64324" lon="-2.51216">
        <ele>16.2</ele>
        <time>2020-10-07T13:40:10Z</time>
      </trkpt>
      <trkpt lat="47.64311" lon="-2.51215">
        <ele>16.2</ele>
        <time>2020-10-07T13:40:14Z</time>
      </trkpt>
      <trkpt lat="47.64297" lon="-2.51215">
        <ele>17</ele>
        <time>2020-10-07T13:40:18Z</time>
      </trkpt>
      <trkpt lat="47.64284" lon="-2.51215">
        <ele>17.6</ele>
        <time>2020-10-07T13:40:22Z</time>
      </trkpt>
      <trkpt lat="47.64271" lon="-2.51216">
        <ele>17.8</ele>
        <time>2020-10-07T13:40:26Z</time>
      </trkpt>
      <trkpt lat="47.64258" lon="-2.51216">
        <ele>18.2</ele>
        <time>2020-10-07T13:40:30Z</time>
      </trkpt>
      <trkpt lat="47.64245" lon="-2.51216">
        <ele>18.8</ele>
        <time>2020-10-07T13:40:34Z</time>
      </trkpt>
      <trkpt lat="47.64231" lon="-2.51217">
        <ele>19.8</ele>
        <time>2020-10-07T13:40:38Z</time>
      </trkpt>
      <trkpt lat="47.64218" lon="-2.51218">
        <ele>19.8</ele>
        <time>2020-10-07T13:40:42Z</time>
      </trkpt>
      <trkpt lat="47.64206" lon="-2.51215">
        <ele>19.6</ele>
        <time>2020-10-07T13:40:46Z</time>
      </trkpt>
      <trkpt lat="47.64193" lon="-2.51216">
        <ele>20.2</ele>
        <time>2020-10-07T13:40:50Z</time>
      </trkpt>
      <trkpt lat="47.64182" lon="-2.51219">
        <ele>20.6</ele>
        <time>2020-10-07T13:40:54Z</time>
      </trkpt>
      <trkpt lat="47.64172" lon="-2.5122">
        <ele>22.2</ele>
        <time>2020-10-07T13:40:58Z</time>
      </trkpt>
      <trkpt lat="47.6416" lon="-2.51224">
        <ele>22.8</ele>
        <time>2020-10-07T13:41:02Z</time>
      </trkpt>
      <trkpt lat="47.64148" lon="-2.51228">
        <ele>22.4</ele>
        <time>2020-10-07T13:41:06Z</time>
      </trkpt>
      <trkpt lat="47.6414" lon="-2.51229">
        <ele>22.6</ele>
        <time>2020-10-07T13:41:10Z</time>
      </trkpt>
      <trkpt lat="47.64135" lon="-2.5123">
        <ele>22.2</ele>
        <time>2020-10-07T13:41:14Z</time>
      </trkpt>
      <trkpt lat="47.6413" lon="-2.51231">
        <ele>22.6</ele>
        <time>2020-10-07T13:41:18Z</time>
      </trkpt>
      <trkpt lat="47.64125" lon="-2.51238">
        <ele>23.6</ele>
        <time>2020-10-07T13:43:50Z</time>
      </trkpt>
      <trkpt lat="47.64125" lon="-2.5124">
        <ele>23.8</ele>
        <time>2020-10-07T13:43:54Z</time>
      </trkpt>
      <trkpt lat="47.64128" lon="-2.51242">
        <ele>23.8</ele>
        <time>2020-10-07T13:43:58Z</time>
      </trkpt>
      <trkpt lat="47.64131" lon="-2.51245">
        <ele>24.2</ele>
        <time>2020-10-07T13:44:30Z</time>
      </trkpt>
      <trkpt lat="47.64131" lon="-2.51245">
        <ele>23.6</ele>
        <time>2020-10-07T13:44:34Z</time>
      </trkpt>
      <trkpt lat="47.64129" lon="-2.51245">
        <ele>24</ele>
        <time>2020-10-07T13:44:42Z</time>
      </trkpt>
      <trkpt lat="47.64127" lon="-2.51239">
        <ele>23.8</ele>
        <time>2020-10-07T13:44:46Z</time>
      </trkpt>
      <trkpt lat="47.64125" lon="-2.51237">
        <ele>24</ele>
        <time>2020-10-07T13:45:02Z</time>
      </trkpt>
      <trkpt lat="47.64118" lon="-2.5124">
        <ele>22.8</ele>
        <time>2020-10-07T13:45:06Z</time>
      </trkpt>
      <trkpt lat="47.64112" lon="-2.51251">
        <ele>23</ele>
        <time>2020-10-07T13:45:10Z</time>
      </trkpt>
      <trkpt lat="47.64105" lon="-2.51258">
        <ele>22</ele>
        <time>2020-10-07T13:45:14Z</time>
      </trkpt>
      <trkpt lat="47.64095" lon="-2.51266">
        <ele>22.4</ele>
        <time>2020-10-07T13:45:18Z</time>
      </trkpt>
      <trkpt lat="47.64082" lon="-2.51273">
        <ele>22.2</ele>
        <time>2020-10-07T13:45:22Z</time>
      </trkpt>
      <trkpt lat="47.64069" lon="-2.51279">
        <ele>21.4</ele>
        <time>2020-10-07T13:45:26Z</time>
      </trkpt>
      <trkpt lat="47.64056" lon="-2.51286">
        <ele>20.2</ele>
        <time>2020-10-07T13:45:30Z</time>
      </trkpt>
      <trkpt lat="47.64045" lon="-2.51296">
        <ele>20.6</ele>
        <time>2020-10-07T13:45:34Z</time>
      </trkpt>
      <trkpt lat="47.64037" lon="-2.51309">
        <ele>22</ele>
        <time>2020-10-07T13:45:38Z</time>
      </trkpt>
      <trkpt lat="47.64029" lon="-2.51321">
        <ele>22</ele>
        <time>2020-10-07T13:45:42Z</time>
      </trkpt>
      <trkpt lat="47.64022" lon="-2.51334">
        <ele>24</ele>
        <time>2020-10-07T13:45:46Z</time>
      </trkpt>
      <trkpt lat="47.6402" lon="-2.51341">
        <ele>25</ele>
        <time>2020-10-07T13:45:54Z</time>
      </trkpt>
      <trkpt lat="47.64018" lon="-2.51348">
        <ele>25.6</ele>
        <time>2020-10-07T13:45:58Z</time>
      </trkpt>
      <trkpt lat="47.64017" lon="-2.5135">
        <ele>25.6</ele>
        <time>2020-10-07T13:46:02Z</time>
      </trkpt>
      <trkpt lat="47.64013" lon="-2.51352">
        <ele>26.2</ele>
        <time>2020-10-07T13:46:10Z</time>
      </trkpt>
      <trkpt lat="47.64007" lon="-2.51356">
        <ele>26.4</ele>
        <time>2020-10-07T13:46:14Z</time>
      </trkpt>
      <trkpt lat="47.63999" lon="-2.51364">
        <ele>26.2</ele>
        <time>2020-10-07T13:46:18Z</time>
      </trkpt>
      <trkpt lat="47.6399" lon="-2.51374">
        <ele>26.4</ele>
        <time>2020-10-07T13:46:22Z</time>
      </trkpt>
      <trkpt lat="47.63979" lon="-2.51383">
        <ele>27.2</ele>
        <time>2020-10-07T13:46:26Z</time>
      </trkpt>
      <trkpt lat="47.63968" lon="-2.51393">
        <ele>27.6</ele>
        <time>2020-10-07T13:46:30Z</time>
      </trkpt>
      <trkpt lat="47.63959" lon="-2.51401">
        <ele>28</ele>
        <time>2020-10-07T13:46:34Z</time>
      </trkpt>
      <trkpt lat="47.63949" lon="-2.51409">
        <ele>27.4</ele>
        <time>2020-10-07T13:46:38Z</time>
      </trkpt>
      <trkpt lat="47.63943" lon="-2.51415">
        <ele>27.6</ele>
        <time>2020-10-07T13:46:42Z</time>
      </trkpt>
      <trkpt lat="47.63936" lon="-2.51422">
        <ele>28.4</ele>
        <time>2020-10-07T13:46:46Z</time>
      </trkpt>
      <trkpt lat="47.63926" lon="-2.51424">
        <ele>28.2</ele>
        <time>2020-10-07T13:46:50Z</time>
      </trkpt>
      <trkpt lat="47.6392" lon="-2.51436">
        <ele>26.4</ele>
        <time>2020-10-07T13:46:54Z</time>
      </trkpt>
      <trkpt lat="47.63913" lon="-2.51453">
        <ele>26.8</ele>
        <time>2020-10-07T13:46:58Z</time>
      </trkpt>
      <trkpt lat="47.63908" lon="-2.5147">
        <ele>26.8</ele>
        <time>2020-10-07T13:47:02Z</time>
      </trkpt>
      <trkpt lat="47.63906" lon="-2.51489">
        <ele>26.6</ele>
        <time>2020-10-07T13:47:06Z</time>
      </trkpt>
      <trkpt lat="47.63904" lon="-2.51507">
        <ele>25.8</ele>
        <time>2020-10-07T13:47:10Z</time>
      </trkpt>
      <trkpt lat="47.63904" lon="-2.51533">
        <ele>23.8</ele>
        <time>2020-10-07T13:47:14Z</time>
      </trkpt>
      <trkpt lat="47.63905" lon="-2.51556">
        <ele>23.6</ele>
        <time>2020-10-07T13:47:18Z</time>
      </trkpt>
      <trkpt lat="47.63897" lon="-2.51573">
        <ele>23.8</ele>
        <time>2020-10-07T13:47:22Z</time>
      </trkpt>
      <trkpt lat="47.63888" lon="-2.51572">
        <ele>23.6</ele>
        <time>2020-10-07T13:47:26Z</time>
      </trkpt>
      <trkpt lat="47.6387" lon="-2.51573">
        <ele>22.2</ele>
        <time>2020-10-07T13:47:30Z</time>
      </trkpt>
      <trkpt lat="47.63856" lon="-2.51575">
        <ele>22.8</ele>
        <time>2020-10-07T13:47:34Z</time>
      </trkpt>
      <trkpt lat="47.63843" lon="-2.51575">
        <ele>22</ele>
        <time>2020-10-07T13:47:38Z</time>
      </trkpt>
      <trkpt lat="47.63826" lon="-2.51575">
        <ele>22</ele>
        <time>2020-10-07T13:47:42Z</time>
      </trkpt>
      <trkpt lat="47.63811" lon="-2.51575">
        <ele>21.8</ele>
        <time>2020-10-07T13:47:46Z</time>
      </trkpt>
      <trkpt lat="47.63795" lon="-2.51575">
        <ele>21.6</ele>
        <time>2020-10-07T13:47:50Z</time>
      </trkpt>
      <trkpt lat="47.63778" lon="-2.51573">
        <ele>21</ele>
        <time>2020-10-07T13:47:54Z</time>
      </trkpt>
      <trkpt lat="47.6376" lon="-2.51569">
        <ele>20.2</ele>
        <time>2020-10-07T13:47:58Z</time>
      </trkpt>
      <trkpt lat="47.63741" lon="-2.51563">
        <ele>19.6</ele>
        <time>2020-10-07T13:48:02Z</time>
      </trkpt>
      <trkpt lat="47.63733" lon="-2.51547">
        <ele>18.6</ele>
        <time>2020-10-07T13:48:06Z</time>
      </trkpt>
      <trkpt lat="47.63731" lon="-2.51523">
        <ele>19.4</ele>
        <time>2020-10-07T13:48:10Z</time>
      </trkpt>
      <trkpt lat="47.63728" lon="-2.51501">
        <ele>20.6</ele>
        <time>2020-10-07T13:48:14Z</time>
      </trkpt>
      <trkpt lat="47.63728" lon="-2.51495">
        <ele>21.6</ele>
        <time>2020-10-07T13:48:18Z</time>
      </trkpt>
      <trkpt lat="47.63728" lon="-2.51489">
        <ele>22</ele>
        <time>2020-10-07T13:48:22Z</time>
      </trkpt>
      <trkpt lat="47.63729" lon="-2.51478">
        <ele>21.4</ele>
        <time>2020-10-07T13:48:26Z</time>
      </trkpt>
      <trkpt lat="47.63729" lon="-2.51457">
        <ele>20.6</ele>
        <time>2020-10-07T13:48:30Z</time>
      </trkpt>
      <trkpt lat="47.6373" lon="-2.51427">
        <ele>19</ele>
        <time>2020-10-07T13:48:34Z</time>
      </trkpt>
      <trkpt lat="47.63733" lon="-2.51395">
        <ele>18.2</ele>
        <time>2020-10-07T13:48:38Z</time>
      </trkpt>
      <trkpt lat="47.63735" lon="-2.51367">
        <ele>18.2</ele>
        <time>2020-10-07T13:48:42Z</time>
      </trkpt>
      <trkpt lat="47.63736" lon="-2.51337">
        <ele>17.6</ele>
        <time>2020-10-07T13:48:46Z</time>
      </trkpt>
      <trkpt lat="47.63736" lon="-2.51308">
        <ele>18</ele>
        <time>2020-10-07T13:48:50Z</time>
      </trkpt>
      <trkpt lat="47.63735" lon="-2.51281">
        <ele>18</ele>
        <time>2020-10-07T13:48:54Z</time>
      </trkpt>
      <trkpt lat="47.63734" lon="-2.51253">
        <ele>18.6</ele>
        <time>2020-10-07T13:48:58Z</time>
      </trkpt>
      <trkpt lat="47.63732" lon="-2.51223">
        <ele>19</ele>
        <time>2020-10-07T13:49:02Z</time>
      </trkpt>
      <trkpt lat="47.6373" lon="-2.51198">
        <ele>19.6</ele>
        <time>2020-10-07T13:49:06Z</time>
      </trkpt>
      <trkpt lat="47.63728" lon="-2.51172">
        <ele>19.4</ele>
        <time>2020-10-07T13:49:10Z</time>
      </trkpt>
      <trkpt lat="47.63729" lon="-2.51146">
        <ele>20.2</ele>
        <time>2020-10-07T13:49:14Z</time>
      </trkpt>
      <trkpt lat="47.6373" lon="-2.51123">
        <ele>19.4</ele>
        <time>2020-10-07T13:49:18Z</time>
      </trkpt>
      <trkpt lat="47.63732" lon="-2.51096">
        <ele>19.2</ele>
        <time>2020-10-07T13:49:22Z</time>
      </trkpt>
      <trkpt lat="47.63733" lon="-2.51068">
        <ele>18</ele>
        <time>2020-10-07T13:49:26Z</time>
      </trkpt>
      <trkpt lat="47.63733" lon="-2.51048">
        <ele>17.8</ele>
        <time>2020-10-07T13:49:30Z</time>
      </trkpt>
      <trkpt lat="47.63727" lon="-2.51034">
        <ele>16</ele>
        <time>2020-10-07T13:49:34Z</time>
      </trkpt>
      <trkpt lat="47.63711" lon="-2.51028">
        <ele>15.6</ele>
        <time>2020-10-07T13:49:38Z</time>
      </trkpt>
      <trkpt lat="47.63698" lon="-2.51029">
        <ele>17</ele>
        <time>2020-10-07T13:49:42Z</time>
      </trkpt>
      <trkpt lat="47.63684" lon="-2.51026">
        <ele>18.4</ele>
        <time>2020-10-07T13:49:46Z</time>
      </trkpt>
      <trkpt lat="47.63667" lon="-2.51017">
        <ele>18.4</ele>
        <time>2020-10-07T13:49:50Z</time>
      </trkpt>
      <trkpt lat="47.63644" lon="-2.51011">
        <ele>18.6</ele>
        <time>2020-10-07T13:49:54Z</time>
      </trkpt>
      <trkpt lat="47.63622" lon="-2.51005">
        <ele>18.2</ele>
        <time>2020-10-07T13:49:58Z</time>
      </trkpt>
      <trkpt lat="47.63604" lon="-2.50997">
        <ele>18.4</ele>
        <time>2020-10-07T13:50:02Z</time>
      </trkpt>
      <trkpt lat="47.63587" lon="-2.50992">
        <ele>17.6</ele>
        <time>2020-10-07T13:50:06Z</time>
      </trkpt>
      <trkpt lat="47.63577" lon="-2.50984">
        <ele>17.4</ele>
        <time>2020-10-07T13:50:10Z</time>
      </trkpt>
      <trkpt lat="47.63576" lon="-2.50968">
        <ele>17.6</ele>
        <time>2020-10-07T13:50:14Z</time>
      </trkpt>
      <trkpt lat="47.63578" lon="-2.50947">
        <ele>16.6</ele>
        <time>2020-10-07T13:50:18Z</time>
      </trkpt>
      <trkpt lat="47.6358" lon="-2.50924">
        <ele>15.2</ele>
        <time>2020-10-07T13:50:22Z</time>
      </trkpt>
      <trkpt lat="47.63582" lon="-2.50903">
        <ele>13.8</ele>
        <time>2020-10-07T13:50:26Z</time>
      </trkpt>
      <trkpt lat="47.63582" lon="-2.50894">
        <ele>12.2</ele>
        <time>2020-10-07T13:50:30Z</time>
      </trkpt>
      <trkpt lat="47.63582" lon="-2.50885">
        <ele>12.4</ele>
        <time>2020-10-07T13:50:42Z</time>
      </trkpt>
      <trkpt lat="47.63579" lon="-2.50883">
        <ele>11.6</ele>
        <time>2020-10-07T13:50:46Z</time>
      </trkpt>
      <trkpt lat="47.63576" lon="-2.5088">
        <ele>10.8</ele>
        <time>2020-10-07T13:50:50Z</time>
      </trkpt>
      <trkpt lat="47.63574" lon="-2.50875">
        <ele>10.4</ele>
        <time>2020-10-07T13:50:54Z</time>
      </trkpt>
      <trkpt lat="47.63571" lon="-2.50868">
        <ele>10</ele>
        <time>2020-10-07T13:50:58Z</time>
      </trkpt>
      <trkpt lat="47.63568" lon="-2.50861">
        <ele>9</ele>
        <time>2020-10-07T13:51:02Z</time>
      </trkpt>
      <trkpt lat="47.63565" lon="-2.50856">
        <ele>7.8</ele>
        <time>2020-10-07T13:51:06Z</time>
      </trkpt>
      <trkpt lat="47.63562" lon="-2.50852">
        <ele>7.6</ele>
        <time>2020-10-07T13:51:10Z</time>
      </trkpt>
      <trkpt lat="47.63559" lon="-2.50849">
        <ele>7.6</ele>
        <time>2020-10-07T13:51:14Z</time>
      </trkpt>
      <trkpt lat="47.63554" lon="-2.50842">
        <ele>7</ele>
        <time>2020-10-07T13:51:26Z</time>
      </trkpt>
      <trkpt lat="47.63551" lon="-2.50837">
        <ele>6.8</ele>
        <time>2020-10-07T13:51:30Z</time>
      </trkpt>
      <trkpt lat="47.63545" lon="-2.50832">
        <ele>6.8</ele>
        <time>2020-10-07T13:51:34Z</time>
      </trkpt>
      <trkpt lat="47.63541" lon="-2.50828">
        <ele>6.4</ele>
        <time>2020-10-07T13:51:38Z</time>
      </trkpt>
      <trkpt lat="47.63536" lon="-2.50825">
        <ele>6.2</ele>
        <time>2020-10-07T13:51:42Z</time>
      </trkpt>
      <trkpt lat="47.6353" lon="-2.50822">
        <ele>5.8</ele>
        <time>2020-10-07T13:51:46Z</time>
      </trkpt>
      <trkpt lat="47.63524" lon="-2.50822">
        <ele>5.6</ele>
        <time>2020-10-07T13:51:50Z</time>
      </trkpt>
      <trkpt lat="47.63519" lon="-2.50818">
        <ele>4.6</ele>
        <time>2020-10-07T13:51:54Z</time>
      </trkpt>
      <trkpt lat="47.63515" lon="-2.50813">
        <ele>4.4</ele>
        <time>2020-10-07T13:51:58Z</time>
      </trkpt>
      <trkpt lat="47.63511" lon="-2.50811">
        <ele>2.2</ele>
        <time>2020-10-07T13:52:02Z</time>
      </trkpt>
      <trkpt lat="47.6351" lon="-2.50808">
        <ele>0.8</ele>
        <time>2020-10-07T13:52:06Z</time>
      </trkpt>
      <trkpt lat="47.63504" lon="-2.50806">
        <ele>-0.6</ele>
        <time>2020-10-07T13:52:10Z</time>
      </trkpt>
      <trkpt lat="47.635" lon="-2.50807">
        <ele>-1.8</ele>
        <time>2020-10-07T13:52:14Z</time>
      </trkpt>
      <trkpt lat="47.63496" lon="-2.50806">
        <ele>-2.2</ele>
        <time>2020-10-07T13:52:18Z</time>
      </trkpt>
      <trkpt lat="47.63491" lon="-2.50804">
        <ele>-5</ele>
        <time>2020-10-07T13:52:26Z</time>
      </trkpt>
      <trkpt lat="47.63489" lon="-2.508">
        <ele>-6</ele>
        <time>2020-10-07T13:52:30Z</time>
      </trkpt>
      <trkpt lat="47.63483" lon="-2.50804">
        <ele>-5.8</ele>
        <time>2020-10-07T13:52:38Z</time>
      </trkpt>
      <trkpt lat="47.63478" lon="-2.50812">
        <ele>-5.6</ele>
        <time>2020-10-07T13:52:42Z</time>
      </trkpt>
      <trkpt lat="47.63467" lon="-2.50823">
        <ele>-6</ele>
        <time>2020-10-07T13:52:46Z</time>
      </trkpt>
      <trkpt lat="47.63452" lon="-2.50832">
        <ele>-4.4</ele>
        <time>2020-10-07T13:52:50Z</time>
      </trkpt>
      <trkpt lat="47.6344" lon="-2.50839">
        <ele>-4.2</ele>
        <time>2020-10-07T13:52:54Z</time>
      </trkpt>
      <trkpt lat="47.6343" lon="-2.50848">
        <ele>-3</ele>
        <time>2020-10-07T13:52:58Z</time>
      </trkpt>
      <trkpt lat="47.6342" lon="-2.50857">
        <ele>-2</ele>
        <time>2020-10-07T13:53:02Z</time>
      </trkpt>
      <trkpt lat="47.63416" lon="-2.50871">
        <ele>-2</ele>
        <time>2020-10-07T13:53:06Z</time>
      </trkpt>
      <trkpt lat="47.63414" lon="-2.50879">
        <ele>-1.6</ele>
        <time>2020-10-07T13:53:10Z</time>
      </trkpt>
      <trkpt lat="47.63413" lon="-2.5089">
        <ele>-1</ele>
        <time>2020-10-07T13:53:14Z</time>
      </trkpt>
      <trkpt lat="47.63411" lon="-2.50898">
        <ele>-1</ele>
        <time>2020-10-07T13:53:18Z</time>
      </trkpt>
      <trkpt lat="47.63412" lon="-2.50912">
        <ele>-0.2</ele>
        <time>2020-10-07T13:53:22Z</time>
      </trkpt>
      <trkpt lat="47.6341" lon="-2.50927">
        <ele>-0.2</ele>
        <time>2020-10-07T13:53:26Z</time>
      </trkpt>
      <trkpt lat="47.63409" lon="-2.50941">
        <ele>-0.6</ele>
        <time>2020-10-07T13:53:30Z</time>
      </trkpt>
      <trkpt lat="47.63412" lon="-2.50953">
        <ele>-0.2</ele>
        <time>2020-10-07T13:53:34Z</time>
      </trkpt>
      <trkpt lat="47.6341" lon="-2.50968">
        <ele>0.2</ele>
        <time>2020-10-07T13:53:38Z</time>
      </trkpt>
      <trkpt lat="47.63408" lon="-2.50984">
        <ele>0.6</ele>
        <time>2020-10-07T13:53:42Z</time>
      </trkpt>
      <trkpt lat="47.63407" lon="-2.50998">
        <ele>0.8</ele>
        <time>2020-10-07T13:53:46Z</time>
      </trkpt>
      <trkpt lat="47.63407" lon="-2.5101">
        <ele>1</ele>
        <time>2020-10-07T13:53:50Z</time>
      </trkpt>
      <trkpt lat="47.63407" lon="-2.51025">
        <ele>0.8</ele>
        <time>2020-10-07T13:53:54Z</time>
      </trkpt>
      <trkpt lat="47.63409" lon="-2.51039">
        <ele>1.6</ele>
        <time>2020-10-07T13:53:58Z</time>
      </trkpt>
      <trkpt lat="47.63416" lon="-2.51054">
        <ele>2</ele>
        <time>2020-10-07T13:54:02Z</time>
      </trkpt>
      <trkpt lat="47.63422" lon="-2.51063">
        <ele>2.2</ele>
        <time>2020-10-07T13:54:06Z</time>
      </trkpt>
      <trkpt lat="47.63424" lon="-2.5107">
        <ele>2.4</ele>
        <time>2020-10-07T13:54:10Z</time>
      </trkpt>
      <trkpt lat="47.63428" lon="-2.51077">
        <ele>2.4</ele>
        <time>2020-10-07T13:54:14Z</time>
      </trkpt>
      <trkpt lat="47.63433" lon="-2.51087">
        <ele>2.4</ele>
        <time>2020-10-07T13:54:18Z</time>
      </trkpt>
      <trkpt lat="47.63439" lon="-2.51096">
        <ele>3.2</ele>
        <time>2020-10-07T13:54:22Z</time>
      </trkpt>
      <trkpt lat="47.63446" lon="-2.5111">
        <ele>3.8</ele>
        <time>2020-10-07T13:54:26Z</time>
      </trkpt>
      <trkpt lat="47.63449" lon="-2.51119">
        <ele>4</ele>
        <time>2020-10-07T13:54:30Z</time>
      </trkpt>
      <trkpt lat="47.63454" lon="-2.51134">
        <ele>4.6</ele>
        <time>2020-10-07T13:54:34Z</time>
      </trkpt>
      <trkpt lat="47.63458" lon="-2.51143">
        <ele>4.2</ele>
        <time>2020-10-07T13:54:38Z</time>
      </trkpt>
      <trkpt lat="47.63463" lon="-2.51156">
        <ele>5.8</ele>
        <time>2020-10-07T13:54:42Z</time>
      </trkpt>
      <trkpt lat="47.63468" lon="-2.51169">
        <ele>5.6</ele>
        <time>2020-10-07T13:54:46Z</time>
      </trkpt>
      <trkpt lat="47.63476" lon="-2.51185">
        <ele>5.8</ele>
        <time>2020-10-07T13:54:50Z</time>
      </trkpt>
      <trkpt lat="47.63472" lon="-2.51192">
        <ele>6.6</ele>
        <time>2020-10-07T13:54:54Z</time>
      </trkpt>
      <trkpt lat="47.63468" lon="-2.51198">
        <ele>6.4</ele>
        <time>2020-10-07T13:54:58Z</time>
      </trkpt>
      <trkpt lat="47.63461" lon="-2.51211">
        <ele>6.2</ele>
        <time>2020-10-07T13:55:02Z</time>
      </trkpt>
      <trkpt lat="47.63454" lon="-2.51224">
        <ele>7</ele>
        <time>2020-10-07T13:55:06Z</time>
      </trkpt>
      <trkpt lat="47.6345" lon="-2.51236">
        <ele>8.2</ele>
        <time>2020-10-07T13:55:10Z</time>
      </trkpt>
      <trkpt lat="47.63448" lon="-2.51245">
        <ele>8.4</ele>
        <time>2020-10-07T13:55:14Z</time>
      </trkpt>
      <trkpt lat="47.63448" lon="-2.5126">
        <ele>8.8</ele>
        <time>2020-10-07T13:55:18Z</time>
      </trkpt>
      <trkpt lat="47.63448" lon="-2.5127">
        <ele>9.2</ele>
        <time>2020-10-07T13:55:22Z</time>
      </trkpt>
      <trkpt lat="47.63445" lon="-2.51283">
        <ele>10.4</ele>
        <time>2020-10-07T13:55:26Z</time>
      </trkpt>
      <trkpt lat="47.63443" lon="-2.51292">
        <ele>10.8</ele>
        <time>2020-10-07T13:55:30Z</time>
      </trkpt>
      <trkpt lat="47.63441" lon="-2.51304">
        <ele>11.2</ele>
        <time>2020-10-07T13:55:42Z</time>
      </trkpt>
      <trkpt lat="47.6344" lon="-2.51315">
        <ele>10.8</ele>
        <time>2020-10-07T13:56:02Z</time>
      </trkpt>
      <trkpt lat="47.63445" lon="-2.51327">
        <ele>11.4</ele>
        <time>2020-10-07T13:56:58Z</time>
      </trkpt>
      <trkpt lat="47.63444" lon="-2.51323">
        <ele>11.2</ele>
        <time>2020-10-07T13:57:02Z</time>
      </trkpt>
      <trkpt lat="47.63444" lon="-2.51321">
        <ele>11</ele>
        <time>2020-10-07T13:57:06Z</time>
      </trkpt>
      <trkpt lat="47.63446" lon="-2.51318">
        <ele>11</ele>
        <time>2020-10-07T13:57:10Z</time>
      </trkpt>
      <trkpt lat="47.63448" lon="-2.51312">
        <ele>9.8</ele>
        <time>2020-10-07T13:57:14Z</time>
      </trkpt>
      <trkpt lat="47.63449" lon="-2.51309">
        <ele>10</ele>
        <time>2020-10-07T13:57:18Z</time>
      </trkpt>
      <trkpt lat="47.6345" lon="-2.51302">
        <ele>9</ele>
        <time>2020-10-07T13:57:22Z</time>
      </trkpt>
      <trkpt lat="47.6345" lon="-2.51296">
        <ele>9</ele>
        <time>2020-10-07T13:57:26Z</time>
      </trkpt>
      <trkpt lat="47.63449" lon="-2.51288">
        <ele>8.6</ele>
        <time>2020-10-07T13:57:34Z</time>
      </trkpt>
      <trkpt lat="47.63448" lon="-2.51275">
        <ele>8</ele>
        <time>2020-10-07T13:57:38Z</time>
      </trkpt>
      <trkpt lat="47.63449" lon="-2.51262">
        <ele>6.8</ele>
        <time>2020-10-07T13:57:42Z</time>
      </trkpt>
      <trkpt lat="47.6345" lon="-2.51249">
        <ele>7</ele>
        <time>2020-10-07T13:57:46Z</time>
      </trkpt>
      <trkpt lat="47.63449" lon="-2.51241">
        <ele>6.8</ele>
        <time>2020-10-07T13:57:50Z</time>
      </trkpt>
      <trkpt lat="47.63444" lon="-2.51238">
        <ele>7.8</ele>
        <time>2020-10-07T13:57:54Z</time>
      </trkpt>
      <trkpt lat="47.6344" lon="-2.51239">
        <ele>7.8</ele>
        <time>2020-10-07T13:57:58Z</time>
      </trkpt>
      <trkpt lat="47.63437" lon="-2.51238">
        <ele>8.8</ele>
        <time>2020-10-07T13:58:06Z</time>
      </trkpt>
      <trkpt lat="47.63436" lon="-2.51236">
        <ele>9</ele>
        <time>2020-10-07T13:58:18Z</time>
      </trkpt>
      <trkpt lat="47.63432" lon="-2.51238">
        <ele>9.8</ele>
        <time>2020-10-07T13:58:22Z</time>
      </trkpt>
      <trkpt lat="47.63429" lon="-2.5124">
        <ele>10.6</ele>
        <time>2020-10-07T13:58:26Z</time>
      </trkpt>
      <trkpt lat="47.63426" lon="-2.51244">
        <ele>11.6</ele>
        <time>2020-10-07T13:58:30Z</time>
      </trkpt>
      <trkpt lat="47.63426" lon="-2.51248">
        <ele>11</ele>
        <time>2020-10-07T13:58:34Z</time>
      </trkpt>
      <trkpt lat="47.63426" lon="-2.51254">
        <ele>11.4</ele>
        <time>2020-10-07T13:58:38Z</time>
      </trkpt>
      <trkpt lat="47.63423" lon="-2.5126">
        <ele>11.2</ele>
        <time>2020-10-07T13:58:42Z</time>
      </trkpt>
      <trkpt lat="47.63421" lon="-2.51266">
        <ele>11.6</ele>
        <time>2020-10-07T13:58:46Z</time>
      </trkpt>
      <trkpt lat="47.6342" lon="-2.51273">
        <ele>11.6</ele>
        <time>2020-10-07T13:58:50Z</time>
      </trkpt>
      <trkpt lat="47.63421" lon="-2.5128">
        <ele>11.8</ele>
        <time>2020-10-07T13:58:54Z</time>
      </trkpt>
      <trkpt lat="47.63419" lon="-2.51286">
        <ele>12.2</ele>
        <time>2020-10-07T13:58:58Z</time>
      </trkpt>
      <trkpt lat="47.63418" lon="-2.51293">
        <ele>12.4</ele>
        <time>2020-10-07T13:59:02Z</time>
      </trkpt>
      <trkpt lat="47.63417" lon="-2.513">
        <ele>12.6</ele>
        <time>2020-10-07T13:59:06Z</time>
      </trkpt>
      <trkpt lat="47.63416" lon="-2.51306">
        <ele>13</ele>
        <time>2020-10-07T13:59:10Z</time>
      </trkpt>
      <trkpt lat="47.63414" lon="-2.51312">
        <ele>12.6</ele>
        <time>2020-10-07T13:59:14Z</time>
      </trkpt>
      <trkpt lat="47.63412" lon="-2.51318">
        <ele>13.6</ele>
        <time>2020-10-07T13:59:18Z</time>
      </trkpt>
      <trkpt lat="47.6341" lon="-2.51324">
        <ele>13.8</ele>
        <time>2020-10-07T13:59:22Z</time>
      </trkpt>
      <trkpt lat="47.63407" lon="-2.51328">
        <ele>13.8</ele>
        <time>2020-10-07T13:59:26Z</time>
      </trkpt>
      <trkpt lat="47.63403" lon="-2.51332">
        <ele>14</ele>
        <time>2020-10-07T13:59:30Z</time>
      </trkpt>
      <trkpt lat="47.63399" lon="-2.51335">
        <ele>14.6</ele>
        <time>2020-10-07T13:59:34Z</time>
      </trkpt>
      <trkpt lat="47.63394" lon="-2.51338">
        <ele>14.8</ele>
        <time>2020-10-07T13:59:38Z</time>
      </trkpt>
      <trkpt lat="47.6339" lon="-2.51341">
        <ele>14.4</ele>
        <time>2020-10-07T13:59:42Z</time>
      </trkpt>
      <trkpt lat="47.63385" lon="-2.51343">
        <ele>14.8</ele>
        <time>2020-10-07T13:59:46Z</time>
      </trkpt>
      <trkpt lat="47.6338" lon="-2.51345">
        <ele>14.8</ele>
        <time>2020-10-07T13:59:50Z</time>
      </trkpt>
      <trkpt lat="47.63376" lon="-2.51349">
        <ele>14.4</ele>
        <time>2020-10-07T13:59:54Z</time>
      </trkpt>
      <trkpt lat="47.63373" lon="-2.51354">
        <ele>14.6</ele>
        <time>2020-10-07T13:59:58Z</time>
      </trkpt>
      <trkpt lat="47.63371" lon="-2.5136">
        <ele>14.8</ele>
        <time>2020-10-07T14:00:02Z</time>
      </trkpt>
      <trkpt lat="47.6337" lon="-2.51366">
        <ele>15</ele>
        <time>2020-10-07T14:00:06Z</time>
      </trkpt>
      <trkpt lat="47.63368" lon="-2.51372">
        <ele>15.2</ele>
        <time>2020-10-07T14:00:10Z</time>
      </trkpt>
      <trkpt lat="47.63366" lon="-2.51377">
        <ele>15.8</ele>
        <time>2020-10-07T14:00:22Z</time>
      </trkpt>
      <trkpt lat="47.63368" lon="-2.51383">
        <ele>15.6</ele>
        <time>2020-10-07T14:00:26Z</time>
      </trkpt>
      <trkpt lat="47.63369" lon="-2.51394">
        <ele>16</ele>
        <time>2020-10-07T14:00:30Z</time>
      </trkpt>
      <trkpt lat="47.63369" lon="-2.51402">
        <ele>16.2</ele>
        <time>2020-10-07T14:00:34Z</time>
      </trkpt>
      <trkpt lat="47.63372" lon="-2.51417">
        <ele>16.4</ele>
        <time>2020-10-07T14:00:38Z</time>
      </trkpt>
      <trkpt lat="47.63372" lon="-2.51431">
        <ele>17</ele>
        <time>2020-10-07T14:00:42Z</time>
      </trkpt>
      <trkpt lat="47.63374" lon="-2.51446">
        <ele>17.6</ele>
        <time>2020-10-07T14:00:46Z</time>
      </trkpt>
      <trkpt lat="47.63376" lon="-2.51463">
        <ele>17.8</ele>
        <time>2020-10-07T14:00:50Z</time>
      </trkpt>
      <trkpt lat="47.63378" lon="-2.5148">
        <ele>17.8</ele>
        <time>2020-10-07T14:00:54Z</time>
      </trkpt>
      <trkpt lat="47.63381" lon="-2.51499">
        <ele>18.4</ele>
        <time>2020-10-07T14:00:58Z</time>
      </trkpt>
      <trkpt lat="47.63385" lon="-2.51515">
        <ele>18.8</ele>
        <time>2020-10-07T14:01:02Z</time>
      </trkpt>
      <trkpt lat="47.63387" lon="-2.51532">
        <ele>18.8</ele>
        <time>2020-10-07T14:01:06Z</time>
      </trkpt>
      <trkpt lat="47.6339" lon="-2.51551">
        <ele>19.4</ele>
        <time>2020-10-07T14:01:10Z</time>
      </trkpt>
      <trkpt lat="47.63391" lon="-2.51569">
        <ele>19.2</ele>
        <time>2020-10-07T14:01:14Z</time>
      </trkpt>
      <trkpt lat="47.63393" lon="-2.51587">
        <ele>19</ele>
        <time>2020-10-07T14:01:18Z</time>
      </trkpt>
      <trkpt lat="47.63393" lon="-2.51602">
        <ele>19.8</ele>
        <time>2020-10-07T14:01:22Z</time>
      </trkpt>
      <trkpt lat="47.63387" lon="-2.51608">
        <ele>19</ele>
        <time>2020-10-07T14:01:26Z</time>
      </trkpt>
      <trkpt lat="47.63373" lon="-2.51605">
        <ele>19.2</ele>
        <time>2020-10-07T14:01:30Z</time>
      </trkpt>
      <trkpt lat="47.63358" lon="-2.51601">
        <ele>18.4</ele>
        <time>2020-10-07T14:01:34Z</time>
      </trkpt>
      <trkpt lat="47.63342" lon="-2.51596">
        <ele>18.8</ele>
        <time>2020-10-07T14:01:38Z</time>
      </trkpt>
      <trkpt lat="47.63325" lon="-2.51589">
        <ele>18.6</ele>
        <time>2020-10-07T14:01:42Z</time>
      </trkpt>
      <trkpt lat="47.6331" lon="-2.51583">
        <ele>18</ele>
        <time>2020-10-07T14:01:46Z</time>
      </trkpt>
      <trkpt lat="47.63294" lon="-2.51578">
        <ele>18.6</ele>
        <time>2020-10-07T14:01:50Z</time>
      </trkpt>
      <trkpt lat="47.63277" lon="-2.51573">
        <ele>18.2</ele>
        <time>2020-10-07T14:01:54Z</time>
      </trkpt>
      <trkpt lat="47.63258" lon="-2.51569">
        <ele>18.2</ele>
        <time>2020-10-07T14:01:58Z</time>
      </trkpt>
      <trkpt lat="47.6324" lon="-2.51563">
        <ele>17.8</ele>
        <time>2020-10-07T14:02:02Z</time>
      </trkpt>
      <trkpt lat="47.6322" lon="-2.51555">
        <ele>19.2</ele>
        <time>2020-10-07T14:02:06Z</time>
      </trkpt>
      <trkpt lat="47.63202" lon="-2.51544">
        <ele>19</ele>
        <time>2020-10-07T14:02:10Z</time>
      </trkpt>
      <trkpt lat="47.63184" lon="-2.5153">
        <ele>18.6</ele>
        <time>2020-10-07T14:02:14Z</time>
      </trkpt>
      <trkpt lat="47.63165" lon="-2.51517">
        <ele>19.2</ele>
        <time>2020-10-07T14:02:18Z</time>
      </trkpt>
      <trkpt lat="47.63147" lon="-2.51505">
        <ele>19.2</ele>
        <time>2020-10-07T14:02:22Z</time>
      </trkpt>
      <trkpt lat="47.6313" lon="-2.51492">
        <ele>19.4</ele>
        <time>2020-10-07T14:02:26Z</time>
      </trkpt>
      <trkpt lat="47.63111" lon="-2.51479">
        <ele>18.8</ele>
        <time>2020-10-07T14:02:30Z</time>
      </trkpt>
      <trkpt lat="47.63091" lon="-2.51464">
        <ele>17.6</ele>
        <time>2020-10-07T14:02:34Z</time>
      </trkpt>
      <trkpt lat="47.63071" lon="-2.51449">
        <ele>18.8</ele>
        <time>2020-10-07T14:02:38Z</time>
      </trkpt>
      <trkpt lat="47.63051" lon="-2.51436">
        <ele>16.8</ele>
        <time>2020-10-07T14:02:42Z</time>
      </trkpt>
      <trkpt lat="47.6303" lon="-2.51424">
        <ele>16.8</ele>
        <time>2020-10-07T14:02:46Z</time>
      </trkpt>
      <trkpt lat="47.63008" lon="-2.51417">
        <ele>16.4</ele>
        <time>2020-10-07T14:02:50Z</time>
      </trkpt>
      <trkpt lat="47.62988" lon="-2.51413">
        <ele>17.2</ele>
        <time>2020-10-07T14:02:54Z</time>
      </trkpt>
      <trkpt lat="47.62969" lon="-2.51409">
        <ele>16.2</ele>
        <time>2020-10-07T14:02:58Z</time>
      </trkpt>
      <trkpt lat="47.62962" lon="-2.5142">
        <ele>15.6</ele>
        <time>2020-10-07T14:03:02Z</time>
      </trkpt>
      <trkpt lat="47.62967" lon="-2.51444">
        <ele>16.8</ele>
        <time>2020-10-07T14:03:06Z</time>
      </trkpt>
      <trkpt lat="47.62971" lon="-2.51467">
        <ele>16.6</ele>
        <time>2020-10-07T14:03:10Z</time>
      </trkpt>
      <trkpt lat="47.62975" lon="-2.51488">
        <ele>16.8</ele>
        <time>2020-10-07T14:03:14Z</time>
      </trkpt>
      <trkpt lat="47.62978" lon="-2.5151">
        <ele>17.8</ele>
        <time>2020-10-07T14:03:18Z</time>
      </trkpt>
      <trkpt lat="47.62982" lon="-2.51531">
        <ele>18.2</ele>
        <time>2020-10-07T14:03:22Z</time>
      </trkpt>
      <trkpt lat="47.62987" lon="-2.51551">
        <ele>17.8</ele>
        <time>2020-10-07T14:03:26Z</time>
      </trkpt>
      <trkpt lat="47.62991" lon="-2.51571">
        <ele>17</ele>
        <time>2020-10-07T14:03:30Z</time>
      </trkpt>
      <trkpt lat="47.62999" lon="-2.51589">
        <ele>17</ele>
        <time>2020-10-07T14:03:34Z</time>
      </trkpt>
      <trkpt lat="47.63004" lon="-2.5161">
        <ele>16</ele>
        <time>2020-10-07T14:03:38Z</time>
      </trkpt>
      <trkpt lat="47.63007" lon="-2.51634">
        <ele>15.8</ele>
        <time>2020-10-07T14:03:42Z</time>
      </trkpt>
      <trkpt lat="47.63008" lon="-2.51655">
        <ele>16.2</ele>
        <time>2020-10-07T14:03:46Z</time>
      </trkpt>
      <trkpt lat="47.63012" lon="-2.51671">
        <ele>15.8</ele>
        <time>2020-10-07T14:03:50Z</time>
      </trkpt>
      <trkpt lat="47.63022" lon="-2.5169">
        <ele>16.2</ele>
        <time>2020-10-07T14:03:54Z</time>
      </trkpt>
      <trkpt lat="47.63027" lon="-2.51709">
        <ele>18.6</ele>
        <time>2020-10-07T14:04:06Z</time>
      </trkpt>
      <trkpt lat="47.63033" lon="-2.51719">
        <ele>15.4</ele>
        <time>2020-10-07T14:04:22Z</time>
      </trkpt>
      <trkpt lat="47.63036" lon="-2.51726">
        <ele>15.2</ele>
        <time>2020-10-07T14:04:30Z</time>
      </trkpt>
      <trkpt lat="47.63042" lon="-2.51735">
        <ele>14.2</ele>
        <time>2020-10-07T14:04:34Z</time>
      </trkpt>
      <trkpt lat="47.63047" lon="-2.51746">
        <ele>13.8</ele>
        <time>2020-10-07T14:04:38Z</time>
      </trkpt>
      <trkpt lat="47.63052" lon="-2.51762">
        <ele>13.2</ele>
        <time>2020-10-07T14:04:42Z</time>
      </trkpt>
      <trkpt lat="47.63055" lon="-2.51778">
        <ele>13.6</ele>
        <time>2020-10-07T14:04:46Z</time>
      </trkpt>
      <trkpt lat="47.63053" lon="-2.51794">
        <ele>12.2</ele>
        <time>2020-10-07T14:04:50Z</time>
      </trkpt>
      <trkpt lat="47.63054" lon="-2.51815">
        <ele>11.4</ele>
        <time>2020-10-07T14:04:54Z</time>
      </trkpt>
      <trkpt lat="47.63058" lon="-2.51843">
        <ele>11</ele>
        <time>2020-10-07T14:04:58Z</time>
      </trkpt>
      <trkpt lat="47.6306" lon="-2.51864">
        <ele>11.2</ele>
        <time>2020-10-07T14:05:02Z</time>
      </trkpt>
      <trkpt lat="47.6306" lon="-2.51885">
        <ele>12.4</ele>
        <time>2020-10-07T14:05:06Z</time>
      </trkpt>
      <trkpt lat="47.63062" lon="-2.51905">
        <ele>13.6</ele>
        <time>2020-10-07T14:05:10Z</time>
      </trkpt>
      <trkpt lat="47.63065" lon="-2.51917">
        <ele>14.4</ele>
        <time>2020-10-07T14:05:14Z</time>
      </trkpt>
      <trkpt lat="47.63066" lon="-2.5193">
        <ele>14</ele>
        <time>2020-10-07T14:05:18Z</time>
      </trkpt>
      <trkpt lat="47.6307" lon="-2.51946">
        <ele>14.8</ele>
        <time>2020-10-07T14:05:22Z</time>
      </trkpt>
      <trkpt lat="47.63075" lon="-2.51962">
        <ele>15</ele>
        <time>2020-10-07T14:05:26Z</time>
      </trkpt>
      <trkpt lat="47.63079" lon="-2.51979">
        <ele>14.4</ele>
        <time>2020-10-07T14:05:30Z</time>
      </trkpt>
      <trkpt lat="47.63083" lon="-2.51997">
        <ele>15.2</ele>
        <time>2020-10-07T14:05:34Z</time>
      </trkpt>
      <trkpt lat="47.63087" lon="-2.52014">
        <ele>15.8</ele>
        <time>2020-10-07T14:05:38Z</time>
      </trkpt>
      <trkpt lat="47.63093" lon="-2.5203">
        <ele>17</ele>
        <time>2020-10-07T14:05:42Z</time>
      </trkpt>
      <trkpt lat="47.63097" lon="-2.52048">
        <ele>17.4</ele>
        <time>2020-10-07T14:05:46Z</time>
      </trkpt>
      <trkpt lat="47.63104" lon="-2.52065">
        <ele>18.4</ele>
        <time>2020-10-07T14:05:50Z</time>
      </trkpt>
      <trkpt lat="47.6311" lon="-2.52082">
        <ele>18.8</ele>
        <time>2020-10-07T14:05:54Z</time>
      </trkpt>
      <trkpt lat="47.63116" lon="-2.52099">
        <ele>18.2</ele>
        <time>2020-10-07T14:05:58Z</time>
      </trkpt>
      <trkpt lat="47.63122" lon="-2.52114">
        <ele>19.2</ele>
        <time>2020-10-07T14:06:02Z</time>
      </trkpt>
      <trkpt lat="47.63128" lon="-2.5213">
        <ele>20.2</ele>
        <time>2020-10-07T14:06:06Z</time>
      </trkpt>
      <trkpt lat="47.63133" lon="-2.52144">
        <ele>20.2</ele>
        <time>2020-10-07T14:06:10Z</time>
      </trkpt>
      <trkpt lat="47.6314" lon="-2.52159">
        <ele>20.2</ele>
        <time>2020-10-07T14:06:14Z</time>
      </trkpt>
      <trkpt lat="47.63145" lon="-2.52171">
        <ele>21</ele>
        <time>2020-10-07T14:06:18Z</time>
      </trkpt>
      <trkpt lat="47.6315" lon="-2.52183">
        <ele>21.2</ele>
        <time>2020-10-07T14:06:22Z</time>
      </trkpt>
      <trkpt lat="47.63151" lon="-2.52186">
        <ele>20.8</ele>
        <time>2020-10-07T14:06:26Z</time>
      </trkpt>
      <trkpt lat="47.6315" lon="-2.52189">
        <ele>21</ele>
        <time>2020-10-07T14:06:30Z</time>
      </trkpt>
      <trkpt lat="47.63151" lon="-2.52196">
        <ele>20.4</ele>
        <time>2020-10-07T14:06:34Z</time>
      </trkpt>
      <trkpt lat="47.63156" lon="-2.52213">
        <ele>20.6</ele>
        <time>2020-10-07T14:06:38Z</time>
      </trkpt>
      <trkpt lat="47.63163" lon="-2.52236">
        <ele>19.6</ele>
        <time>2020-10-07T14:06:42Z</time>
      </trkpt>
      <trkpt lat="47.63172" lon="-2.52258">
        <ele>19.2</ele>
        <time>2020-10-07T14:06:46Z</time>
      </trkpt>
      <trkpt lat="47.63179" lon="-2.5228">
        <ele>18.8</ele>
        <time>2020-10-07T14:06:50Z</time>
      </trkpt>
      <trkpt lat="47.63179" lon="-2.523">
        <ele>18.8</ele>
        <time>2020-10-07T14:06:54Z</time>
      </trkpt>
      <trkpt lat="47.63172" lon="-2.52319">
        <ele>17.4</ele>
        <time>2020-10-07T14:06:58Z</time>
      </trkpt>
      <trkpt lat="47.6316" lon="-2.52326">
        <ele>17.8</ele>
        <time>2020-10-07T14:07:02Z</time>
      </trkpt>
      <trkpt lat="47.63152" lon="-2.52338">
        <ele>17.2</ele>
        <time>2020-10-07T14:07:06Z</time>
      </trkpt>
      <trkpt lat="47.63153" lon="-2.52347">
        <ele>16.8</ele>
        <time>2020-10-07T14:07:10Z</time>
      </trkpt>
      <trkpt lat="47.63154" lon="-2.52367">
        <ele>16.4</ele>
        <time>2020-10-07T14:07:14Z</time>
      </trkpt>
      <trkpt lat="47.63152" lon="-2.52386">
        <ele>16.4</ele>
        <time>2020-10-07T14:07:18Z</time>
      </trkpt>
      <trkpt lat="47.63139" lon="-2.52392">
        <ele>15.6</ele>
        <time>2020-10-07T14:07:22Z</time>
      </trkpt>
      <trkpt lat="47.63122" lon="-2.524">
        <ele>15.8</ele>
        <time>2020-10-07T14:07:26Z</time>
      </trkpt>
      <trkpt lat="47.63107" lon="-2.52409">
        <ele>15.8</ele>
        <time>2020-10-07T14:07:30Z</time>
      </trkpt>
      <trkpt lat="47.63095" lon="-2.52421">
        <ele>16</ele>
        <time>2020-10-07T14:07:34Z</time>
      </trkpt>
      <trkpt lat="47.63091" lon="-2.52431">
        <ele>17.4</ele>
        <time>2020-10-07T14:07:38Z</time>
      </trkpt>
      <trkpt lat="47.6309" lon="-2.52442">
        <ele>16.8</ele>
        <time>2020-10-07T14:07:42Z</time>
      </trkpt>
      <trkpt lat="47.63089" lon="-2.52455">
        <ele>15.6</ele>
        <time>2020-10-07T14:07:46Z</time>
      </trkpt>
      <trkpt lat="47.63089" lon="-2.52474">
        <ele>13.2</ele>
        <time>2020-10-07T14:07:50Z</time>
      </trkpt>
      <trkpt lat="47.63082" lon="-2.52495">
        <ele>11.8</ele>
        <time>2020-10-07T14:07:54Z</time>
      </trkpt>
      <trkpt lat="47.63068" lon="-2.52509">
        <ele>11.2</ele>
        <time>2020-10-07T14:07:58Z</time>
      </trkpt>
      <trkpt lat="47.63051" lon="-2.52518">
        <ele>10.4</ele>
        <time>2020-10-07T14:08:02Z</time>
      </trkpt>
      <trkpt lat="47.63039" lon="-2.52517">
        <ele>11</ele>
        <time>2020-10-07T14:08:06Z</time>
      </trkpt>
      <trkpt lat="47.63028" lon="-2.52512">
        <ele>10.2</ele>
        <time>2020-10-07T14:08:10Z</time>
      </trkpt>
      <trkpt lat="47.63015" lon="-2.52508">
        <ele>9.8</ele>
        <time>2020-10-07T14:08:14Z</time>
      </trkpt>
      <trkpt lat="47.63006" lon="-2.52492">
        <ele>9.2</ele>
        <time>2020-10-07T14:08:18Z</time>
      </trkpt>
      <trkpt lat="47.62993" lon="-2.52485">
        <ele>9.8</ele>
        <time>2020-10-07T14:08:22Z</time>
      </trkpt>
      <trkpt lat="47.62977" lon="-2.52493">
        <ele>9.8</ele>
        <time>2020-10-07T14:08:26Z</time>
      </trkpt>
      <trkpt lat="47.62961" lon="-2.52504">
        <ele>8.4</ele>
        <time>2020-10-07T14:08:30Z</time>
      </trkpt>
      <trkpt lat="47.62947" lon="-2.52517">
        <ele>7.8</ele>
        <time>2020-10-07T14:08:34Z</time>
      </trkpt>
      <trkpt lat="47.62932" lon="-2.52527">
        <ele>8.8</ele>
        <time>2020-10-07T14:08:38Z</time>
      </trkpt>
      <trkpt lat="47.62916" lon="-2.52535">
        <ele>7.8</ele>
        <time>2020-10-07T14:08:42Z</time>
      </trkpt>
      <trkpt lat="47.62901" lon="-2.52548">
        <ele>7.2</ele>
        <time>2020-10-07T14:08:46Z</time>
      </trkpt>
      <trkpt lat="47.62886" lon="-2.52557">
        <ele>7.4</ele>
        <time>2020-10-07T14:08:50Z</time>
      </trkpt>
      <trkpt lat="47.62873" lon="-2.52564">
        <ele>7.6</ele>
        <time>2020-10-07T14:08:54Z</time>
      </trkpt>
      <trkpt lat="47.62868" lon="-2.52553">
        <ele>8.4</ele>
        <time>2020-10-07T14:08:58Z</time>
      </trkpt>
      <trkpt lat="47.62864" lon="-2.52533">
        <ele>8</ele>
        <time>2020-10-07T14:09:02Z</time>
      </trkpt>
      <trkpt lat="47.62859" lon="-2.52508">
        <ele>6</ele>
        <time>2020-10-07T14:09:06Z</time>
      </trkpt>
      <trkpt lat="47.62854" lon="-2.52499">
        <ele>6.2</ele>
        <time>2020-10-07T14:09:10Z</time>
      </trkpt>
      <trkpt lat="47.62847" lon="-2.52499">
        <ele>5.8</ele>
        <time>2020-10-07T14:09:14Z</time>
      </trkpt>
      <trkpt lat="47.62841" lon="-2.525">
        <ele>6.4</ele>
        <time>2020-10-07T14:09:18Z</time>
      </trkpt>
      <trkpt lat="47.62832" lon="-2.52503">
        <ele>6.8</ele>
        <time>2020-10-07T14:09:22Z</time>
      </trkpt>
      <trkpt lat="47.62823" lon="-2.52504">
        <ele>5</ele>
        <time>2020-10-07T14:09:26Z</time>
      </trkpt>
      <trkpt lat="47.62814" lon="-2.5251">
        <ele>5.4</ele>
        <time>2020-10-07T14:09:30Z</time>
      </trkpt>
      <trkpt lat="47.62805" lon="-2.52514">
        <ele>5</ele>
        <time>2020-10-07T14:09:34Z</time>
      </trkpt>
      <trkpt lat="47.62796" lon="-2.52517">
        <ele>4.6</ele>
        <time>2020-10-07T14:09:38Z</time>
      </trkpt>
      <trkpt lat="47.62786" lon="-2.52521">
        <ele>3.6</ele>
        <time>2020-10-07T14:09:42Z</time>
      </trkpt>
      <trkpt lat="47.62776" lon="-2.52521">
        <ele>3.6</ele>
        <time>2020-10-07T14:09:46Z</time>
      </trkpt>
      <trkpt lat="47.62763" lon="-2.52521">
        <ele>3</ele>
        <time>2020-10-07T14:09:50Z</time>
      </trkpt>
      <trkpt lat="47.62748" lon="-2.52521">
        <ele>1.4</ele>
        <time>2020-10-07T14:09:54Z</time>
      </trkpt>
      <trkpt lat="47.62735" lon="-2.52521">
        <ele>1</ele>
        <time>2020-10-07T14:09:58Z</time>
      </trkpt>
      <trkpt lat="47.62718" lon="-2.52515">
        <ele>1</ele>
        <time>2020-10-07T14:10:02Z</time>
      </trkpt>
      <trkpt lat="47.62703" lon="-2.52513">
        <ele>0.8</ele>
        <time>2020-10-07T14:10:06Z</time>
      </trkpt>
      <trkpt lat="47.62692" lon="-2.52515">
        <ele>1.4</ele>
        <time>2020-10-07T14:10:10Z</time>
      </trkpt>
      <trkpt lat="47.6269" lon="-2.52517">
        <ele>1.6</ele>
        <time>2020-10-07T14:10:14Z</time>
      </trkpt>
      <trkpt lat="47.62686" lon="-2.52519">
        <ele>1.4</ele>
        <time>2020-10-07T14:10:22Z</time>
      </trkpt>
      <trkpt lat="47.62683" lon="-2.52519">
        <ele>1.2</ele>
        <time>2020-10-07T14:10:30Z</time>
      </trkpt>
      <trkpt lat="47.62678" lon="-2.52518">
        <ele>0.8</ele>
        <time>2020-10-07T14:10:42Z</time>
      </trkpt>
      <trkpt lat="47.62675" lon="-2.52519">
        <ele>0.6</ele>
        <time>2020-10-07T14:10:50Z</time>
      </trkpt>
      <trkpt lat="47.62668" lon="-2.52523">
        <ele>-0.2</ele>
        <time>2020-10-07T14:10:54Z</time>
      </trkpt>
      <trkpt lat="47.62658" lon="-2.52531">
        <ele>-1.2</ele>
        <time>2020-10-07T14:10:58Z</time>
      </trkpt>
      <trkpt lat="47.62645" lon="-2.52538">
        <ele>-2.2</ele>
        <time>2020-10-07T14:11:02Z</time>
      </trkpt>
      <trkpt lat="47.62633" lon="-2.52547">
        <ele>-2.2</ele>
        <time>2020-10-07T14:11:06Z</time>
      </trkpt>
      <trkpt lat="47.6262" lon="-2.52561">
        <ele>-3.4</ele>
        <time>2020-10-07T14:11:10Z</time>
      </trkpt>
      <trkpt lat="47.62607" lon="-2.52577">
        <ele>-2.6</ele>
        <time>2020-10-07T14:11:14Z</time>
      </trkpt>
      <trkpt lat="47.62594" lon="-2.5259">
        <ele>-3.6</ele>
        <time>2020-10-07T14:11:18Z</time>
      </trkpt>
      <trkpt lat="47.62581" lon="-2.52611">
        <ele>-3.6</ele>
        <time>2020-10-07T14:11:22Z</time>
      </trkpt>
      <trkpt lat="47.62567" lon="-2.5263">
        <ele>-3.6</ele>
        <time>2020-10-07T14:11:26Z</time>
      </trkpt>
      <trkpt lat="47.62553" lon="-2.52649">
        <ele>-4</ele>
        <time>2020-10-07T14:11:30Z</time>
      </trkpt>
      <trkpt lat="47.62538" lon="-2.52669">
        <ele>-3.6</ele>
        <time>2020-10-07T14:11:34Z</time>
      </trkpt>
      <trkpt lat="47.62525" lon="-2.52686">
        <ele>-5</ele>
        <time>2020-10-07T14:11:38Z</time>
      </trkpt>
      <trkpt lat="47.62514" lon="-2.52702">
        <ele>-6</ele>
        <time>2020-10-07T14:11:42Z</time>
      </trkpt>
      <trkpt lat="47.62506" lon="-2.52719">
        <ele>-6.4</ele>
        <time>2020-10-07T14:11:46Z</time>
      </trkpt>
      <trkpt lat="47.62497" lon="-2.5274">
        <ele>-7.4</ele>
        <time>2020-10-07T14:11:50Z</time>
      </trkpt>
      <trkpt lat="47.62488" lon="-2.52755">
        <ele>-7</ele>
        <time>2020-10-07T14:11:54Z</time>
      </trkpt>
      <trkpt lat="47.62476" lon="-2.52774">
        <ele>-6.4</ele>
        <time>2020-10-07T14:12:10Z</time>
      </trkpt>
      <trkpt lat="47.6247" lon="-2.5278">
        <ele>-6</ele>
        <time>2020-10-07T14:12:22Z</time>
      </trkpt>
      <trkpt lat="47.62469" lon="-2.52781">
        <ele>-6.4</ele>
        <time>2020-10-07T14:12:26Z</time>
      </trkpt>
      <trkpt lat="47.62467" lon="-2.52792">
        <ele>-7.6</ele>
        <time>2020-10-07T14:12:30Z</time>
      </trkpt>
      <trkpt lat="47.62467" lon="-2.5281">
        <ele>-7</ele>
        <time>2020-10-07T14:12:34Z</time>
      </trkpt>
      <trkpt lat="47.62462" lon="-2.52822">
        <ele>-6.4</ele>
        <time>2020-10-07T14:12:38Z</time>
      </trkpt>
      <trkpt lat="47.62461" lon="-2.52836">
        <ele>-6</ele>
        <time>2020-10-07T14:12:42Z</time>
      </trkpt>
      <trkpt lat="47.62453" lon="-2.52844">
        <ele>-7.2</ele>
        <time>2020-10-07T14:12:46Z</time>
      </trkpt>
      <trkpt lat="47.62441" lon="-2.5285">
        <ele>-8.4</ele>
        <time>2020-10-07T14:12:50Z</time>
      </trkpt>
      <trkpt lat="47.62427" lon="-2.5286">
        <ele>-9</ele>
        <time>2020-10-07T14:12:54Z</time>
      </trkpt>
      <trkpt lat="47.62411" lon="-2.52867">
        <ele>-9.2</ele>
        <time>2020-10-07T14:12:58Z</time>
      </trkpt>
      <trkpt lat="47.62399" lon="-2.52874">
        <ele>-9.4</ele>
        <time>2020-10-07T14:13:02Z</time>
      </trkpt>
      <trkpt lat="47.62381" lon="-2.52889">
        <ele>-10.4</ele>
        <time>2020-10-07T14:13:06Z</time>
      </trkpt>
      <trkpt lat="47.62367" lon="-2.52903">
        <ele>-10.8</ele>
        <time>2020-10-07T14:13:10Z</time>
      </trkpt>
      <trkpt lat="47.62352" lon="-2.52919">
        <ele>-10.6</ele>
        <time>2020-10-07T14:13:14Z</time>
      </trkpt>
      <trkpt lat="47.6234" lon="-2.52932">
        <ele>-10.6</ele>
        <time>2020-10-07T14:13:18Z</time>
      </trkpt>
      <trkpt lat="47.62336" lon="-2.52936">
        <ele>-10.4</ele>
        <time>2020-10-07T14:13:22Z</time>
      </trkpt>
      <trkpt lat="47.62332" lon="-2.52938">
        <ele>-10</ele>
        <time>2020-10-07T14:13:26Z</time>
      </trkpt>
      <trkpt lat="47.62328" lon="-2.52941">
        <ele>-10.8</ele>
        <time>2020-10-07T14:13:34Z</time>
      </trkpt>
      <trkpt lat="47.62318" lon="-2.52947">
        <ele>-12.8</ele>
        <time>2020-10-07T14:13:38Z</time>
      </trkpt>
      <trkpt lat="47.62305" lon="-2.52961">
        <ele>-13</ele>
        <time>2020-10-07T14:13:42Z</time>
      </trkpt>
      <trkpt lat="47.62291" lon="-2.52976">
        <ele>-12.6</ele>
        <time>2020-10-07T14:13:46Z</time>
      </trkpt>
      <trkpt lat="47.62277" lon="-2.52992">
        <ele>-13.2</ele>
        <time>2020-10-07T14:13:50Z</time>
      </trkpt>
      <trkpt lat="47.62263" lon="-2.53005">
        <ele>-14.8</ele>
        <time>2020-10-07T14:13:54Z</time>
      </trkpt>
      <trkpt lat="47.62249" lon="-2.53017">
        <ele>-14.6</ele>
        <time>2020-10-07T14:13:58Z</time>
      </trkpt>
      <trkpt lat="47.62234" lon="-2.53035">
        <ele>-14.2</ele>
        <time>2020-10-07T14:14:02Z</time>
      </trkpt>
      <trkpt lat="47.62221" lon="-2.53052">
        <ele>-14.2</ele>
        <time>2020-10-07T14:14:06Z</time>
      </trkpt>
      <trkpt lat="47.62208" lon="-2.53069">
        <ele>-14.8</ele>
        <time>2020-10-07T14:14:10Z</time>
      </trkpt>
      <trkpt lat="47.62197" lon="-2.53085">
        <ele>-14.6</ele>
        <time>2020-10-07T14:14:14Z</time>
      </trkpt>
      <trkpt lat="47.62188" lon="-2.531">
        <ele>-13.2</ele>
        <time>2020-10-07T14:14:18Z</time>
      </trkpt>
      <trkpt lat="47.62189" lon="-2.53113">
        <ele>-13.4</ele>
        <time>2020-10-07T14:14:22Z</time>
      </trkpt>
      <trkpt lat="47.62204" lon="-2.53124">
        <ele>-13.2</ele>
        <time>2020-10-07T14:14:26Z</time>
      </trkpt>
      <trkpt lat="47.62222" lon="-2.53132">
        <ele>-12.8</ele>
        <time>2020-10-07T14:14:30Z</time>
      </trkpt>
      <trkpt lat="47.62237" lon="-2.53135">
        <ele>-11.8</ele>
        <time>2020-10-07T14:14:34Z</time>
      </trkpt>
      <trkpt lat="47.62251" lon="-2.53136">
        <ele>-10.6</ele>
        <time>2020-10-07T14:14:38Z</time>
      </trkpt>
      <trkpt lat="47.62265" lon="-2.53137">
        <ele>-11</ele>
        <time>2020-10-07T14:14:42Z</time>
      </trkpt>
      <trkpt lat="47.62279" lon="-2.53139">
        <ele>-10.6</ele>
        <time>2020-10-07T14:14:46Z</time>
      </trkpt>
      <trkpt lat="47.62293" lon="-2.53141">
        <ele>-10.6</ele>
        <time>2020-10-07T14:14:50Z</time>
      </trkpt>
      <trkpt lat="47.62309" lon="-2.53142">
        <ele>-10</ele>
        <time>2020-10-07T14:14:54Z</time>
      </trkpt>
      <trkpt lat="47.62323" lon="-2.53145">
        <ele>-10</ele>
        <time>2020-10-07T14:14:58Z</time>
      </trkpt>
      <trkpt lat="47.62339" lon="-2.53146">
        <ele>-9</ele>
        <time>2020-10-07T14:15:02Z</time>
      </trkpt>
      <trkpt lat="47.62354" lon="-2.53147">
        <ele>-9</ele>
        <time>2020-10-07T14:15:06Z</time>
      </trkpt>
      <trkpt lat="47.62369" lon="-2.5315">
        <ele>-9.2</ele>
        <time>2020-10-07T14:15:10Z</time>
      </trkpt>
      <trkpt lat="47.62381" lon="-2.53161">
        <ele>-9.4</ele>
        <time>2020-10-07T14:15:14Z</time>
      </trkpt>
      <trkpt lat="47.62384" lon="-2.53181">
        <ele>-8.4</ele>
        <time>2020-10-07T14:15:18Z</time>
      </trkpt>
      <trkpt lat="47.62384" lon="-2.53202">
        <ele>-7.2</ele>
        <time>2020-10-07T14:15:22Z</time>
      </trkpt>
      <trkpt lat="47.62384" lon="-2.53222">
        <ele>-7.6</ele>
        <time>2020-10-07T14:15:26Z</time>
      </trkpt>
      <trkpt lat="47.62384" lon="-2.53241">
        <ele>-6.4</ele>
        <time>2020-10-07T14:15:30Z</time>
      </trkpt>
      <trkpt lat="47.62385" lon="-2.53262">
        <ele>-5.6</ele>
        <time>2020-10-07T14:15:34Z</time>
      </trkpt>
      <trkpt lat="47.62385" lon="-2.53284">
        <ele>-5.2</ele>
        <time>2020-10-07T14:15:38Z</time>
      </trkpt>
      <trkpt lat="47.62384" lon="-2.53307">
        <ele>-5.8</ele>
        <time>2020-10-07T14:15:42Z</time>
      </trkpt>
      <trkpt lat="47.62384" lon="-2.53329">
        <ele>-5.8</ele>
        <time>2020-10-07T14:15:46Z</time>
      </trkpt>
      <trkpt lat="47.62383" lon="-2.53349">
        <ele>-6.2</ele>
        <time>2020-10-07T14:15:50Z</time>
      </trkpt>
      <trkpt lat="47.62383" lon="-2.53371">
        <ele>-6.4</ele>
        <time>2020-10-07T14:15:54Z</time>
      </trkpt>
      <trkpt lat="47.62383" lon="-2.53394">
        <ele>-5.8</ele>
        <time>2020-10-07T14:15:58Z</time>
      </trkpt>
      <trkpt lat="47.62384" lon="-2.53417">
        <ele>-6</ele>
        <time>2020-10-07T14:16:02Z</time>
      </trkpt>
      <trkpt lat="47.62388" lon="-2.53437">
        <ele>-5.6</ele>
        <time>2020-10-07T14:16:06Z</time>
      </trkpt>
      <trkpt lat="47.62388" lon="-2.53442">
        <ele>-5.6</ele>
        <time>2020-10-07T14:16:10Z</time>
      </trkpt>
      <trkpt lat="47.62383" lon="-2.53454">
        <ele>-6.6</ele>
        <time>2020-10-07T14:16:14Z</time>
      </trkpt>
      <trkpt lat="47.62368" lon="-2.53462">
        <ele>-7</ele>
        <time>2020-10-07T14:16:18Z</time>
      </trkpt>
      <trkpt lat="47.62348" lon="-2.53468">
        <ele>-8.6</ele>
        <time>2020-10-07T14:16:22Z</time>
      </trkpt>
      <trkpt lat="47.62323" lon="-2.53475">
        <ele>-11</ele>
        <time>2020-10-07T14:16:26Z</time>
      </trkpt>
      <trkpt lat="47.62296" lon="-2.53482">
        <ele>-12.2</ele>
        <time>2020-10-07T14:16:30Z</time>
      </trkpt>
      <trkpt lat="47.62265" lon="-2.53488">
        <ele>-16.2</ele>
        <time>2020-10-07T14:16:34Z</time>
      </trkpt>
      <trkpt lat="47.62235" lon="-2.53495">
        <ele>-17.2</ele>
        <time>2020-10-07T14:16:38Z</time>
      </trkpt>
      <trkpt lat="47.62205" lon="-2.53501">
        <ele>-18.2</ele>
        <time>2020-10-07T14:16:42Z</time>
      </trkpt>
      <trkpt lat="47.62176" lon="-2.53508">
        <ele>-19.2</ele>
        <time>2020-10-07T14:16:46Z</time>
      </trkpt>
      <trkpt lat="47.62148" lon="-2.53513">
        <ele>-18</ele>
        <time>2020-10-07T14:16:50Z</time>
      </trkpt>
      <trkpt lat="47.6212" lon="-2.5352">
        <ele>-19.6</ele>
        <time>2020-10-07T14:16:54Z</time>
      </trkpt>
      <trkpt lat="47.62093" lon="-2.53526">
        <ele>-19.4</ele>
        <time>2020-10-07T14:16:58Z</time>
      </trkpt>
      <trkpt lat="47.62069" lon="-2.53531">
        <ele>-18.6</ele>
        <time>2020-10-07T14:17:02Z</time>
      </trkpt>
      <trkpt lat="47.62044" lon="-2.53535">
        <ele>-19.4</ele>
        <time>2020-10-07T14:17:06Z</time>
      </trkpt>
      <trkpt lat="47.62018" lon="-2.53542">
        <ele>-18.4</ele>
        <time>2020-10-07T14:17:10Z</time>
      </trkpt>
      <trkpt lat="47.61993" lon="-2.53548">
        <ele>-16.6</ele>
        <time>2020-10-07T14:17:14Z</time>
      </trkpt>
      <trkpt lat="47.61971" lon="-2.53553">
        <ele>-18</ele>
        <time>2020-10-07T14:17:18Z</time>
      </trkpt>
      <trkpt lat="47.6195" lon="-2.53556">
        <ele>-17.2</ele>
        <time>2020-10-07T14:17:22Z</time>
      </trkpt>
      <trkpt lat="47.61931" lon="-2.53561">
        <ele>-15.2</ele>
        <time>2020-10-07T14:17:26Z</time>
      </trkpt>
      <trkpt lat="47.61912" lon="-2.53569">
        <ele>-16.2</ele>
        <time>2020-10-07T14:17:30Z</time>
      </trkpt>
      <trkpt lat="47.61902" lon="-2.53593">
        <ele>-14.8</ele>
        <time>2020-10-07T14:17:34Z</time>
      </trkpt>
      <trkpt lat="47.61896" lon="-2.53619">
        <ele>-13.8</ele>
        <time>2020-10-07T14:17:38Z</time>
      </trkpt>
      <trkpt lat="47.61886" lon="-2.53637">
        <ele>-13.2</ele>
        <time>2020-10-07T14:17:42Z</time>
      </trkpt>
      <trkpt lat="47.61875" lon="-2.53654">
        <ele>-11.6</ele>
        <time>2020-10-07T14:17:46Z</time>
      </trkpt>
      <trkpt lat="47.61865" lon="-2.53668">
        <ele>-11</ele>
        <time>2020-10-07T14:17:50Z</time>
      </trkpt>
      <trkpt lat="47.61854" lon="-2.53682">
        <ele>-10.6</ele>
        <time>2020-10-07T14:17:54Z</time>
      </trkpt>
      <trkpt lat="47.61843" lon="-2.53698">
        <ele>-11.8</ele>
        <time>2020-10-07T14:17:58Z</time>
      </trkpt>
      <trkpt lat="47.61832" lon="-2.53711">
        <ele>-13</ele>
        <time>2020-10-07T14:18:02Z</time>
      </trkpt>
      <trkpt lat="47.61821" lon="-2.53727">
        <ele>-13</ele>
        <time>2020-10-07T14:18:06Z</time>
      </trkpt>
      <trkpt lat="47.61809" lon="-2.53752">
        <ele>-13</ele>
        <time>2020-10-07T14:18:10Z</time>
      </trkpt>
      <trkpt lat="47.61807" lon="-2.53784">
        <ele>-14.4</ele>
        <time>2020-10-07T14:18:14Z</time>
      </trkpt>
      <trkpt lat="47.6181" lon="-2.53816">
        <ele>-12.4</ele>
        <time>2020-10-07T14:18:18Z</time>
      </trkpt>
      <trkpt lat="47.61813" lon="-2.53842">
        <ele>-10.2</ele>
        <time>2020-10-07T14:18:22Z</time>
      </trkpt>
      <trkpt lat="47.61815" lon="-2.53864">
        <ele>-9</ele>
        <time>2020-10-07T14:18:26Z</time>
      </trkpt>
      <trkpt lat="47.61819" lon="-2.53884">
        <ele>-9.6</ele>
        <time>2020-10-07T14:18:30Z</time>
      </trkpt>
      <trkpt lat="47.61822" lon="-2.53905">
        <ele>-7.6</ele>
        <time>2020-10-07T14:18:34Z</time>
      </trkpt>
      <trkpt lat="47.61825" lon="-2.53926">
        <ele>-7.8</ele>
        <time>2020-10-07T14:18:38Z</time>
      </trkpt>
      <trkpt lat="47.61825" lon="-2.53946">
        <ele>-6.4</ele>
        <time>2020-10-07T14:18:42Z</time>
      </trkpt>
      <trkpt lat="47.61824" lon="-2.53964">
        <ele>-6.6</ele>
        <time>2020-10-07T14:18:46Z</time>
      </trkpt>
      <trkpt lat="47.61821" lon="-2.53981">
        <ele>-7</ele>
        <time>2020-10-07T14:18:50Z</time>
      </trkpt>
      <trkpt lat="47.61816" lon="-2.54001">
        <ele>-7.2</ele>
        <time>2020-10-07T14:18:54Z</time>
      </trkpt>
      <trkpt lat="47.61812" lon="-2.54024">
        <ele>-8</ele>
        <time>2020-10-07T14:18:58Z</time>
      </trkpt>
      <trkpt lat="47.61807" lon="-2.5405">
        <ele>-9</ele>
        <time>2020-10-07T14:19:02Z</time>
      </trkpt>
      <trkpt lat="47.61804" lon="-2.54074">
        <ele>-9.8</ele>
        <time>2020-10-07T14:19:06Z</time>
      </trkpt>
      <trkpt lat="47.61802" lon="-2.54101">
        <ele>-10.2</ele>
        <time>2020-10-07T14:19:10Z</time>
      </trkpt>
      <trkpt lat="47.61799" lon="-2.54121">
        <ele>-13.4</ele>
        <time>2020-10-07T14:19:14Z</time>
      </trkpt>
      <trkpt lat="47.61791" lon="-2.54139">
        <ele>-14.2</ele>
        <time>2020-10-07T14:19:18Z</time>
      </trkpt>
      <trkpt lat="47.61787" lon="-2.54151">
        <ele>-14.2</ele>
        <time>2020-10-07T14:19:42Z</time>
      </trkpt>
      <trkpt lat="47.61788" lon="-2.54149">
        <ele>-12.8</ele>
        <time>2020-10-07T14:19:46Z</time>
      </trkpt>
      <trkpt lat="47.61791" lon="-2.54144">
        <ele>-11.4</ele>
        <time>2020-10-07T14:19:50Z</time>
      </trkpt>
      <trkpt lat="47.61793" lon="-2.54139">
        <ele>-10.8</ele>
        <time>2020-10-07T14:19:54Z</time>
      </trkpt>
      <trkpt lat="47.61795" lon="-2.54135">
        <ele>-10.2</ele>
        <time>2020-10-07T14:20:02Z</time>
      </trkpt>
      <trkpt lat="47.61799" lon="-2.54123">
        <ele>-9.8</ele>
        <time>2020-10-07T14:20:06Z</time>
      </trkpt>
      <trkpt lat="47.61801" lon="-2.54109">
        <ele>-9</ele>
        <time>2020-10-07T14:20:10Z</time>
      </trkpt>
      <trkpt lat="47.61804" lon="-2.54091">
        <ele>-8.4</ele>
        <time>2020-10-07T14:20:14Z</time>
      </trkpt>
      <trkpt lat="47.61807" lon="-2.54071">
        <ele>-7.4</ele>
        <time>2020-10-07T14:20:18Z</time>
      </trkpt>
      <trkpt lat="47.6181" lon="-2.54055">
        <ele>-7.4</ele>
        <time>2020-10-07T14:20:22Z</time>
      </trkpt>
      <trkpt lat="47.61812" lon="-2.54037">
        <ele>-7.2</ele>
        <time>2020-10-07T14:20:26Z</time>
      </trkpt>
      <trkpt lat="47.61814" lon="-2.54022">
        <ele>-6.4</ele>
        <time>2020-10-07T14:20:30Z</time>
      </trkpt>
      <trkpt lat="47.61818" lon="-2.54008">
        <ele>-6.4</ele>
        <time>2020-10-07T14:20:34Z</time>
      </trkpt>
      <trkpt lat="47.6182" lon="-2.54">
        <ele>-6.4</ele>
        <time>2020-10-07T14:20:38Z</time>
      </trkpt>
      <trkpt lat="47.61822" lon="-2.53998">
        <ele>-6.4</ele>
        <time>2020-10-07T14:20:54Z</time>
      </trkpt>
      <trkpt lat="47.61819" lon="-2.54001">
        <ele>-7</ele>
        <time>2020-10-07T14:20:58Z</time>
      </trkpt>
      <trkpt lat="47.61815" lon="-2.54016">
        <ele>-8</ele>
        <time>2020-10-07T14:21:02Z</time>
      </trkpt>
      <trkpt lat="47.6181" lon="-2.54037">
        <ele>-8.6</ele>
        <time>2020-10-07T14:21:06Z</time>
      </trkpt>
      <trkpt lat="47.61807" lon="-2.54058">
        <ele>-8.6</ele>
        <time>2020-10-07T14:21:10Z</time>
      </trkpt>
      <trkpt lat="47.61805" lon="-2.54073">
        <ele>-8.2</ele>
        <time>2020-10-07T14:21:14Z</time>
      </trkpt>
      <trkpt lat="47.61805" lon="-2.54081">
        <ele>-8</ele>
        <time>2020-10-07T14:22:02Z</time>
      </trkpt>
      <trkpt lat="47.61807" lon="-2.54082">
        <ele>-8</ele>
        <time>2020-10-07T14:22:06Z</time>
      </trkpt>
      <trkpt lat="47.61808" lon="-2.54082">
        <ele>-8</ele>
        <time>2020-10-07T14:22:10Z</time>
      </trkpt>
      <trkpt lat="47.61808" lon="-2.54082">
        <ele>-7.6</ele>
        <time>2020-10-07T14:22:14Z</time>
      </trkpt>
      <trkpt lat="47.6181" lon="-2.54083">
        <ele>-7.6</ele>
        <time>2020-10-07T14:22:18Z</time>
      </trkpt>
      <trkpt lat="47.61812" lon="-2.54083">
        <ele>-7.8</ele>
        <time>2020-10-07T14:22:22Z</time>
      </trkpt>
      <trkpt lat="47.61815" lon="-2.5408">
        <ele>-7.2</ele>
        <time>2020-10-07T14:22:26Z</time>
      </trkpt>
      <trkpt lat="47.61817" lon="-2.54077">
        <ele>-5.8</ele>
        <time>2020-10-07T14:22:34Z</time>
      </trkpt>
      <trkpt lat="47.61821" lon="-2.54076">
        <ele>-5.8</ele>
        <time>2020-10-07T14:22:38Z</time>
      </trkpt>
      <trkpt lat="47.61823" lon="-2.54078">
        <ele>-5.6</ele>
        <time>2020-10-07T14:22:42Z</time>
      </trkpt>
      <trkpt lat="47.61822" lon="-2.54082">
        <ele>-5.8</ele>
        <time>2020-10-07T14:22:46Z</time>
      </trkpt>
      <trkpt lat="47.61822" lon="-2.54086">
        <ele>-6</ele>
        <time>2020-10-07T14:22:50Z</time>
      </trkpt>
      <trkpt lat="47.61821" lon="-2.54092">
        <ele>-6.4</ele>
        <time>2020-10-07T14:22:58Z</time>
      </trkpt>
      <trkpt lat="47.61821" lon="-2.54099">
        <ele>-7</ele>
        <time>2020-10-07T14:23:02Z</time>
      </trkpt>
      <trkpt lat="47.6182" lon="-2.54109">
        <ele>-6.6</ele>
        <time>2020-10-07T14:23:06Z</time>
      </trkpt>
      <trkpt lat="47.61821" lon="-2.54115">
        <ele>-6.8</ele>
        <time>2020-10-07T14:23:10Z</time>
      </trkpt>
      <trkpt lat="47.61823" lon="-2.54121">
        <ele>-7.4</ele>
        <time>2020-10-07T14:23:14Z</time>
      </trkpt>
      <trkpt lat="47.61824" lon="-2.54125">
        <ele>-7.2</ele>
        <time>2020-10-07T14:23:18Z</time>
      </trkpt>
      <trkpt lat="47.61826" lon="-2.5413">
        <ele>-7.6</ele>
        <time>2020-10-07T14:23:22Z</time>
      </trkpt>
      <trkpt lat="47.61829" lon="-2.54137">
        <ele>-8.4</ele>
        <time>2020-10-07T14:23:26Z</time>
      </trkpt>
      <trkpt lat="47.61829" lon="-2.54144">
        <ele>-7.4</ele>
        <time>2020-10-07T14:23:30Z</time>
      </trkpt>
      <trkpt lat="47.61831" lon="-2.54149">
        <ele>-8</ele>
        <time>2020-10-07T14:23:34Z</time>
      </trkpt>
      <trkpt lat="47.61835" lon="-2.54154">
        <ele>-7.6</ele>
        <time>2020-10-07T14:23:38Z</time>
      </trkpt>
      <trkpt lat="47.61838" lon="-2.54159">
        <ele>-7.4</ele>
        <time>2020-10-07T14:23:42Z</time>
      </trkpt>
      <trkpt lat="47.6184" lon="-2.54165">
        <ele>-7.8</ele>
        <time>2020-10-07T14:23:46Z</time>
      </trkpt>
      <trkpt lat="47.61842" lon="-2.54172">
        <ele>-7.8</ele>
        <time>2020-10-07T14:23:50Z</time>
      </trkpt>
      <trkpt lat="47.61846" lon="-2.54178">
        <ele>-7.2</ele>
        <time>2020-10-07T14:23:54Z</time>
      </trkpt>
      <trkpt lat="47.6185" lon="-2.54181">
        <ele>-7.8</ele>
        <time>2020-10-07T14:23:58Z</time>
      </trkpt>
      <trkpt lat="47.61851" lon="-2.54187">
        <ele>-7.8</ele>
        <time>2020-10-07T14:24:02Z</time>
      </trkpt>
      <trkpt lat="47.61851" lon="-2.54192">
        <ele>-7.8</ele>
        <time>2020-10-07T14:24:10Z</time>
      </trkpt>
      <trkpt lat="47.61852" lon="-2.54193">
        <ele>-8.6</ele>
        <time>2020-10-07T14:24:14Z</time>
      </trkpt>
      <trkpt lat="47.61855" lon="-2.54196">
        <ele>-8.8</ele>
        <time>2020-10-07T14:24:18Z</time>
      </trkpt>
      <trkpt lat="47.61856" lon="-2.54201">
        <ele>-9</ele>
        <time>2020-10-07T14:24:26Z</time>
      </trkpt>
      <trkpt lat="47.61861" lon="-2.54209">
        <ele>-9</ele>
        <time>2020-10-07T14:24:58Z</time>
      </trkpt>
      <trkpt lat="47.61862" lon="-2.5421">
        <ele>-8.8</ele>
        <time>2020-10-07T14:25:02Z</time>
      </trkpt>
      <trkpt lat="47.61864" lon="-2.54214">
        <ele>-9.2</ele>
        <time>2020-10-07T14:25:06Z</time>
      </trkpt>
      <trkpt lat="47.61867" lon="-2.54216">
        <ele>-8.8</ele>
        <time>2020-10-07T14:25:10Z</time>
      </trkpt>
      <trkpt lat="47.6187" lon="-2.54217">
        <ele>-8</ele>
        <time>2020-10-07T14:25:14Z</time>
      </trkpt>
      <trkpt lat="47.61874" lon="-2.5422">
        <ele>-8.4</ele>
        <time>2020-10-07T14:25:30Z</time>
      </trkpt>
      <trkpt lat="47.61875" lon="-2.54223">
        <ele>-8.6</ele>
        <time>2020-10-07T14:25:50Z</time>
      </trkpt>
      <trkpt lat="47.61875" lon="-2.54225">
        <ele>-9.2</ele>
        <time>2020-10-07T14:26:02Z</time>
      </trkpt>
      <trkpt lat="47.61877" lon="-2.54229">
        <ele>-9.8</ele>
        <time>2020-10-07T14:26:06Z</time>
      </trkpt>
      <trkpt lat="47.61879" lon="-2.54237">
        <ele>-10.4</ele>
        <time>2020-10-07T14:26:22Z</time>
      </trkpt>
      <trkpt lat="47.61881" lon="-2.54239">
        <ele>-10.4</ele>
        <time>2020-10-07T14:26:26Z</time>
      </trkpt>
      <trkpt lat="47.61884" lon="-2.54242">
        <ele>-10.4</ele>
        <time>2020-10-07T14:26:30Z</time>
      </trkpt>
      <trkpt lat="47.61883" lon="-2.54245">
        <ele>-11.6</ele>
        <time>2020-10-07T14:26:34Z</time>
      </trkpt>
      <trkpt lat="47.61883" lon="-2.54247">
        <ele>-11.6</ele>
        <time>2020-10-07T14:26:38Z</time>
      </trkpt>
      <trkpt lat="47.61882" lon="-2.5425">
        <ele>-12.4</ele>
        <time>2020-10-07T14:26:42Z</time>
      </trkpt>
      <trkpt lat="47.61883" lon="-2.54256">
        <ele>-13.8</ele>
        <time>2020-10-07T14:26:50Z</time>
      </trkpt>
      <trkpt lat="47.61884" lon="-2.5426">
        <ele>-13.6</ele>
        <time>2020-10-07T14:26:54Z</time>
      </trkpt>
      <trkpt lat="47.61884" lon="-2.54266">
        <ele>-14.4</ele>
        <time>2020-10-07T14:27:02Z</time>
      </trkpt>
      <trkpt lat="47.61883" lon="-2.5427">
        <ele>-14.4</ele>
        <time>2020-10-07T14:27:10Z</time>
      </trkpt>
      <trkpt lat="47.61881" lon="-2.54273">
        <ele>-16</ele>
        <time>2020-10-07T14:27:18Z</time>
      </trkpt>
      <trkpt lat="47.6188" lon="-2.54275">
        <ele>-15.8</ele>
        <time>2020-10-07T14:27:22Z</time>
      </trkpt>
      <trkpt lat="47.61882" lon="-2.54278">
        <ele>-16</ele>
        <time>2020-10-07T14:27:26Z</time>
      </trkpt>
      <trkpt lat="47.61884" lon="-2.54279">
        <ele>-16.2</ele>
        <time>2020-10-07T14:27:34Z</time>
      </trkpt>
      <trkpt lat="47.61886" lon="-2.5428">
        <ele>-16.6</ele>
        <time>2020-10-07T14:27:38Z</time>
      </trkpt>
      <trkpt lat="47.61888" lon="-2.54285">
        <ele>-16.8</ele>
        <time>2020-10-07T14:27:42Z</time>
      </trkpt>
      <trkpt lat="47.6189" lon="-2.54287">
        <ele>-16.8</ele>
        <time>2020-10-07T14:27:54Z</time>
      </trkpt>
      <trkpt lat="47.61895" lon="-2.54292">
        <ele>-16.6</ele>
        <time>2020-10-07T14:27:58Z</time>
      </trkpt>
      <trkpt lat="47.61899" lon="-2.54295">
        <ele>-16.8</ele>
        <time>2020-10-07T14:28:02Z</time>
      </trkpt>
      <trkpt lat="47.61905" lon="-2.54304">
        <ele>-16.8</ele>
        <time>2020-10-07T14:28:06Z</time>
      </trkpt>
      <trkpt lat="47.6191" lon="-2.54313">
        <ele>-16.8</ele>
        <time>2020-10-07T14:28:10Z</time>
      </trkpt>
      <trkpt lat="47.6192" lon="-2.54322">
        <ele>-17.4</ele>
        <time>2020-10-07T14:28:14Z</time>
      </trkpt>
      <trkpt lat="47.6193" lon="-2.54331">
        <ele>-17.6</ele>
        <time>2020-10-07T14:28:18Z</time>
      </trkpt>
      <trkpt lat="47.61937" lon="-2.54338">
        <ele>-18.4</ele>
        <time>2020-10-07T14:28:22Z</time>
      </trkpt>
      <trkpt lat="47.61945" lon="-2.54347">
        <ele>-18.8</ele>
        <time>2020-10-07T14:28:30Z</time>
      </trkpt>
      <trkpt lat="47.61951" lon="-2.54354">
        <ele>-19</ele>
        <time>2020-10-07T14:28:38Z</time>
      </trkpt>
      <trkpt lat="47.61955" lon="-2.54356">
        <ele>-19.4</ele>
        <time>2020-10-07T14:28:46Z</time>
      </trkpt>
      <trkpt lat="47.61958" lon="-2.5436">
        <ele>-19.6</ele>
        <time>2020-10-07T14:28:50Z</time>
      </trkpt>
      <trkpt lat="47.61961" lon="-2.54364">
        <ele>-19.6</ele>
        <time>2020-10-07T14:28:54Z</time>
      </trkpt>
      <trkpt lat="47.61967" lon="-2.54369">
        <ele>-21.2</ele>
        <time>2020-10-07T14:28:58Z</time>
      </trkpt>
      <trkpt lat="47.61974" lon="-2.54382">
        <ele>-22.2</ele>
        <time>2020-10-07T14:29:02Z</time>
      </trkpt>
      <trkpt lat="47.61974" lon="-2.544">
        <ele>-23</ele>
        <time>2020-10-07T14:29:06Z</time>
      </trkpt>
      <trkpt lat="47.61979" lon="-2.54419">
        <ele>-22.8</ele>
        <time>2020-10-07T14:29:10Z</time>
      </trkpt>
      <trkpt lat="47.61987" lon="-2.54434">
        <ele>-22.8</ele>
        <time>2020-10-07T14:29:14Z</time>
      </trkpt>
      <trkpt lat="47.61991" lon="-2.54447">
        <ele>-23</ele>
        <time>2020-10-07T14:29:18Z</time>
      </trkpt>
      <trkpt lat="47.61988" lon="-2.54458">
        <ele>-22.6</ele>
        <time>2020-10-07T14:29:22Z</time>
      </trkpt>
      <trkpt lat="47.61978" lon="-2.54469">
        <ele>-21.6</ele>
        <time>2020-10-07T14:29:26Z</time>
      </trkpt>
      <trkpt lat="47.61969" lon="-2.54479">
        <ele>-22.2</ele>
        <time>2020-10-07T14:29:30Z</time>
      </trkpt>
      <trkpt lat="47.61955" lon="-2.5449">
        <ele>-22.2</ele>
        <time>2020-10-07T14:29:34Z</time>
      </trkpt>
      <trkpt lat="47.61943" lon="-2.54503">
        <ele>-20.8</ele>
        <time>2020-10-07T14:29:38Z</time>
      </trkpt>
      <trkpt lat="47.61933" lon="-2.54513">
        <ele>-21.2</ele>
        <time>2020-10-07T14:29:42Z</time>
      </trkpt>
      <trkpt lat="47.61921" lon="-2.54525">
        <ele>-19.8</ele>
        <time>2020-10-07T14:29:46Z</time>
      </trkpt>
      <trkpt lat="47.6191" lon="-2.54538">
        <ele>-19.4</ele>
        <time>2020-10-07T14:29:50Z</time>
      </trkpt>
      <trkpt lat="47.61901" lon="-2.5455">
        <ele>-19.2</ele>
        <time>2020-10-07T14:29:54Z</time>
      </trkpt>
      <trkpt lat="47.61893" lon="-2.54559">
        <ele>-18.6</ele>
        <time>2020-10-07T14:29:58Z</time>
      </trkpt>
      <trkpt lat="47.61883" lon="-2.54568">
        <ele>-18.6</ele>
        <time>2020-10-07T14:30:02Z</time>
      </trkpt>
      <trkpt lat="47.61872" lon="-2.54578">
        <ele>-18</ele>
        <time>2020-10-07T14:30:06Z</time>
      </trkpt>
      <trkpt lat="47.61862" lon="-2.54587">
        <ele>-18.6</ele>
        <time>2020-10-07T14:30:10Z</time>
      </trkpt>
      <trkpt lat="47.61857" lon="-2.54603">
        <ele>-18</ele>
        <time>2020-10-07T14:30:14Z</time>
      </trkpt>
      <trkpt lat="47.61851" lon="-2.54616">
        <ele>-17.4</ele>
        <time>2020-10-07T14:30:18Z</time>
      </trkpt>
      <trkpt lat="47.61842" lon="-2.54624">
        <ele>-17</ele>
        <time>2020-10-07T14:30:22Z</time>
      </trkpt>
      <trkpt lat="47.61827" lon="-2.54627">
        <ele>-17</ele>
        <time>2020-10-07T14:30:26Z</time>
      </trkpt>
      <trkpt lat="47.61813" lon="-2.54625">
        <ele>-16.2</ele>
        <time>2020-10-07T14:30:30Z</time>
      </trkpt>
      <trkpt lat="47.61801" lon="-2.54617">
        <ele>-16.4</ele>
        <time>2020-10-07T14:30:34Z</time>
      </trkpt>
      <trkpt lat="47.61787" lon="-2.54607">
        <ele>-16.8</ele>
        <time>2020-10-07T14:30:38Z</time>
      </trkpt>
      <trkpt lat="47.61773" lon="-2.546">
        <ele>-17.2</ele>
        <time>2020-10-07T14:30:42Z</time>
      </trkpt>
      <trkpt lat="47.61754" lon="-2.54594">
        <ele>-18.4</ele>
        <time>2020-10-07T14:30:46Z</time>
      </trkpt>
      <trkpt lat="47.61735" lon="-2.54585">
        <ele>-18.2</ele>
        <time>2020-10-07T14:30:50Z</time>
      </trkpt>
      <trkpt lat="47.61717" lon="-2.54581">
        <ele>-19.4</ele>
        <time>2020-10-07T14:30:54Z</time>
      </trkpt>
      <trkpt lat="47.61699" lon="-2.54576">
        <ele>-18.6</ele>
        <time>2020-10-07T14:30:58Z</time>
      </trkpt>
      <trkpt lat="47.61681" lon="-2.54572">
        <ele>-19.2</ele>
        <time>2020-10-07T14:31:02Z</time>
      </trkpt>
      <trkpt lat="47.61664" lon="-2.54566">
        <ele>-18</ele>
        <time>2020-10-07T14:31:06Z</time>
      </trkpt>
      <trkpt lat="47.61646" lon="-2.54561">
        <ele>-17</ele>
        <time>2020-10-07T14:31:10Z</time>
      </trkpt>
      <trkpt lat="47.6163" lon="-2.54557">
        <ele>-16.2</ele>
        <time>2020-10-07T14:31:14Z</time>
      </trkpt>
      <trkpt lat="47.61617" lon="-2.54554">
        <ele>-14.8</ele>
        <time>2020-10-07T14:31:18Z</time>
      </trkpt>
      <trkpt lat="47.61604" lon="-2.54552">
        <ele>-15.2</ele>
        <time>2020-10-07T14:31:22Z</time>
      </trkpt>
      <trkpt lat="47.61591" lon="-2.54549">
        <ele>-13.8</ele>
        <time>2020-10-07T14:31:26Z</time>
      </trkpt>
      <trkpt lat="47.61578" lon="-2.54545">
        <ele>-13.4</ele>
        <time>2020-10-07T14:31:30Z</time>
      </trkpt>
      <trkpt lat="47.61566" lon="-2.54542">
        <ele>-12.6</ele>
        <time>2020-10-07T14:31:34Z</time>
      </trkpt>
      <trkpt lat="47.61553" lon="-2.5454">
        <ele>-12</ele>
        <time>2020-10-07T14:31:38Z</time>
      </trkpt>
      <trkpt lat="47.6154" lon="-2.54537">
        <ele>-11</ele>
        <time>2020-10-07T14:31:42Z</time>
      </trkpt>
      <trkpt lat="47.61528" lon="-2.54542">
        <ele>-11.2</ele>
        <time>2020-10-07T14:31:46Z</time>
      </trkpt>
      <trkpt lat="47.61522" lon="-2.54558">
        <ele>-11</ele>
        <time>2020-10-07T14:31:50Z</time>
      </trkpt>
      <trkpt lat="47.61521" lon="-2.54579">
        <ele>-11.2</ele>
        <time>2020-10-07T14:31:54Z</time>
      </trkpt>
      <trkpt lat="47.61519" lon="-2.546">
        <ele>-10</ele>
        <time>2020-10-07T14:31:58Z</time>
      </trkpt>
      <trkpt lat="47.61518" lon="-2.54621">
        <ele>-10.6</ele>
        <time>2020-10-07T14:32:02Z</time>
      </trkpt>
      <trkpt lat="47.61517" lon="-2.54644">
        <ele>-11</ele>
        <time>2020-10-07T14:32:06Z</time>
      </trkpt>
      <trkpt lat="47.61516" lon="-2.54666">
        <ele>-10.2</ele>
        <time>2020-10-07T14:32:10Z</time>
      </trkpt>
      <trkpt lat="47.61516" lon="-2.54689">
        <ele>-10.4</ele>
        <time>2020-10-07T14:32:14Z</time>
      </trkpt>
      <trkpt lat="47.61516" lon="-2.54713">
        <ele>-11.4</ele>
        <time>2020-10-07T14:32:18Z</time>
      </trkpt>
      <trkpt lat="47.61515" lon="-2.54739">
        <ele>-10.4</ele>
        <time>2020-10-07T14:32:22Z</time>
      </trkpt>
      <trkpt lat="47.61514" lon="-2.54766">
        <ele>-12.6</ele>
        <time>2020-10-07T14:32:26Z</time>
      </trkpt>
      <trkpt lat="47.61511" lon="-2.54792">
        <ele>-12.6</ele>
        <time>2020-10-07T14:32:30Z</time>
      </trkpt>
      <trkpt lat="47.61508" lon="-2.54816">
        <ele>-14</ele>
        <time>2020-10-07T14:32:34Z</time>
      </trkpt>
      <trkpt lat="47.61508" lon="-2.54844">
        <ele>-10.8</ele>
        <time>2020-10-07T14:32:38Z</time>
      </trkpt>
      <trkpt lat="47.61514" lon="-2.54873">
        <ele>-11.4</ele>
        <time>2020-10-07T14:32:42Z</time>
      </trkpt>
      <trkpt lat="47.61525" lon="-2.54898">
        <ele>-10.6</ele>
        <time>2020-10-07T14:32:46Z</time>
      </trkpt>
      <trkpt lat="47.61534" lon="-2.54921">
        <ele>-11.6</ele>
        <time>2020-10-07T14:32:50Z</time>
      </trkpt>
      <trkpt lat="47.61542" lon="-2.54945">
        <ele>-11.6</ele>
        <time>2020-10-07T14:32:54Z</time>
      </trkpt>
      <trkpt lat="47.61548" lon="-2.54969">
        <ele>-11.2</ele>
        <time>2020-10-07T14:32:58Z</time>
      </trkpt>
      <trkpt lat="47.61554" lon="-2.54993">
        <ele>-10</ele>
        <time>2020-10-07T14:33:02Z</time>
      </trkpt>
      <trkpt lat="47.61562" lon="-2.55013">
        <ele>-9.6</ele>
        <time>2020-10-07T14:33:06Z</time>
      </trkpt>
      <trkpt lat="47.61572" lon="-2.55033">
        <ele>-9.4</ele>
        <time>2020-10-07T14:33:10Z</time>
      </trkpt>
      <trkpt lat="47.61584" lon="-2.55053">
        <ele>-9.2</ele>
        <time>2020-10-07T14:33:14Z</time>
      </trkpt>
      <trkpt lat="47.61595" lon="-2.55073">
        <ele>-9.2</ele>
        <time>2020-10-07T14:33:18Z</time>
      </trkpt>
      <trkpt lat="47.61605" lon="-2.55095">
        <ele>-9.2</ele>
        <time>2020-10-07T14:33:22Z</time>
      </trkpt>
      <trkpt lat="47.61614" lon="-2.55119">
        <ele>-10.2</ele>
        <time>2020-10-07T14:33:26Z</time>
      </trkpt>
      <trkpt lat="47.61622" lon="-2.55144">
        <ele>-10.4</ele>
        <time>2020-10-07T14:33:30Z</time>
      </trkpt>
      <trkpt lat="47.6163" lon="-2.55168">
        <ele>-9</ele>
        <time>2020-10-07T14:33:34Z</time>
      </trkpt>
      <trkpt lat="47.6164" lon="-2.55192">
        <ele>-8.6</ele>
        <time>2020-10-07T14:33:38Z</time>
      </trkpt>
      <trkpt lat="47.61651" lon="-2.55216">
        <ele>-9.4</ele>
        <time>2020-10-07T14:33:42Z</time>
      </trkpt>
      <trkpt lat="47.61661" lon="-2.5524">
        <ele>-9.8</ele>
        <time>2020-10-07T14:33:46Z</time>
      </trkpt>
      <trkpt lat="47.61673" lon="-2.55262">
        <ele>-9.4</ele>
        <time>2020-10-07T14:33:50Z</time>
      </trkpt>
      <trkpt lat="47.61688" lon="-2.55279">
        <ele>-8.8</ele>
        <time>2020-10-07T14:33:54Z</time>
      </trkpt>
      <trkpt lat="47.61702" lon="-2.55291">
        <ele>-8.6</ele>
        <time>2020-10-07T14:33:58Z</time>
      </trkpt>
      <trkpt lat="47.61715" lon="-2.55301">
        <ele>-8.4</ele>
        <time>2020-10-07T14:34:02Z</time>
      </trkpt>
      <trkpt lat="47.61728" lon="-2.55308">
        <ele>-7.4</ele>
        <time>2020-10-07T14:34:06Z</time>
      </trkpt>
      <trkpt lat="47.61744" lon="-2.55319">
        <ele>-7.2</ele>
        <time>2020-10-07T14:34:10Z</time>
      </trkpt>
      <trkpt lat="47.61759" lon="-2.5533">
        <ele>-9</ele>
        <time>2020-10-07T14:34:14Z</time>
      </trkpt>
      <trkpt lat="47.61775" lon="-2.5534">
        <ele>-8.4</ele>
        <time>2020-10-07T14:34:18Z</time>
      </trkpt>
      <trkpt lat="47.61792" lon="-2.55351">
        <ele>-8.6</ele>
        <time>2020-10-07T14:34:22Z</time>
      </trkpt>
      <trkpt lat="47.61809" lon="-2.5536">
        <ele>-9.8</ele>
        <time>2020-10-07T14:34:26Z</time>
      </trkpt>
      <trkpt lat="47.61829" lon="-2.55374">
        <ele>-9.2</ele>
        <time>2020-10-07T14:34:30Z</time>
      </trkpt>
      <trkpt lat="47.61858" lon="-2.5539">
        <ele>-9</ele>
        <time>2020-10-07T14:34:34Z</time>
      </trkpt>
      <trkpt lat="47.61878" lon="-2.55403">
        <ele>-9.4</ele>
        <time>2020-10-07T14:34:38Z</time>
      </trkpt>
      <trkpt lat="47.61901" lon="-2.55418">
        <ele>-11.2</ele>
        <time>2020-10-07T14:34:42Z</time>
      </trkpt>
      <trkpt lat="47.61928" lon="-2.55435">
        <ele>-11.8</ele>
        <time>2020-10-07T14:34:46Z</time>
      </trkpt>
      <trkpt lat="47.61952" lon="-2.55448">
        <ele>-12.4</ele>
        <time>2020-10-07T14:34:50Z</time>
      </trkpt>
      <trkpt lat="47.61977" lon="-2.55463">
        <ele>-12</ele>
        <time>2020-10-07T14:34:54Z</time>
      </trkpt>
      <trkpt lat="47.62002" lon="-2.55476">
        <ele>-12.8</ele>
        <time>2020-10-07T14:34:58Z</time>
      </trkpt>
      <trkpt lat="47.62025" lon="-2.55484">
        <ele>-12.8</ele>
        <time>2020-10-07T14:35:02Z</time>
      </trkpt>
      <trkpt lat="47.62048" lon="-2.5549">
        <ele>-12.6</ele>
        <time>2020-10-07T14:35:06Z</time>
      </trkpt>
      <trkpt lat="47.62069" lon="-2.55496">
        <ele>-12</ele>
        <time>2020-10-07T14:35:10Z</time>
      </trkpt>
      <trkpt lat="47.62092" lon="-2.55502">
        <ele>-12.8</ele>
        <time>2020-10-07T14:35:14Z</time>
      </trkpt>
      <trkpt lat="47.62115" lon="-2.55509">
        <ele>-12.2</ele>
        <time>2020-10-07T14:35:18Z</time>
      </trkpt>
      <trkpt lat="47.62137" lon="-2.55519">
        <ele>-12.4</ele>
        <time>2020-10-07T14:35:22Z</time>
      </trkpt>
      <trkpt lat="47.62158" lon="-2.55532">
        <ele>-12.4</ele>
        <time>2020-10-07T14:35:26Z</time>
      </trkpt>
      <trkpt lat="47.6218" lon="-2.55544">
        <ele>-12</ele>
        <time>2020-10-07T14:35:30Z</time>
      </trkpt>
      <trkpt lat="47.62201" lon="-2.55557">
        <ele>-10.8</ele>
        <time>2020-10-07T14:35:34Z</time>
      </trkpt>
      <trkpt lat="47.62217" lon="-2.5557">
        <ele>-10.2</ele>
        <time>2020-10-07T14:35:38Z</time>
      </trkpt>
      <trkpt lat="47.62236" lon="-2.5558">
        <ele>-10.4</ele>
        <time>2020-10-07T14:35:42Z</time>
      </trkpt>
      <trkpt lat="47.62254" lon="-2.55591">
        <ele>-10</ele>
        <time>2020-10-07T14:35:46Z</time>
      </trkpt>
      <trkpt lat="47.62267" lon="-2.55612">
        <ele>-11.4</ele>
        <time>2020-10-07T14:35:50Z</time>
      </trkpt>
      <trkpt lat="47.6227" lon="-2.55641">
        <ele>-12.6</ele>
        <time>2020-10-07T14:35:54Z</time>
      </trkpt>
      <trkpt lat="47.62268" lon="-2.55674">
        <ele>-12.4</ele>
        <time>2020-10-07T14:35:58Z</time>
      </trkpt>
      <trkpt lat="47.62267" lon="-2.55709">
        <ele>-13.4</ele>
        <time>2020-10-07T14:36:02Z</time>
      </trkpt>
      <trkpt lat="47.62264" lon="-2.55746">
        <ele>-14.2</ele>
        <time>2020-10-07T14:36:06Z</time>
      </trkpt>
      <trkpt lat="47.62263" lon="-2.55782">
        <ele>-14.8</ele>
        <time>2020-10-07T14:36:10Z</time>
      </trkpt>
      <trkpt lat="47.62261" lon="-2.55817">
        <ele>-15.8</ele>
        <time>2020-10-07T14:36:14Z</time>
      </trkpt>
      <trkpt lat="47.62259" lon="-2.55851">
        <ele>-16.2</ele>
        <time>2020-10-07T14:36:18Z</time>
      </trkpt>
      <trkpt lat="47.62257" lon="-2.55886">
        <ele>-16</ele>
        <time>2020-10-07T14:36:22Z</time>
      </trkpt>
      <trkpt lat="47.62255" lon="-2.55923">
        <ele>-17</ele>
        <time>2020-10-07T14:36:26Z</time>
      </trkpt>
      <trkpt lat="47.62253" lon="-2.55959">
        <ele>-16.8</ele>
        <time>2020-10-07T14:36:30Z</time>
      </trkpt>
      <trkpt lat="47.62251" lon="-2.55995">
        <ele>-16.4</ele>
        <time>2020-10-07T14:36:34Z</time>
      </trkpt>
      <trkpt lat="47.62249" lon="-2.56032">
        <ele>-17.2</ele>
        <time>2020-10-07T14:36:38Z</time>
      </trkpt>
      <trkpt lat="47.62247" lon="-2.56068">
        <ele>-18.2</ele>
        <time>2020-10-07T14:36:42Z</time>
      </trkpt>
      <trkpt lat="47.62245" lon="-2.56103">
        <ele>-17.6</ele>
        <time>2020-10-07T14:36:46Z</time>
      </trkpt>
      <trkpt lat="47.62243" lon="-2.56137">
        <ele>-16.4</ele>
        <time>2020-10-07T14:36:50Z</time>
      </trkpt>
      <trkpt lat="47.6224" lon="-2.5617">
        <ele>-17.6</ele>
        <time>2020-10-07T14:36:54Z</time>
      </trkpt>
      <trkpt lat="47.62236" lon="-2.56202">
        <ele>-17.2</ele>
        <time>2020-10-07T14:36:58Z</time>
      </trkpt>
      <trkpt lat="47.62232" lon="-2.56236">
        <ele>-16.8</ele>
        <time>2020-10-07T14:37:02Z</time>
      </trkpt>
      <trkpt lat="47.62228" lon="-2.5627">
        <ele>-16.6</ele>
        <time>2020-10-07T14:37:06Z</time>
      </trkpt>
      <trkpt lat="47.62224" lon="-2.56303">
        <ele>-16.8</ele>
        <time>2020-10-07T14:37:10Z</time>
      </trkpt>
      <trkpt lat="47.6222" lon="-2.56338">
        <ele>-17.8</ele>
        <time>2020-10-07T14:37:14Z</time>
      </trkpt>
      <trkpt lat="47.62215" lon="-2.56371">
        <ele>-16.6</ele>
        <time>2020-10-07T14:37:18Z</time>
      </trkpt>
      <trkpt lat="47.62212" lon="-2.56404">
        <ele>-16.4</ele>
        <time>2020-10-07T14:37:22Z</time>
      </trkpt>
      <trkpt lat="47.62207" lon="-2.56435">
        <ele>-16</ele>
        <time>2020-10-07T14:37:26Z</time>
      </trkpt>
      <trkpt lat="47.62204" lon="-2.56466">
        <ele>-15.2</ele>
        <time>2020-10-07T14:37:30Z</time>
      </trkpt>
      <trkpt lat="47.622" lon="-2.56495">
        <ele>-14.8</ele>
        <time>2020-10-07T14:37:34Z</time>
      </trkpt>
      <trkpt lat="47.62196" lon="-2.5652">
        <ele>-13.8</ele>
        <time>2020-10-07T14:37:38Z</time>
      </trkpt>
      <trkpt lat="47.62194" lon="-2.56539">
        <ele>-13.6</ele>
        <time>2020-10-07T14:37:42Z</time>
      </trkpt>
      <trkpt lat="47.62179" lon="-2.56549">
        <ele>-14.4</ele>
        <time>2020-10-07T14:37:46Z</time>
      </trkpt>
      <trkpt lat="47.62158" lon="-2.56548">
        <ele>-14.8</ele>
        <time>2020-10-07T14:37:50Z</time>
      </trkpt>
      <trkpt lat="47.62144" lon="-2.56554">
        <ele>-13.8</ele>
        <time>2020-10-07T14:37:54Z</time>
      </trkpt>
      <trkpt lat="47.62132" lon="-2.56569">
        <ele>-13.2</ele>
        <time>2020-10-07T14:37:58Z</time>
      </trkpt>
      <trkpt lat="47.6212" lon="-2.56582">
        <ele>-12.4</ele>
        <time>2020-10-07T14:38:02Z</time>
      </trkpt>
      <trkpt lat="47.62111" lon="-2.56594">
        <ele>-12.8</ele>
        <time>2020-10-07T14:38:06Z</time>
      </trkpt>
      <trkpt lat="47.62103" lon="-2.56606">
        <ele>-12.4</ele>
        <time>2020-10-07T14:38:10Z</time>
      </trkpt>
      <trkpt lat="47.62095" lon="-2.56619">
        <ele>-10.8</ele>
        <time>2020-10-07T14:38:14Z</time>
      </trkpt>
      <trkpt lat="47.62088" lon="-2.56633">
        <ele>-10.6</ele>
        <time>2020-10-07T14:38:18Z</time>
      </trkpt>
      <trkpt lat="47.6208" lon="-2.56646">
        <ele>-10</ele>
        <time>2020-10-07T14:38:22Z</time>
      </trkpt>
      <trkpt lat="47.62073" lon="-2.56658">
        <ele>-9.6</ele>
        <time>2020-10-07T14:38:26Z</time>
      </trkpt>
      <trkpt lat="47.62067" lon="-2.56671">
        <ele>-8.2</ele>
        <time>2020-10-07T14:38:30Z</time>
      </trkpt>
      <trkpt lat="47.62064" lon="-2.56682">
        <ele>-7.4</ele>
        <time>2020-10-07T14:38:34Z</time>
      </trkpt>
      <trkpt lat="47.62065" lon="-2.56693">
        <ele>-7.2</ele>
        <time>2020-10-07T14:38:38Z</time>
      </trkpt>
      <trkpt lat="47.62067" lon="-2.56702">
        <ele>-6.2</ele>
        <time>2020-10-07T14:38:42Z</time>
      </trkpt>
      <trkpt lat="47.6207" lon="-2.5671">
        <ele>-6</ele>
        <time>2020-10-07T14:38:46Z</time>
      </trkpt>
      <trkpt lat="47.62072" lon="-2.56718">
        <ele>-6.2</ele>
        <time>2020-10-07T14:38:50Z</time>
      </trkpt>
      <trkpt lat="47.62076" lon="-2.56725">
        <ele>-6.2</ele>
        <time>2020-10-07T14:38:54Z</time>
      </trkpt>
      <trkpt lat="47.6208" lon="-2.56734">
        <ele>-5.8</ele>
        <time>2020-10-07T14:38:58Z</time>
      </trkpt>
      <trkpt lat="47.62083" lon="-2.56742">
        <ele>-5.6</ele>
        <time>2020-10-07T14:39:02Z</time>
      </trkpt>
      <trkpt lat="47.62084" lon="-2.56746">
        <ele>-5.4</ele>
        <time>2020-10-07T14:39:06Z</time>
      </trkpt>
      <trkpt lat="47.62082" lon="-2.56749">
        <ele>-5.6</ele>
        <time>2020-10-07T14:39:10Z</time>
      </trkpt>
      <trkpt lat="47.62081" lon="-2.56752">
        <ele>-5.6</ele>
        <time>2020-10-07T14:39:14Z</time>
      </trkpt>
      <trkpt lat="47.62081" lon="-2.56759">
        <ele>-5.6</ele>
        <time>2020-10-07T14:39:18Z</time>
      </trkpt>
      <trkpt lat="47.62084" lon="-2.56769">
        <ele>-5.2</ele>
        <time>2020-10-07T14:39:50Z</time>
      </trkpt>
      <trkpt lat="47.62085" lon="-2.56771">
        <ele>-5</ele>
        <time>2020-10-07T14:39:54Z</time>
      </trkpt>
      <trkpt lat="47.62088" lon="-2.56772">
        <ele>-4.8</ele>
        <time>2020-10-07T14:39:58Z</time>
      </trkpt>
      <trkpt lat="47.62092" lon="-2.56769">
        <ele>-4.4</ele>
        <time>2020-10-07T14:40:02Z</time>
      </trkpt>
      <trkpt lat="47.62099" lon="-2.56767">
        <ele>-4.8</ele>
        <time>2020-10-07T14:40:18Z</time>
      </trkpt>
      <trkpt lat="47.62102" lon="-2.56766">
        <ele>-4.6</ele>
        <time>2020-10-07T14:40:22Z</time>
      </trkpt>
      <trkpt lat="47.62105" lon="-2.56763">
        <ele>-4.4</ele>
        <time>2020-10-07T14:41:14Z</time>
      </trkpt>
      <trkpt lat="47.62107" lon="-2.56764">
        <ele>-4</ele>
        <time>2020-10-07T14:41:18Z</time>
      </trkpt>
      <trkpt lat="47.62109" lon="-2.56767">
        <ele>-4.6</ele>
        <time>2020-10-07T14:41:22Z</time>
      </trkpt>
      <trkpt lat="47.62112" lon="-2.5677">
        <ele>-4.4</ele>
        <time>2020-10-07T14:41:26Z</time>
      </trkpt>
      <trkpt lat="47.62116" lon="-2.56776">
        <ele>-4.6</ele>
        <time>2020-10-07T14:41:30Z</time>
      </trkpt>
      <trkpt lat="47.62118" lon="-2.5678">
        <ele>-4.2</ele>
        <time>2020-10-07T14:41:34Z</time>
      </trkpt>
      <trkpt lat="47.62119" lon="-2.56788">
        <ele>-4</ele>
        <time>2020-10-07T14:41:38Z</time>
      </trkpt>
      <trkpt lat="47.6212" lon="-2.56794">
        <ele>-2.6</ele>
        <time>2020-10-07T14:41:42Z</time>
      </trkpt>
      <trkpt lat="47.62123" lon="-2.56796">
        <ele>-2.6</ele>
        <time>2020-10-07T14:41:46Z</time>
      </trkpt>
      <trkpt lat="47.62126" lon="-2.568">
        <ele>-3.2</ele>
        <time>2020-10-07T14:41:54Z</time>
      </trkpt>
      <trkpt lat="47.62128" lon="-2.56805">
        <ele>-3</ele>
        <time>2020-10-07T14:41:58Z</time>
      </trkpt>
      <trkpt lat="47.62132" lon="-2.56812">
        <ele>-3</ele>
        <time>2020-10-07T14:42:02Z</time>
      </trkpt>
      <trkpt lat="47.62134" lon="-2.56817">
        <ele>-3</ele>
        <time>2020-10-07T14:42:06Z</time>
      </trkpt>
      <trkpt lat="47.62134" lon="-2.56824">
        <ele>-3</ele>
        <time>2020-10-07T14:42:10Z</time>
      </trkpt>
      <trkpt lat="47.62135" lon="-2.5683">
        <ele>-2</ele>
        <time>2020-10-07T14:42:14Z</time>
      </trkpt>
      <trkpt lat="47.62137" lon="-2.56833">
        <ele>-2</ele>
        <time>2020-10-07T14:42:18Z</time>
      </trkpt>
      <trkpt lat="47.62138" lon="-2.56837">
        <ele>-2</ele>
        <time>2020-10-07T14:42:22Z</time>
      </trkpt>
      <trkpt lat="47.6214" lon="-2.56842">
        <ele>-1.6</ele>
        <time>2020-10-07T14:42:26Z</time>
      </trkpt>
      <trkpt lat="47.62142" lon="-2.56845">
        <ele>-1.6</ele>
        <time>2020-10-07T14:42:30Z</time>
      </trkpt>
      <trkpt lat="47.62144" lon="-2.56851">
        <ele>-1.6</ele>
        <time>2020-10-07T14:42:34Z</time>
      </trkpt>
      <trkpt lat="47.62147" lon="-2.56859">
        <ele>-1.8</ele>
        <time>2020-10-07T14:42:38Z</time>
      </trkpt>
      <trkpt lat="47.6215" lon="-2.56864">
        <ele>-1.8</ele>
        <time>2020-10-07T14:42:46Z</time>
      </trkpt>
      <trkpt lat="47.62154" lon="-2.56865">
        <ele>-2.8</ele>
        <time>2020-10-07T14:42:50Z</time>
      </trkpt>
      <trkpt lat="47.62161" lon="-2.56867">
        <ele>-3.8</ele>
        <time>2020-10-07T14:42:54Z</time>
      </trkpt>
      <trkpt lat="47.62168" lon="-2.5687">
        <ele>-4</ele>
        <time>2020-10-07T14:42:58Z</time>
      </trkpt>
      <trkpt lat="47.62174" lon="-2.56874">
        <ele>-4.2</ele>
        <time>2020-10-07T14:43:02Z</time>
      </trkpt>
      <trkpt lat="47.62184" lon="-2.56872">
        <ele>-5.2</ele>
        <time>2020-10-07T14:43:06Z</time>
      </trkpt>
      <trkpt lat="47.62192" lon="-2.56871">
        <ele>-4.8</ele>
        <time>2020-10-07T14:43:10Z</time>
      </trkpt>
      <trkpt lat="47.62195" lon="-2.56872">
        <ele>-4.8</ele>
        <time>2020-10-07T14:43:14Z</time>
      </trkpt>
      <trkpt lat="47.62202" lon="-2.56872">
        <ele>-4.8</ele>
        <time>2020-10-07T14:43:18Z</time>
      </trkpt>
      <trkpt lat="47.62209" lon="-2.56874">
        <ele>-5</ele>
        <time>2020-10-07T14:43:22Z</time>
      </trkpt>
      <trkpt lat="47.62218" lon="-2.56883">
        <ele>-4.6</ele>
        <time>2020-10-07T14:43:26Z</time>
      </trkpt>
      <trkpt lat="47.62226" lon="-2.56892">
        <ele>-4.2</ele>
        <time>2020-10-07T14:43:30Z</time>
      </trkpt>
      <trkpt lat="47.62231" lon="-2.56903">
        <ele>-4.4</ele>
        <time>2020-10-07T14:43:34Z</time>
      </trkpt>
      <trkpt lat="47.62233" lon="-2.56914">
        <ele>-4.4</ele>
        <time>2020-10-07T14:43:38Z</time>
      </trkpt>
      <trkpt lat="47.62234" lon="-2.56921">
        <ele>-4.2</ele>
        <time>2020-10-07T14:43:42Z</time>
      </trkpt>
      <trkpt lat="47.62236" lon="-2.5693">
        <ele>-4.4</ele>
        <time>2020-10-07T14:43:46Z</time>
      </trkpt>
      <trkpt lat="47.6224" lon="-2.56934">
        <ele>-4.6</ele>
        <time>2020-10-07T14:43:50Z</time>
      </trkpt>
      <trkpt lat="47.62242" lon="-2.56942">
        <ele>-4.6</ele>
        <time>2020-10-07T14:43:54Z</time>
      </trkpt>
      <trkpt lat="47.62249" lon="-2.56946">
        <ele>-3.2</ele>
        <time>2020-10-07T14:43:58Z</time>
      </trkpt>
      <trkpt lat="47.62259" lon="-2.56944">
        <ele>-3.6</ele>
        <time>2020-10-07T14:44:02Z</time>
      </trkpt>
      <trkpt lat="47.62271" lon="-2.56946">
        <ele>-4.4</ele>
        <time>2020-10-07T14:44:06Z</time>
      </trkpt>
      <trkpt lat="47.62286" lon="-2.56949">
        <ele>-4.8</ele>
        <time>2020-10-07T14:44:10Z</time>
      </trkpt>
      <trkpt lat="47.62303" lon="-2.56951">
        <ele>-5</ele>
        <time>2020-10-07T14:44:14Z</time>
      </trkpt>
      <trkpt lat="47.62321" lon="-2.56954">
        <ele>-4.6</ele>
        <time>2020-10-07T14:44:18Z</time>
      </trkpt>
      <trkpt lat="47.62336" lon="-2.56956">
        <ele>-4.2</ele>
        <time>2020-10-07T14:44:22Z</time>
      </trkpt>
      <trkpt lat="47.62352" lon="-2.56956">
        <ele>-5.6</ele>
        <time>2020-10-07T14:44:26Z</time>
      </trkpt>
      <trkpt lat="47.62366" lon="-2.56954">
        <ele>-5.2</ele>
        <time>2020-10-07T14:44:30Z</time>
      </trkpt>
      <trkpt lat="47.62378" lon="-2.5695">
        <ele>-5.2</ele>
        <time>2020-10-07T14:44:34Z</time>
      </trkpt>
      <trkpt lat="47.62388" lon="-2.56941">
        <ele>-5.4</ele>
        <time>2020-10-07T14:44:38Z</time>
      </trkpt>
      <trkpt lat="47.62397" lon="-2.56937">
        <ele>-5.2</ele>
        <time>2020-10-07T14:44:42Z</time>
      </trkpt>
      <trkpt lat="47.62401" lon="-2.56945">
        <ele>-6.4</ele>
        <time>2020-10-07T14:44:46Z</time>
      </trkpt>
      <trkpt lat="47.62403" lon="-2.56957">
        <ele>-6.8</ele>
        <time>2020-10-07T14:44:50Z</time>
      </trkpt>
      <trkpt lat="47.62409" lon="-2.56975">
        <ele>-8.2</ele>
        <time>2020-10-07T14:44:54Z</time>
      </trkpt>
      <trkpt lat="47.62414" lon="-2.56998">
        <ele>-10.2</ele>
        <time>2020-10-07T14:44:58Z</time>
      </trkpt>
      <trkpt lat="47.62419" lon="-2.57023">
        <ele>-10.8</ele>
        <time>2020-10-07T14:45:02Z</time>
      </trkpt>
      <trkpt lat="47.62424" lon="-2.57048">
        <ele>-11.8</ele>
        <time>2020-10-07T14:45:06Z</time>
      </trkpt>
      <trkpt lat="47.62429" lon="-2.57075">
        <ele>-12.4</ele>
        <time>2020-10-07T14:45:10Z</time>
      </trkpt>
      <trkpt lat="47.62435" lon="-2.57103">
        <ele>-12.4</ele>
        <time>2020-10-07T14:45:14Z</time>
      </trkpt>
      <trkpt lat="47.62442" lon="-2.57134">
        <ele>-14.4</ele>
        <time>2020-10-07T14:45:18Z</time>
      </trkpt>
      <trkpt lat="47.62447" lon="-2.57162">
        <ele>-14.4</ele>
        <time>2020-10-07T14:45:22Z</time>
      </trkpt>
      <trkpt lat="47.62452" lon="-2.57184">
        <ele>-14</ele>
        <time>2020-10-07T14:45:26Z</time>
      </trkpt>
      <trkpt lat="47.6245" lon="-2.57196">
        <ele>-14.2</ele>
        <time>2020-10-07T14:45:30Z</time>
      </trkpt>
      <trkpt lat="47.62447" lon="-2.57199">
        <ele>-14.8</ele>
        <time>2020-10-07T14:46:38Z</time>
      </trkpt>
      <trkpt lat="47.62453" lon="-2.572">
        <ele>-14.4</ele>
        <time>2020-10-07T14:46:42Z</time>
      </trkpt>
      <trkpt lat="47.62463" lon="-2.572">
        <ele>-14.4</ele>
        <time>2020-10-07T14:46:46Z</time>
      </trkpt>
      <trkpt lat="47.62483" lon="-2.57199">
        <ele>-16.2</ele>
        <time>2020-10-07T14:46:50Z</time>
      </trkpt>
      <trkpt lat="47.62505" lon="-2.57198">
        <ele>-17</ele>
        <time>2020-10-07T14:46:54Z</time>
      </trkpt>
      <trkpt lat="47.62529" lon="-2.57194">
        <ele>-18.6</ele>
        <time>2020-10-07T14:46:58Z</time>
      </trkpt>
      <trkpt lat="47.62554" lon="-2.57191">
        <ele>-19.8</ele>
        <time>2020-10-07T14:47:02Z</time>
      </trkpt>
      <trkpt lat="47.62576" lon="-2.57187">
        <ele>-19.8</ele>
        <time>2020-10-07T14:47:06Z</time>
      </trkpt>
      <trkpt lat="47.62598" lon="-2.57184">
        <ele>-19.6</ele>
        <time>2020-10-07T14:47:10Z</time>
      </trkpt>
      <trkpt lat="47.6262" lon="-2.57186">
        <ele>-20</ele>
        <time>2020-10-07T14:47:14Z</time>
      </trkpt>
      <trkpt lat="47.62643" lon="-2.57195">
        <ele>-20.6</ele>
        <time>2020-10-07T14:47:18Z</time>
      </trkpt>
      <trkpt lat="47.62666" lon="-2.5721">
        <ele>-19.6</ele>
        <time>2020-10-07T14:47:22Z</time>
      </trkpt>
      <trkpt lat="47.62684" lon="-2.57226">
        <ele>-18.2</ele>
        <time>2020-10-07T14:47:26Z</time>
      </trkpt>
      <trkpt lat="47.62703" lon="-2.57242">
        <ele>-17.6</ele>
        <time>2020-10-07T14:47:30Z</time>
      </trkpt>
      <trkpt lat="47.62724" lon="-2.57258">
        <ele>-17</ele>
        <time>2020-10-07T14:47:34Z</time>
      </trkpt>
      <trkpt lat="47.62743" lon="-2.57272">
        <ele>-15.2</ele>
        <time>2020-10-07T14:47:38Z</time>
      </trkpt>
      <trkpt lat="47.62761" lon="-2.57289">
        <ele>-15</ele>
        <time>2020-10-07T14:47:42Z</time>
      </trkpt>
      <trkpt lat="47.62779" lon="-2.57305">
        <ele>-15.2</ele>
        <time>2020-10-07T14:47:46Z</time>
      </trkpt>
      <trkpt lat="47.62797" lon="-2.57321">
        <ele>-14.4</ele>
        <time>2020-10-07T14:47:50Z</time>
      </trkpt>
      <trkpt lat="47.62815" lon="-2.57336">
        <ele>-14</ele>
        <time>2020-10-07T14:47:54Z</time>
      </trkpt>
      <trkpt lat="47.62834" lon="-2.57346">
        <ele>-14.8</ele>
        <time>2020-10-07T14:47:58Z</time>
      </trkpt>
      <trkpt lat="47.62854" lon="-2.5735">
        <ele>-15.2</ele>
        <time>2020-10-07T14:48:02Z</time>
      </trkpt>
      <trkpt lat="47.62875" lon="-2.57353">
        <ele>-14</ele>
        <time>2020-10-07T14:48:06Z</time>
      </trkpt>
      <trkpt lat="47.62896" lon="-2.57355">
        <ele>-14.2</ele>
        <time>2020-10-07T14:48:10Z</time>
      </trkpt>
      <trkpt lat="47.62917" lon="-2.57358">
        <ele>-12.4</ele>
        <time>2020-10-07T14:48:14Z</time>
      </trkpt>
      <trkpt lat="47.62937" lon="-2.57361">
        <ele>-12.6</ele>
        <time>2020-10-07T14:48:18Z</time>
      </trkpt>
      <trkpt lat="47.62957" lon="-2.57365">
        <ele>-12.8</ele>
        <time>2020-10-07T14:48:22Z</time>
      </trkpt>
      <trkpt lat="47.62979" lon="-2.5737">
        <ele>-13.4</ele>
        <time>2020-10-07T14:48:26Z</time>
      </trkpt>
      <trkpt lat="47.63002" lon="-2.57374">
        <ele>-14</ele>
        <time>2020-10-07T14:48:30Z</time>
      </trkpt>
      <trkpt lat="47.63023" lon="-2.57376">
        <ele>-14.2</ele>
        <time>2020-10-07T14:48:34Z</time>
      </trkpt>
      <trkpt lat="47.63039" lon="-2.57376">
        <ele>-13.8</ele>
        <time>2020-10-07T14:48:38Z</time>
      </trkpt>
      <trkpt lat="47.63046" lon="-2.5738">
        <ele>-13</ele>
        <time>2020-10-07T14:48:42Z</time>
      </trkpt>
      <trkpt lat="47.63045" lon="-2.57389">
        <ele>-13.6</ele>
        <time>2020-10-07T14:48:46Z</time>
      </trkpt>
      <trkpt lat="47.63042" lon="-2.57403">
        <ele>-14</ele>
        <time>2020-10-07T14:48:50Z</time>
      </trkpt>
      <trkpt lat="47.63045" lon="-2.5742">
        <ele>-14</ele>
        <time>2020-10-07T14:48:54Z</time>
      </trkpt>
      <trkpt lat="47.63049" lon="-2.57438">
        <ele>-13.8</ele>
        <time>2020-10-07T14:48:58Z</time>
      </trkpt>
      <trkpt lat="47.63053" lon="-2.57455">
        <ele>-13.8</ele>
        <time>2020-10-07T14:49:02Z</time>
      </trkpt>
      <trkpt lat="47.63057" lon="-2.57474">
        <ele>-13.4</ele>
        <time>2020-10-07T14:49:06Z</time>
      </trkpt>
      <trkpt lat="47.63061" lon="-2.57492">
        <ele>-13.6</ele>
        <time>2020-10-07T14:49:10Z</time>
      </trkpt>
      <trkpt lat="47.63066" lon="-2.57509">
        <ele>-13.8</ele>
        <time>2020-10-07T14:49:14Z</time>
      </trkpt>
      <trkpt lat="47.63069" lon="-2.57527">
        <ele>-13.2</ele>
        <time>2020-10-07T14:49:18Z</time>
      </trkpt>
      <trkpt lat="47.63072" lon="-2.57543">
        <ele>-13</ele>
        <time>2020-10-07T14:49:22Z</time>
      </trkpt>
      <trkpt lat="47.63075" lon="-2.57563">
        <ele>-13.2</ele>
        <time>2020-10-07T14:49:26Z</time>
      </trkpt>
      <trkpt lat="47.63079" lon="-2.57576">
        <ele>-12.8</ele>
        <time>2020-10-07T14:49:30Z</time>
      </trkpt>
      <trkpt lat="47.63079" lon="-2.5759">
        <ele>-12.8</ele>
        <time>2020-10-07T14:49:34Z</time>
      </trkpt>
      <trkpt lat="47.6308" lon="-2.57603">
        <ele>-12.6</ele>
        <time>2020-10-07T14:49:38Z</time>
      </trkpt>
      <trkpt lat="47.63084" lon="-2.57616">
        <ele>-11.8</ele>
        <time>2020-10-07T14:49:42Z</time>
      </trkpt>
      <trkpt lat="47.63088" lon="-2.57631">
        <ele>-12</ele>
        <time>2020-10-07T14:49:46Z</time>
      </trkpt>
      <trkpt lat="47.63089" lon="-2.57646">
        <ele>-12</ele>
        <time>2020-10-07T14:49:50Z</time>
      </trkpt>
      <trkpt lat="47.63093" lon="-2.5766">
        <ele>-12</ele>
        <time>2020-10-07T14:49:54Z</time>
      </trkpt>
      <trkpt lat="47.63096" lon="-2.57673">
        <ele>-12</ele>
        <time>2020-10-07T14:49:58Z</time>
      </trkpt>
      <trkpt lat="47.631" lon="-2.57685">
        <ele>-10.8</ele>
        <time>2020-10-07T14:50:02Z</time>
      </trkpt>
      <trkpt lat="47.631" lon="-2.57702">
        <ele>-10.8</ele>
        <time>2020-10-07T14:50:06Z</time>
      </trkpt>
      <trkpt lat="47.63105" lon="-2.57718">
        <ele>-10.6</ele>
        <time>2020-10-07T14:50:10Z</time>
      </trkpt>
      <trkpt lat="47.63112" lon="-2.57727">
        <ele>-10.4</ele>
        <time>2020-10-07T14:50:14Z</time>
      </trkpt>
      <trkpt lat="47.63119" lon="-2.57731">
        <ele>-10.4</ele>
        <time>2020-10-07T14:50:18Z</time>
      </trkpt>
      <trkpt lat="47.63125" lon="-2.57733">
        <ele>-10.4</ele>
        <time>2020-10-07T14:50:22Z</time>
      </trkpt>
      <trkpt lat="47.63132" lon="-2.57727">
        <ele>-9.8</ele>
        <time>2020-10-07T14:50:26Z</time>
      </trkpt>
      <trkpt lat="47.6314" lon="-2.57728">
        <ele>-9.6</ele>
        <time>2020-10-07T14:50:30Z</time>
      </trkpt>
      <trkpt lat="47.63146" lon="-2.57733">
        <ele>-9.4</ele>
        <time>2020-10-07T14:50:38Z</time>
      </trkpt>
      <trkpt lat="47.63149" lon="-2.57739">
        <ele>-9.8</ele>
        <time>2020-10-07T14:50:42Z</time>
      </trkpt>
      <trkpt lat="47.63154" lon="-2.57746">
        <ele>-10</ele>
        <time>2020-10-07T14:50:46Z</time>
      </trkpt>
      <trkpt lat="47.63162" lon="-2.57746">
        <ele>-9</ele>
        <time>2020-10-07T14:50:50Z</time>
      </trkpt>
      <trkpt lat="47.63171" lon="-2.57748">
        <ele>-8.4</ele>
        <time>2020-10-07T14:50:54Z</time>
      </trkpt>
      <trkpt lat="47.63177" lon="-2.57748">
        <ele>-7.4</ele>
        <time>2020-10-07T14:50:58Z</time>
      </trkpt>
      <trkpt lat="47.63185" lon="-2.57747">
        <ele>-7.4</ele>
        <time>2020-10-07T14:51:02Z</time>
      </trkpt>
      <trkpt lat="47.63196" lon="-2.57745">
        <ele>-7</ele>
        <time>2020-10-07T14:51:06Z</time>
      </trkpt>
      <trkpt lat="47.63206" lon="-2.5774">
        <ele>-7.2</ele>
        <time>2020-10-07T14:51:10Z</time>
      </trkpt>
      <trkpt lat="47.63211" lon="-2.57731">
        <ele>-6.8</ele>
        <time>2020-10-07T14:51:14Z</time>
      </trkpt>
      <trkpt lat="47.63217" lon="-2.57722">
        <ele>-6.6</ele>
        <time>2020-10-07T14:51:18Z</time>
      </trkpt>
      <trkpt lat="47.63222" lon="-2.57719">
        <ele>-7</ele>
        <time>2020-10-07T14:51:22Z</time>
      </trkpt>
      <trkpt lat="47.63229" lon="-2.57712">
        <ele>-6</ele>
        <time>2020-10-07T14:51:26Z</time>
      </trkpt>
      <trkpt lat="47.6324" lon="-2.57703">
        <ele>-6.4</ele>
        <time>2020-10-07T14:51:30Z</time>
      </trkpt>
      <trkpt lat="47.63248" lon="-2.57697">
        <ele>-5.8</ele>
        <time>2020-10-07T14:51:34Z</time>
      </trkpt>
      <trkpt lat="47.63261" lon="-2.5768">
        <ele>-5.8</ele>
        <time>2020-10-07T14:51:50Z</time>
      </trkpt>
      <trkpt lat="47.63261" lon="-2.57671">
        <ele>-5</ele>
        <time>2020-10-07T14:52:02Z</time>
      </trkpt>
      <trkpt lat="47.63261" lon="-2.57667">
        <ele>-4.8</ele>
        <time>2020-10-07T14:52:06Z</time>
      </trkpt>
      <trkpt lat="47.63261" lon="-2.57661">
        <ele>-4.8</ele>
        <time>2020-10-07T14:52:10Z</time>
      </trkpt>
      <trkpt lat="47.63259" lon="-2.57656">
        <ele>-6</ele>
        <time>2020-10-07T14:52:14Z</time>
      </trkpt>
      <trkpt lat="47.6326" lon="-2.57647">
        <ele>-5.6</ele>
        <time>2020-10-07T14:52:18Z</time>
      </trkpt>
      <trkpt lat="47.63258" lon="-2.57636">
        <ele>-5.6</ele>
        <time>2020-10-07T14:52:22Z</time>
      </trkpt>
      <trkpt lat="47.63255" lon="-2.5762">
        <ele>-7</ele>
        <time>2020-10-07T14:52:26Z</time>
      </trkpt>
      <trkpt lat="47.63253" lon="-2.57607">
        <ele>-7.4</ele>
        <time>2020-10-07T14:52:30Z</time>
      </trkpt>
      <trkpt lat="47.6325" lon="-2.57593">
        <ele>-8.6</ele>
        <time>2020-10-07T14:52:34Z</time>
      </trkpt>
      <trkpt lat="47.63251" lon="-2.57582">
        <ele>-9.8</ele>
        <time>2020-10-07T14:52:38Z</time>
      </trkpt>
      <trkpt lat="47.6325" lon="-2.57568">
        <ele>-10</ele>
        <time>2020-10-07T14:52:42Z</time>
      </trkpt>
      <trkpt lat="47.63245" lon="-2.57549">
        <ele>-10.4</ele>
        <time>2020-10-07T14:52:46Z</time>
      </trkpt>
      <trkpt lat="47.63248" lon="-2.57542">
        <ele>-10.8</ele>
        <time>2020-10-07T14:52:50Z</time>
      </trkpt>
      <trkpt lat="47.6325" lon="-2.57529">
        <ele>-11.8</ele>
        <time>2020-10-07T14:52:54Z</time>
      </trkpt>
      <trkpt lat="47.63255" lon="-2.57519">
        <ele>-12.2</ele>
        <time>2020-10-07T14:52:58Z</time>
      </trkpt>
      <trkpt lat="47.63261" lon="-2.57513">
        <ele>-12.6</ele>
        <time>2020-10-07T14:53:02Z</time>
      </trkpt>
      <trkpt lat="47.63267" lon="-2.57507">
        <ele>-13.6</ele>
        <time>2020-10-07T14:53:06Z</time>
      </trkpt>
      <trkpt lat="47.63272" lon="-2.57504">
        <ele>-13.8</ele>
        <time>2020-10-07T14:53:10Z</time>
      </trkpt>
      <trkpt lat="47.63278" lon="-2.575">
        <ele>-14.8</ele>
        <time>2020-10-07T14:53:14Z</time>
      </trkpt>
      <trkpt lat="47.63281" lon="-2.5749">
        <ele>-15.6</ele>
        <time>2020-10-07T14:53:18Z</time>
      </trkpt>
      <trkpt lat="47.63286" lon="-2.57486">
        <ele>-17</ele>
        <time>2020-10-07T14:53:26Z</time>
      </trkpt>
      <trkpt lat="47.63291" lon="-2.57485">
        <ele>-17.2</ele>
        <time>2020-10-07T14:53:30Z</time>
      </trkpt>
      <trkpt lat="47.63297" lon="-2.57478">
        <ele>-18.4</ele>
        <time>2020-10-07T14:53:34Z</time>
      </trkpt>
      <trkpt lat="47.63302" lon="-2.57478">
        <ele>-18.6</ele>
        <time>2020-10-07T14:53:38Z</time>
      </trkpt>
      <trkpt lat="47.6331" lon="-2.57479">
        <ele>-17.8</ele>
        <time>2020-10-07T14:53:42Z</time>
      </trkpt>
      <trkpt lat="47.63317" lon="-2.57479">
        <ele>-18.4</ele>
        <time>2020-10-07T14:53:46Z</time>
      </trkpt>
      <trkpt lat="47.63329" lon="-2.57481">
        <ele>-18.6</ele>
        <time>2020-10-07T14:53:50Z</time>
      </trkpt>
      <trkpt lat="47.63346" lon="-2.57485">
        <ele>-18.8</ele>
        <time>2020-10-07T14:53:54Z</time>
      </trkpt>
      <trkpt lat="47.63362" lon="-2.57483">
        <ele>-20</ele>
        <time>2020-10-07T14:53:58Z</time>
      </trkpt>
      <trkpt lat="47.63378" lon="-2.57469">
        <ele>-21</ele>
        <time>2020-10-07T14:54:02Z</time>
      </trkpt>
      <trkpt lat="47.63391" lon="-2.57455">
        <ele>-21.4</ele>
        <time>2020-10-07T14:54:06Z</time>
      </trkpt>
      <trkpt lat="47.63398" lon="-2.57452">
        <ele>-21</ele>
        <time>2020-10-07T14:54:10Z</time>
      </trkpt>
      <trkpt lat="47.63402" lon="-2.57446">
        <ele>-22.2</ele>
        <time>2020-10-07T14:54:14Z</time>
      </trkpt>
      <trkpt lat="47.6341" lon="-2.5744">
        <ele>-23</ele>
        <time>2020-10-07T14:54:18Z</time>
      </trkpt>
      <trkpt lat="47.6342" lon="-2.57439">
        <ele>-22.8</ele>
        <time>2020-10-07T14:54:22Z</time>
      </trkpt>
      <trkpt lat="47.63428" lon="-2.57438">
        <ele>-23</ele>
        <time>2020-10-07T14:54:26Z</time>
      </trkpt>
      <trkpt lat="47.63437" lon="-2.57435">
        <ele>-23</ele>
        <time>2020-10-07T14:55:14Z</time>
      </trkpt>
      <trkpt lat="47.63443" lon="-2.57437">
        <ele>-23.6</ele>
        <time>2020-10-07T14:55:18Z</time>
      </trkpt>
      <trkpt lat="47.63453" lon="-2.57451">
        <ele>-23.6</ele>
        <time>2020-10-07T14:55:22Z</time>
      </trkpt>
      <trkpt lat="47.63463" lon="-2.57472">
        <ele>-23.6</ele>
        <time>2020-10-07T14:55:26Z</time>
      </trkpt>
      <trkpt lat="47.63471" lon="-2.57491">
        <ele>-23.4</ele>
        <time>2020-10-07T14:55:30Z</time>
      </trkpt>
      <trkpt lat="47.63477" lon="-2.57507">
        <ele>-23.8</ele>
        <time>2020-10-07T14:55:34Z</time>
      </trkpt>
      <trkpt lat="47.63484" lon="-2.57527">
        <ele>-24.4</ele>
        <time>2020-10-07T14:55:38Z</time>
      </trkpt>
      <trkpt lat="47.63492" lon="-2.57562">
        <ele>-25.8</ele>
        <time>2020-10-07T14:55:42Z</time>
      </trkpt>
      <trkpt lat="47.635" lon="-2.57599">
        <ele>-26.8</ele>
        <time>2020-10-07T14:55:46Z</time>
      </trkpt>
      <trkpt lat="47.63504" lon="-2.57642">
        <ele>-28.8</ele>
        <time>2020-10-07T14:55:50Z</time>
      </trkpt>
      <trkpt lat="47.63507" lon="-2.57684">
        <ele>-30.4</ele>
        <time>2020-10-07T14:55:54Z</time>
      </trkpt>
      <trkpt lat="47.63508" lon="-2.57725">
        <ele>-30.4</ele>
        <time>2020-10-07T14:55:58Z</time>
      </trkpt>
      <trkpt lat="47.63512" lon="-2.57766">
        <ele>-29.2</ele>
        <time>2020-10-07T14:56:02Z</time>
      </trkpt>
      <trkpt lat="47.63516" lon="-2.5782">
        <ele>28.2</ele>
      </trkpt>
      <trkpt lat="47.635" lon="-2.57836">
        <ele>28</ele>
      </trkpt>
      <trkpt lat="47.63497" lon="-2.57865">
        <ele>28</ele>
      </trkpt>
      <trkpt lat="47.63484" lon="-2.57891">
        <ele>28.4</ele>
      </trkpt>
      <trkpt lat="47.63407" lon="-2.57926">
        <ele>28.3</ele>
      </trkpt>
      <trkpt lat="47.6333" lon="-2.57941">
        <ele>30</ele>
      </trkpt>
      <trkpt lat="47.63275" lon="-2.58107">
        <ele>33.5</ele>
      </trkpt>
      <trkpt lat="47.63283" lon="-2.58151">
        <ele>35.3</ele>
      </trkpt>
      <trkpt lat="47.63278" lon="-2.58176">
        <ele>34.8</ele>
      </trkpt>
      <trkpt lat="47.63283" lon="-2.58193">
        <ele>32.1</ele>
      </trkpt>
      <trkpt lat="47.63272" lon="-2.58228">
        <ele>32.5</ele>
      </trkpt>
      <trkpt lat="47.63298" lon="-2.58328">
        <ele>27.1</ele>
      </trkpt>
      <trkpt lat="47.63291" lon="-2.58368">
        <ele>27.7</ele>
      </trkpt>
      <trkpt lat="47.63272" lon="-2.58445">
        <ele>26.3</ele>
      </trkpt>
      <trkpt lat="47.6329" lon="-2.58525">
        <ele>28.2</ele>
      </trkpt>
      <trkpt lat="47.63305" lon="-2.5852">
        <ele>25.8</ele>
      </trkpt>
      <trkpt lat="47.63329" lon="-2.58564">
        <ele>25.5</ele>
      </trkpt>
      <trkpt lat="47.63333" lon="-2.58612">
        <ele>25.1</ele>
      </trkpt>
      <trkpt lat="47.63324" lon="-2.58666">
        <ele>27</ele>
      </trkpt>
      <trkpt lat="47.63326" lon="-2.58673">
        <ele>26.3</ele>
      </trkpt>
      <trkpt lat="47.63315" lon="-2.58689">
        <ele>28.1</ele>
      </trkpt>
      <trkpt lat="47.63315" lon="-2.58728">
        <ele>25</ele>
      </trkpt>
      <trkpt lat="47.63298" lon="-2.58759">
        <ele>25.7</ele>
      </trkpt>
      <trkpt lat="47.63283" lon="-2.58814">
        <ele>24.6</ele>
      </trkpt>
      <trkpt lat="47.63291" lon="-2.58901">
        <ele>24.2</ele>
      </trkpt>
      <trkpt lat="47.63292" lon="-2.5892">
        <ele>24</ele>
      </trkpt>
      <trkpt lat="47.63284" lon="-2.58954">
        <ele>23.1</ele>
      </trkpt>
      <trkpt lat="47.63291" lon="-2.58981">
        <ele>23.3</ele>
      </trkpt>
      <trkpt lat="47.63197" lon="-2.59011">
        <ele>29</ele>
      </trkpt>
      <trkpt lat="47.63067" lon="-2.58973">
        <ele>32</ele>
      </trkpt>
      <trkpt lat="47.62809" lon="-2.58827">
        <ele>30.2</ele>
      </trkpt>
      <trkpt lat="47.62621" lon="-2.58756">
        <ele>24.3</ele>
      </trkpt>
      <trkpt lat="47.62443" lon="-2.58728">
        <ele>22.8</ele>
      </trkpt>
      <trkpt lat="47.62326" lon="-2.5873">
        <ele>19.7</ele>
      </trkpt>
      <trkpt lat="47.62293" lon="-2.58694">
        <ele>20.1</ele>
      </trkpt>
      <trkpt lat="47.62189" lon="-2.58698">
        <ele>16</ele>
      </trkpt>
      <trkpt lat="47.6263" lon="-2.59421">
        <ele>18.8</ele>
      </trkpt>
      <trkpt lat="47.62783" lon="-2.59475">
        <ele>18.4</ele>
      </trkpt>
      <trkpt lat="47.62931" lon="-2.59494">
        <ele>25.9</ele>
      </trkpt>
      <trkpt lat="47.62973" lon="-2.59541">
        <ele>22.5</ele>
      </trkpt>
      <trkpt lat="47.63084" lon="-2.59893">
        <ele>32</ele>
      </trkpt>
      <trkpt lat="47.62916" lon="-2.59998">
        <ele>28.1</ele>
      </trkpt>
      <trkpt lat="47.62884" lon="-2.6002">
        <ele>28.3</ele>
      </trkpt>
      <trkpt lat="47.62903" lon="-2.60041">
        <ele>27.8</ele>
      </trkpt>
      <trkpt lat="47.62897" lon="-2.60286">
        <ele>27.4</ele>
      </trkpt>
      <trkpt lat="47.62897" lon="-2.60494">
        <ele>18</ele>
      </trkpt>
      <trkpt lat="47.62889" lon="-2.60565">
        <ele>15</ele>
      </trkpt>
      <trkpt lat="47.62902" lon="-2.60674">
        <ele>14.1</ele>
      </trkpt>
      <trkpt lat="47.6298" lon="-2.60861">
        <ele>18</ele>
      </trkpt>
      <trkpt lat="47.62947" lon="-2.61406">
        <ele>14.1</ele>
      </trkpt>
      <trkpt lat="47.62912" lon="-2.62247">
        <ele>10</ele>
      </trkpt>
      <trkpt lat="47.62842" lon="-2.6229">
        <ele>9.4</ele>
      </trkpt>
      <trkpt lat="47.62844" lon="-2.62391">
        <ele>8</ele>
      </trkpt>
      <trkpt lat="47.62573" lon="-2.62636">
        <ele>7.1</ele>
      </trkpt>
      <trkpt lat="47.62595" lon="-2.6273">
        <ele>7</ele>
      </trkpt>
      <trkpt lat="47.62458" lon="-2.63099">
        <ele>9.1</ele>
      </trkpt>
      <trkpt lat="47.6242" lon="-2.63084">
        <ele>10.8</ele>
      </trkpt>
      <trkpt lat="47.62406" lon="-2.63108">
        <ele>14.3</ele>
      </trkpt>
      <trkpt lat="47.62326" lon="-2.63063">
        <ele>20.2</ele>
      </trkpt>
      <trkpt lat="47.62277" lon="-2.63131">
        <ele>17.1</ele>
      </trkpt>
      <trkpt lat="47.62398" lon="-2.63202">
        <ele>14</ele>
      </trkpt>
      <trkpt lat="47.62478" lon="-2.63318">
        <ele>9</ele>
      </trkpt>
      <trkpt lat="47.62511" lon="-2.63492">
        <ele>14.5</ele>
      </trkpt>
      <trkpt lat="47.62477" lon="-2.63547">
        <ele>16.7</ele>
      </trkpt>
      <trkpt lat="47.62426" lon="-2.63751">
        <ele>8.6</ele>
      </trkpt>
      <trkpt lat="47.62521" lon="-2.64103">
        <ele>4.2</ele>
      </trkpt>
      <trkpt lat="47.62589" lon="-2.64211">
        <ele>4.5</ele>
      </trkpt>
      <trkpt lat="47.62693" lon="-2.64408">
        <ele>5</ele>
      </trkpt>
      <trkpt lat="47.62748" lon="-2.64391">
        <ele>6.9</ele>
      </trkpt>
    </trkseg>
  </trk>
</gpx>